[[{"header":{"parameterUnit":"m.s-1","parameterCategory":1,"la1":30.6,"la2":29.2853,"lo1":-89.7004,"lo2":-87.6739,"dy":0.0162,"dx":0.0183,"nx":112,"ny":82,"refTime":"2024-07-20T18:00:00:Z","depth":0,"parameterNumber":2,"parameterNumberName":"U-component_of_WINDS"},"data":[0.0,0.0,0.0,0.0,0.0,0.0,0.0,0.0,0.0,0.0,0.0,0.0,0.0,0.0,0.0,0.0,0.0,0.0,0.0,0.0,0.0,0.0,0.0,0.0,0.0,0.0,0.0,0.0,0.0,0.0,0.0,0.0,0.0,0.0,0.0,0.0,0.0,0.0,0.0,0.0,0.0,0.0,0.0,0.0,0.0,0.0,0.0,0.0,0.0,0.0,0.0,0.0,0.0,0.0,0.0,0.0,0.0,0.0,0.0,0.0,0.0,0.0,0.0,0.0,0.0,0.0,0.0,0.0,0.0,0.0,0.0,0.0,0.0,0.0,0.0,0.0,0.0,0.0,0.0,0.0,0.0,0.0,0.0,0.0,0.0,0.0,0.0,0.0,0.0,0.0,-1.7067,-2.1427,-2.3947,-2.5201,-2.4929,-2.3942,-2.225,-1.9759,0.0,0.0,0.0,0.0,0.0,0.0,0.0,0.0,0.0,0.0,0.0,0.0,0.0,0.0,0.0,0.0,0.0,0.0,0.0,0.0,0.0,0.0,0.0,0.0,0.0,0.0,0.0,0.0,0.0,0.0,0.0,0.0,0.0,0.0,0.0,0.0,0.0,0.0,0.0,0.0,0.0,0.0,0.0,0.0,0.0,0.0,0.0,0.0,0.0,0.0,0.0,0.0,0.0,0.0,0.0,0.0,0.0,0.0,0.0,0.0,0.0,0.0,0.0,0.0,0.0,0.0,0.0,0.0,0.0,0.0,0.0,0.0,0.0,0.0,0.0,0.0,0.0,0.0,0.0,0.0,0.0,0.0,0.0,0.0,0.0,0.0,0.0,0.0,0.0,0.0,0.0,0.0,0.0,0.0,0.0,0.0,0.0,0.0,0.0,0.0,0.0,0.0,0.0,0.0,-1.8143,-2.3167,-2.4659,-2.5201,-2.4929,-2.2854,-2.1015,-1.9685,0.0,0.0,0.0,0.0,0.0,0.0,0.0,0.0,0.0,0.0,0.0,0.0,0.0,0.0,0.0,0.0,0.0,0.0,0.0,0.0,0.0,0.0,0.0,0.0,0.0,0.0,0.0,0.0,0.0,0.0,0.0,0.0,0.0,0.0,0.0,0.0,0.0,0.0,0.0,0.0,0.0,0.0,0.0,0.0,0.0,0.0,0.0,0.0,0.0,0.0,0.0,0.0,0.0,0.0,0.0,0.0,0.0,0.0,0.0,0.0,0.0,0.0,0.0,0.0,0.0,0.0,0.0,0.0,0.0,0.0,0.0,0.0,0.0,0.0,0.0,0.0,0.0,0.0,0.0,0.0,0.0,0.0,0.0,0.0,0.0,0.0,0.0,0.0,0.0,0.0,0.0,0.0,0.0,0.0,0.0,0.0,0.0,0.0,0.0,0.0,0.0,0.0,0.0,-1.7207,-1.955,-2.2389,-2.387,-2.4349,-2.3619,-2.2102,-2.055,-1.8997,-1.6594,0.0,0.0,0.0,0.0,0.0,0.0,0.0,0.0,0.0,0.0,0.0,0.0,0.0,0.0,0.0,0.0,0.0,0.0,0.0,0.0,0.0,0.0,0.0,0.0,0.0,0.0,0.0,0.0,0.0,0.0,0.0,0.0,0.0,0.0,0.0,0.0,0.0,0.0,0.0,0.0,0.0,0.0,0.0,0.0,0.0,0.0,0.0,0.0,0.0,0.0,0.0,0.0,0.0,0.0,0.0,0.0,0.0,0.0,0.0,0.0,0.0,0.0,0.0,0.0,0.0,0.0,0.0,0.0,0.0,0.0,0.0,0.0,0.0,0.0,0.0,0.0,0.0,0.0,0.0,0.0,0.0,0.0,0.0,0.0,0.0,0.0,0.0,0.0,0.0,0.0,0.0,0.0,0.0,0.0,0.0,0.0,0.0,0.0,0.0,0.0,0.0,0.0,-1.9231,-2.0837,-2.1716,-2.2967,-2.3389,-2.2469,-2.1289,-1.9854,-1.8129,-1.5555,0.0,0.0,0.0,0.0,0.0,0.0,0.0,0.0,0.0,0.0,0.0,0.0,0.0,0.0,0.0,0.0,0.0,0.0,0.0,0.0,0.0,0.0,0.0,0.0,0.0,0.0,0.0,0.0,0.0,0.0,0.0,0.0,0.0,0.0,0.0,0.0,0.0,0.0,0.0,0.0,0.0,0.0,0.0,0.0,0.0,0.0,0.0,0.0,0.0,0.0,0.0,0.0,0.0,0.0,0.0,0.0,0.0,0.0,0.0,0.0,0.0,0.0,0.0,0.0,0.0,0.0,0.0,0.0,0.0,0.0,0.0,0.0,0.0,0.0,0.0,0.0,0.0,0.0,0.0,0.0,0.0,0.0,0.0,0.0,0.0,0.0,0.0,0.0,0.0,0.0,0.0,0.0,0.0,0.0,0.0,0.0,0.0,0.0,0.0,0.0,0.0,0.0,-1.9408,-2.1735,-2.262,-2.27,-2.2618,-2.2431,-2.0172,-1.8324,-1.7256,-1.4163,0.0,0.0,0.0,0.0,0.0,0.0,0.0,0.0,0.0,0.0,0.0,0.0,0.0,0.0,0.0,0.0,0.0,0.0,0.0,0.0,0.0,0.0,0.0,0.0,0.0,0.0,0.0,0.0,0.0,0.0,0.0,0.0,0.0,0.0,0.0,0.0,0.0,0.0,0.0,0.0,0.0,0.0,0.0,0.0,0.0,0.0,0.0,0.0,0.0,0.0,0.0,0.0,0.0,0.0,0.0,0.0,0.0,0.0,0.0,0.0,0.0,0.0,0.0,0.0,0.0,0.0,0.0,0.0,0.0,0.0,0.0,0.0,0.0,0.0,0.0,0.0,0.0,0.0,0.0,0.0,0.0,0.0,0.0,0.0,0.0,0.0,0.0,0.0,0.0,0.0,0.0,0.0,0.0,0.0,0.0,0.0,0.0,0.0,0.0,0.0,0.0,0.0,-1.8121,-2.0222,0.0,-2.1652,-2.1618,-2.0895,-1.996,-1.8539,-1.6476,0.0,0.0,0.0,0.0,0.0,0.0,0.0,0.0,0.0,0.0,0.0,0.0,0.0,0.0,0.0,0.0,0.0,0.0,0.0,0.0,0.0,0.0,0.0,0.0,0.0,0.0,0.0,0.0,0.0,0.0,0.0,0.0,0.0,0.0,0.0,0.0,0.0,0.0,0.0,0.0,0.0,0.0,0.0,0.0,0.0,0.0,0.0,0.0,0.0,0.0,0.0,0.0,0.0,0.0,0.0,0.0,0.0,0.0,0.0,0.0,0.0,0.0,0.0,0.0,0.0,0.0,0.0,0.0,0.0,0.0,0.0,0.0,0.0,0.0,0.0,0.0,0.0,0.0,0.0,0.0,0.0,0.0,0.0,0.0,0.0,0.0,0.0,0.0,0.0,0.0,0.0,0.0,0.0,0.0,0.0,0.0,0.0,0.0,0.0,0.0,0.0,0.0,-1.4884,-1.7339,-1.9289,0.0,-2.0721,-2.0738,-1.9988,-1.9136,-1.7756,-1.5644,0.0,0.0,0.0,0.0,0.0,0.0,0.0,0.0,0.0,0.0,0.0,0.0,0.0,0.0,0.0,0.0,0.0,0.0,0.0,0.0,0.0,0.0,0.0,0.0,0.0,0.0,0.0,0.0,0.0,0.0,0.0,0.0,0.0,0.0,0.0,0.0,0.0,0.0,0.0,0.0,0.0,0.0,0.0,0.0,0.0,0.0,0.0,0.0,0.0,0.0,0.0,0.0,0.0,0.0,0.0,0.0,0.0,0.0,0.0,0.0,0.0,0.0,0.0,0.0,0.0,0.0,0.0,0.0,0.0,0.0,0.0,0.0,0.0,0.0,0.0,0.0,0.0,0.0,0.0,0.0,0.0,0.0,0.0,0.0,0.0,0.0,0.0,0.0,0.0,0.0,0.0,0.0,0.0,0.0,0.0,0.0,0.0,0.0,0.0,0.0,0.0,0.0,-1.4884,-1.7381,-1.934,-2.0207,-2.0115,-2.0011,-2.0001,-1.7562,-1.5642,0.0,0.0,0.0,0.0,0.0,0.0,0.0,0.0,0.0,0.0,0.0,0.0,0.0,0.0,0.0,0.0,0.0,0.0,0.0,0.0,0.0,0.0,0.0,0.0,0.0,0.0,0.0,0.0,0.0,0.0,0.0,0.0,0.0,0.0,0.0,0.0,0.0,0.0,0.0,0.0,0.0,0.0,0.0,0.0,0.0,0.0,0.0,0.0,0.0,0.0,0.0,0.0,0.0,0.0,0.0,0.0,0.0,0.0,0.0,0.0,0.0,0.0,0.0,0.0,0.0,0.0,0.0,0.0,0.0,0.0,0.0,0.0,0.0,0.0,0.0,0.0,0.0,0.0,0.0,0.0,0.0,0.0,0.0,0.0,0.0,0.0,0.0,0.0,0.0,0.0,0.0,0.0,0.0,0.0,0.0,0.0,0.0,0.0,0.0,0.0,0.0,0.0,0.0,-1.4961,-1.7382,-1.9323,-2.021,-2.0195,-2.0107,-2.0011,-1.8663,-1.6935,-1.4829,0.0,0.0,0.0,0.0,0.0,0.0,0.0,0.0,0.0,0.0,0.0,0.0,0.0,0.0,0.0,0.0,0.0,0.0,0.0,0.0,0.0,0.0,0.0,0.0,0.0,0.0,0.0,0.0,0.0,0.0,0.0,0.0,0.0,0.0,0.0,0.0,0.0,0.0,0.0,0.0,0.0,0.0,0.0,0.0,0.0,0.0,0.0,0.0,0.0,0.0,0.0,0.0,0.0,0.0,0.0,0.0,0.0,0.0,0.0,0.0,0.0,0.0,0.0,0.0,0.0,0.0,0.0,0.0,0.0,0.0,0.0,0.0,0.0,0.0,0.0,0.0,0.0,0.0,0.0,0.0,0.0,0.0,0.0,0.0,0.0,0.0,0.0,0.0,0.0,0.0,0.0,0.0,0.0,0.0,0.0,0.0,0.0,0.0,0.0,0.0,0.0,0.0,-1.4967,-1.7408,-1.9362,-2.0211,-2.0242,-2.0161,-2.0041,-1.918,-1.7667,-1.5363,0.0,0.0,0.0,0.0,0.0,0.0,0.0,0.0,0.0,0.0,0.0,0.0,0.0,0.0,0.0,0.0,0.0,0.0,0.0,0.0,0.0,0.0,0.0,0.0,0.0,0.0,0.0,0.0,0.0,0.0,0.0,0.0,0.0,0.0,0.0,0.0,0.0,0.0,0.0,0.0,0.0,0.0,0.0,0.0,0.0,0.0,0.0,0.0,0.0,0.0,0.0,0.0,0.0,0.0,0.0,0.0,0.0,0.0,0.0,0.0,0.0,0.0,0.0,0.0,0.0,0.0,0.0,0.0,0.0,0.0,0.0,0.0,0.0,0.0,0.0,0.0,0.0,0.0,0.0,0.0,0.0,0.0,0.0,0.0,0.0,0.0,0.0,0.0,0.0,0.0,0.0,0.0,0.0,0.0,0.0,0.0,0.0,0.0,0.0,0.0,0.0,0.0,-1.5017,-1.7485,-1.94,-2.0212,-2.0246,-2.0167,-2.0117,-1.922,-1.7953,-1.622,0.0,0.0,0.0,0.0,0.0,0.0,0.0,0.0,0.0,0.0,0.0,0.0,0.0,0.0,0.0,0.0,0.0,0.0,0.0,0.0,0.0,0.0,0.0,0.0,0.0,0.0,0.0,0.0,0.0,0.0,0.0,0.0,0.0,0.0,0.0,0.0,0.0,0.0,0.0,0.0,0.0,0.0,0.0,0.0,0.0,0.0,0.0,0.0,0.0,0.0,0.0,0.0,0.0,0.0,0.0,0.0,0.0,0.0,0.0,0.0,-1.5036,0.0,0.0,0.0,0.0,0.0,0.0,0.0,0.0,0.0,0.0,0.0,0.0,0.0,0.0,0.0,0.0,0.0,0.0,0.0,0.0,0.0,0.0,0.0,0.0,0.0,0.0,0.0,0.0,0.0,0.0,0.0,0.0,0.0,0.0,0.0,0.0,0.0,0.0,0.0,0.0,0.0,-1.5926,-1.7876,-1.9432,-2.0283,-2.0219,-2.0116,-2.0098,-1.9149,-1.8102,-1.7093,-1.4691,0.0,0.0,0.0,0.0,0.0,0.0,0.0,0.0,0.0,0.0,0.0,0.0,0.0,0.0,0.0,0.0,0.0,0.0,0.0,0.0,0.0,0.0,0.0,0.0,0.0,0.0,0.0,0.0,0.0,0.0,0.0,0.0,0.0,0.0,0.0,0.0,0.0,0.0,0.0,0.0,0.0,0.0,0.0,0.0,0.0,0.0,0.0,0.0,0.0,0.0,0.0,0.0,0.0,0.0,0.0,0.0,0.0,0.0,0.0,0.0,-1.7017,0.0,0.0,0.0,0.0,0.0,0.0,0.0,0.0,0.0,0.0,0.0,0.0,0.0,0.0,0.0,0.0,0.0,0.0,0.0,0.0,0.0,0.0,0.0,0.0,0.0,0.0,0.0,0.0,0.0,0.0,0.0,0.0,0.0,0.0,0.0,0.0,0.0,0.0,0.0,0.0,-1.5677,-1.8088,-1.9896,-2.0341,-2.0311,-2.0214,-2.0117,-1.9601,-1.8861,-1.793,-1.6286,0.0,0.0,0.0,0.0,0.0,0.0,0.0,0.0,0.0,0.0,0.0,0.0,0.0,0.0,0.0,0.0,0.0,0.0,0.0,0.0,0.0,0.0,0.0,0.0,0.0,0.0,0.0,0.0,0.0,0.0,0.0,0.0,0.0,0.0,0.0,0.0,0.0,0.0,0.0,0.0,0.0,0.0,0.0,0.0,0.0,0.0,0.0,0.0,0.0,0.0,0.0,0.0,0.0,-2.1614,-2.1617,-2.1414,-2.1461,-2.1874,-2.248,-2.0989,-2.0886,-2.1627,-1.9416,0.0,0.0,0.0,0.0,0.0,0.0,0.0,0.0,0.0,0.0,0.0,0.0,0.0,0.0,0.0,0.0,0.0,0.0,0.0,0.0,0.0,0.0,0.0,0.0,-2.1485,-2.1058,0.0,0.0,0.0,0.0,0.0,0.0,0.0,0.0,0.0,0.0,0.0,0.0,-1.5754,-1.8474,-2.0399,-2.0399,-2.0379,-2.0277,-2.0107,-2.0079,-1.9665,-1.8786,-1.7967,-1.6586,0.0,0.0,0.0,0.0,0.0,0.0,0.0,0.0,0.0,0.0,0.0,0.0,0.0,0.0,0.0,0.0,0.0,0.0,0.0,0.0,0.0,0.0,0.0,0.0,0.0,0.0,0.0,0.0,0.0,0.0,0.0,0.0,-1.2781,-1.3643,0.0,0.0,0.0,0.0,0.0,0.0,0.0,0.0,0.0,0.0,0.0,0.0,0.0,-2.0887,-2.2738,-2.3503,-2.4269,-2.5015,-2.5799,-2.576,-2.5016,-2.5017,-2.5095,-2.5192,-2.4957,0.0,-2.1766,-2.1425,0.0,0.0,0.0,0.0,0.0,0.0,0.0,0.0,0.0,0.0,0.0,0.0,0.0,0.0,0.0,0.0,0.0,0.0,0.0,0.0,0.0,0.0,-2.3531,-2.2835,-2.2792,-2.2769,0.0,-1.9667,-1.7054,-1.5303,-1.4864,0.0,0.0,0.0,0.0,0.0,0.0,0.0,-1.8299,-1.9606,-2.0399,-2.0399,-2.0246,-2.0116,-2.0098,-1.9934,-1.9788,-1.9638,-1.8831,-1.8193,-1.7873,-1.5113,0.0,0.0,0.0,0.0,0.0,0.0,0.0,0.0,0.0,0.0,0.0,0.0,0.0,0.0,0.0,0.0,0.0,0.0,0.0,0.0,0.0,0.0,0.0,0.0,0.0,0.0,0.0,0.0,0.0,-1.1598,-1.2754,-1.4619,-1.4827,-1.5015,0.0,0.0,0.0,0.0,0.0,0.0,0.0,0.0,0.0,-2.1918,-2.2919,-2.4015,-2.5288,-2.6167,-2.6773,-2.7164,-2.7555,-2.7536,-2.7144,-2.6656,-2.6422,-2.6402,-2.5915,-2.5055,-2.3958,-2.346,-2.2505,-2.1269,0.0,0.0,0.0,0.0,-2.023,-2.0716,-2.171,-2.2041,0.0,-2.1033,0.0,0.0,0.0,0.0,0.0,0.0,0.0,0.0,0.0,0.0,0.0,-2.4425,-2.4475,-2.4365,-2.385,-2.2547,-2.0973,0.0,-1.8498,-1.7586,-1.5716,0.0,0.0,0.0,0.0,-1.8204,-1.8904,-2.0257,-2.1107,-2.1027,-2.0488,-2.0106,-1.9991,-1.9915,-1.9842,-1.9807,-1.945,-1.8812,-1.7873,-1.6876,-1.5478,0.0,0.0,0.0,0.0,0.0,0.0,0.0,0.0,0.0,0.0,0.0,0.0,0.0,0.0,0.0,0.0,0.0,0.0,0.0,0.0,0.0,0.0,0.0,0.0,0.0,0.0,0.0,0.0,-1.2746,-1.3962,-1.611,-1.6778,-1.7209,0.0,0.0,0.0,0.0,0.0,0.0,-2.0152,-2.1635,-2.2972,-2.4059,-2.5369,-2.6561,-2.7654,-2.8318,-2.8629,-2.8627,-2.8627,-2.8528,-2.8274,-2.763,-2.7336,-2.7298,-2.6654,-2.6245,-2.597,-2.5082,-2.4215,-2.3349,-2.263,-2.185,-2.1223,-2.2061,-2.2347,-2.256,-2.4101,-2.4598,-2.4466,-2.3869,0.0,-2.1789,-2.0487,0.0,0.0,0.0,0.0,-2.2481,-2.3403,-2.4105,-2.4724,-2.5406,-2.5576,-2.5396,-2.476,-2.4587,-2.4076,0.0,-2.1473,-2.0346,-1.8184,0.0,0.0,0.0,0.0,-1.98,-1.9973,-2.1165,-2.1977,-2.1868,-2.1227,-2.0679,-2.0304,-2.0229,-2.0073,-1.9826,-1.9807,-1.9232,-1.7994,-1.8095,-1.7138,-1.4897,0.0,0.0,0.0,0.0,0.0,0.0,0.0,0.0,0.0,0.0,0.0,0.0,0.0,0.0,0.0,0.0,0.0,0.0,0.0,0.0,0.0,0.0,0.0,0.0,0.0,0.0,0.0,0.0,0.0,-1.8896,-2.0471,0.0,0.0,0.0,0.0,-2.0306,-2.1108,-2.1973,-2.2862,-2.3761,-2.5051,-2.6753,-2.689,-2.775,-2.9449,-2.9507,-2.9525,-2.9521,-2.9521,-2.9109,-2.8303,-2.8244,-2.8225,-2.8225,-2.8186,-2.77,-2.6861,-2.5986,-2.508,-2.4225,-2.4183,-2.3591,-2.2881,-2.3839,-2.4122,-2.4216,-2.5195,-2.552,-2.552,-2.5481,-2.4321,-2.291,-2.2832,-2.2172,0.0,0.0,-2.3409,-2.4263,-2.5149,-2.5445,-2.5537,-2.5517,-2.5518,-2.5492,-2.5456,-2.5387,-2.4857,0.0,-2.281,-2.2474,-2.1506,0.0,-2.1306,-2.1229,-2.1364,-2.1758,-2.261,-2.2784,-2.2842,-2.2823,-2.2612,-2.2171,-2.1397,-2.1088,-2.0627,-1.9864,-1.9807,-1.977,-1.9695,-1.8181,-1.7637,-1.8245,-1.5197,0.0,0.0,0.0,0.0,0.0,0.0,0.0,0.0,0.0,0.0,0.0,0.0,0.0,0.0,0.0,0.0,0.0,0.0,0.0,0.0,0.0,0.0,0.0,0.0,0.0,0.0,0.0,0.0,-2.0638,-2.1418,0.0,-2.216,-2.2174,-2.2411,-2.2968,-2.3302,-2.4104,-2.5535,-2.5907,-2.6612,-2.7804,-2.8373,-2.8979,-2.9581,-3.0167,-3.0419,-3.0374,-3.0374,-3.0218,-2.9884,-2.9377,-2.9142,-2.9103,-2.8537,-2.8127,-2.7815,-2.7505,-2.6507,-2.5193,-2.5201,-2.5002,-2.4732,-2.5083,-2.5157,-2.5143,-2.542,-2.5549,-2.5531,-2.5531,-2.5124,-2.4619,-2.4619,-2.4377,-2.4181,-2.4508,-2.4825,-2.5115,-2.5413,-2.5511,-2.5538,-2.5507,-2.5495,-2.5503,-2.5499,-2.5484,-2.529,-2.4699,-2.4536,-2.4076,-2.2685,-2.2905,-2.2886,-2.1777,-2.2557,-2.3396,-2.3693,-2.3732,-2.3694,-2.3563,-2.2977,-2.2432,-2.2004,-2.1375,-2.0877,-2.0596,-2.0089,-1.9807,-1.9807,-1.9232,-1.8782,-1.85,-1.7356,-1.5564,0.0,0.0,0.0,0.0,0.0,0.0,0.0,0.0,0.0,0.0,0.0,0.0,0.0,0.0,0.0,0.0,0.0,0.0,0.0,0.0,0.0,0.0,0.0,0.0,0.0,0.0,-2.0346,-2.2035,-2.2764,-2.3335,-2.392,-2.4232,-2.4783,-2.5646,-2.5724,-2.6214,-2.7386,-2.7448,-2.7839,-2.8717,-2.9306,-2.9737,-3.0005,-3.0572,-3.0845,-3.0801,-3.0801,-3.0801,-3.0782,-3.0255,-3.0001,-2.9962,-2.9396,-2.8986,-2.8732,-2.8732,-2.7874,-2.6546,-2.6242,-2.5951,-2.5691,-2.5673,-2.5629,-2.5552,-2.5511,-2.5498,-2.5511,-2.5511,-2.5511,-2.5511,-2.5511,-2.5511,-2.5511,-2.5511,-2.5511,-2.5511,-2.5511,-2.5511,-2.5511,-2.5511,-2.5511,-2.5511,-2.5511,-2.5511,-2.5511,-2.5511,-2.5456,-2.5081,-2.3968,-2.4266,-2.4246,-2.3098,-2.3898,-2.4641,-2.4641,-2.4641,-2.4582,-2.4438,-2.3839,-2.329,-2.2874,-2.1977,-2.1309,-2.1009,-2.0239,-1.9807,-1.9807,-1.9513,-1.9213,-1.8913,-1.8362,-1.6779,-1.4111,0.0,0.0,0.0,0.0,0.0,0.0,0.0,0.0,0.0,0.0,0.0,0.0,0.0,0.0,0.0,0.0,0.0,0.0,0.0,0.0,0.0,0.0,0.0,-1.9316,-2.1523,-2.3142,-2.3179,-2.4666,-2.5707,-2.5746,-2.6507,-2.7366,-2.8225,-2.8303,-2.8303,-2.8342,-2.8342,-2.8732,-2.9611,-2.963,-3.0001,-3.0782,-3.0801,-3.0801,-3.0801,-3.0801,-3.0801,-3.0801,-3.0801,-3.0801,-3.0801,-3.0801,-3.0353,-2.963,-2.963,-2.9123,-2.8244,-2.7372,-2.6507,-2.5726,-2.5679,-2.5581,-2.5492,-2.5503,-2.5492,-2.5511,-2.5511,-2.5511,-2.5511,-2.5511,-2.5511,-2.5511,-2.5511,-2.5511,-2.5511,-2.5511,-2.5511,-2.5511,-2.5511,-2.5511,-2.5511,-2.5511,-2.5511,-2.5511,-2.5511,-2.5511,-2.5511,-2.5511,-2.5511,-2.5511,-2.5511,-2.5511,0.0,-2.5511,-2.5511,-2.5503,-2.5484,-2.5264,-2.479,-2.3995,-2.2931,-2.1948,-2.1084,-2.0258,-1.9807,-1.9845,-1.9044,-1.8938,-1.9732,-1.8215,-1.6687,-1.5216,0.0,0.0,0.0,0.0,0.0,0.0,0.0,0.0,0.0,0.0,0.0,0.0,0.0,0.0,0.0,0.0,0.0,0.0,0.0,0.0,0.0,-2.0279,-2.1958,-2.1965,-2.3161,-2.4277,-2.4918,-2.5419,-2.5941,-2.6585,-2.6861,-2.7366,-2.8225,-2.8303,-2.8576,-2.9201,-2.924,-2.9611,-3.0431,-3.047,-3.0587,-3.0801,-3.0801,-3.0801,-3.0801,-3.0801,-3.0801,-3.0801,-3.0801,-3.0801,-3.0801,-3.0801,-3.0665,-3.047,-3.047,-2.9982,-2.9162,-2.8286,-2.7407,-2.6624,-2.6565,-2.6091,-2.5498,-2.5499,-2.5498,-2.5511,-2.5511,-2.5511,-2.5511,-2.5511,-2.5511,-2.5511,-2.5511,-2.5511,-2.5511,-2.5511,-2.5511,-2.5511,-2.5511,-2.5511,-2.5511,-2.5511,-2.5511,-2.5511,-2.5511,-2.5511,-2.5511,-2.5511,-2.5511,-2.5511,-2.5511,-2.5511,0.0,-2.5511,-2.5511,-2.5423,-2.5224,-2.5149,-2.4936,-2.4516,-2.3136,-2.2192,-2.1966,-2.0596,-2.007,-2.0652,-2.0446,-2.0427,-2.0639,-2.0405,-1.9382,0.0,0.0,0.0,0.0,0.0,0.0,0.0,0.0,0.0,0.0,0.0,0.0,0.0,0.0,0.0,0.0,0.0,0.0,0.0,0.0,0.0,0.0,-2.2323,-2.3646,-2.404,-2.4553,-2.5095,-2.5641,-2.6025,-2.6585,-2.7464,-2.7876,-2.844,-2.9279,-2.9357,-2.9728,-3.0606,-3.0645,-3.086,-3.1328,-3.1699,-3.1719,-3.1348,-3.1719,-3.1895,-3.1895,-3.1895,-3.1699,-3.1348,-3.1348,-3.1153,0.0,-3.0801,-3.0801,-3.0801,-3.0801,-3.0528,0.0,0.0,0.0,0.0,0.0,-2.711,-2.6587,-2.6203,-2.6067,-2.597,-2.5621,-2.5495,-2.5511,-2.5511,-2.5511,-2.5511,-2.5511,-2.5511,-2.5511,-2.5511,-2.5511,-2.5511,-2.5511,-2.5511,-2.5511,-2.5511,-2.5511,-2.5511,-2.5511,-2.5511,0.0,-2.5511,-2.5511,-2.5511,-2.5511,-2.5511,-2.5511,-2.5511,-2.5511,-2.5432,-2.5284,-2.5233,-2.5126,-2.4968,-2.3674,0.0,0.0,0.0,-2.0883,-2.0996,-2.132,0.0,0.0,0.0,0.0,0.0,0.0,0.0,0.0,-1.8165,-1.8777,0.0,0.0,0.0,0.0,0.0,0.0,0.0,0.0,0.0,0.0,0.0,0.0,0.0,0.0,0.0,0.0,-2.3822,-2.4645,-2.5489,-2.56,-2.5619,-2.5697,-2.6474,-2.7331,-2.8227,-2.9086,-2.9964,-3.088,-3.0958,-3.1328,-3.2207,0.0,0.0,0.0,0.0,-3.3027,-3.2246,-3.3007,-3.3398,-3.3398,-3.3398,-3.2949,-3.209,-3.209,-3.1621,-3.0801,-3.0801,-3.0801,-3.0801,-3.0801,-3.0801,-3.0723,-2.9904,-2.9127,-2.8426,-2.8262,-2.8203,-2.8095,-2.7305,0.0,0.0,-2.5892,-2.5576,-2.5511,-2.5511,-2.5511,-2.5511,-2.5511,-2.5511,-2.5511,-2.5511,-2.5511,-2.5511,-2.5511,-2.5511,-2.5511,-2.5511,-2.5511,-2.5511,-2.5511,-2.5511,-2.5511,-2.5511,-2.5511,-2.5511,-2.5511,-2.5511,-2.5511,-2.5511,-2.5511,-2.5484,-2.5476,0.0,0.0,-2.5274,-2.4324,-2.3764,-2.3892,-2.3,-2.2098,-2.1306,-2.2084,-2.2171,-2.1424,-2.2267,-2.2764,-2.2796,-2.3503,-2.3493,-2.2787,-2.0344,-2.0279,0.0,0.0,0.0,0.0,0.0,0.0,0.0,0.0,0.0,0.0,0.0,0.0,0.0,0.0,0.0,-2.3766,-2.4684,-2.5331,-2.5576,-2.5605,-2.5612,-2.5691,-2.6465,-2.734,-2.8219,-2.9093,-3.022,-3.1738,-3.186,-3.2231,-3.3105,-3.3144,-3.3144,-3.3144,-3.3319,-3.3319,-3.3144,-3.3319,-3.3398,-3.3398,0.0,0.0,-3.209,-3.209,-3.1621,-3.0801,-3.0801,-3.0801,-3.0801,-3.0801,-3.0801,-3.0723,-2.9904,-2.9498,-2.9267,-2.8546,-2.8247,-2.8171,-2.8003,-2.7441,-2.6779,-2.6604,-2.6068,-2.5511,-2.5511,-2.5511,0.0,-2.5511,-2.5511,-2.5511,-2.5511,-2.5511,-2.5511,-2.5511,-2.5511,-2.5511,-2.5511,-2.5511,-2.5511,-2.5511,-2.5511,-2.5511,-2.5511,-2.5511,-2.5511,-2.5511,-2.5511,-2.5511,-2.5511,-2.5511,-2.5459,-2.5341,-2.5322,-2.5253,-2.5149,-2.4339,-2.3869,-2.3892,-2.36,-2.3313,-2.3018,-2.4005,-2.4119,-2.3202,-2.4216,-2.4334,-2.3517,-2.4283,-2.4525,-2.4275,-2.3746,-2.3371,0.0,0.0,0.0,0.0,0.0,0.0,0.0,0.0,0.0,0.0,0.0,-2.0834,-2.2066,0.0,-2.3872,-2.4709,-2.5247,-2.5556,-2.559,-2.56,-2.5616,-2.5697,-2.6854,-2.7812,-2.8255,-2.9447,-3.0735,-3.1995,-3.2096,-3.2663,-3.3983,-3.4047,-3.4049,-3.4047,-3.4476,-3.4498,-3.4051,-3.4474,-3.4705,-3.4691,-3.4705,-3.4237,-3.3398,-3.3398,-3.2929,-3.209,-3.1641,-3.1446,-3.1426,-3.0977,-3.0823,-3.0806,-3.0415,-3.022,-3.0142,-2.976,-2.9583,-2.9422,-2.8549,-2.7923,-2.7367,-2.6486,-2.588,-2.5511,-2.5511,-2.5511,-2.5511,-2.5511,-2.5511,-2.5511,-2.5511,-2.5511,-2.5511,-2.5511,-2.5511,-2.5511,-2.5511,-2.5511,-2.5511,-2.5511,-2.5511,-2.5511,-2.5511,-2.5511,-2.5511,-2.5511,-2.5511,-2.5511,-2.5511,-2.5511,-2.5476,-2.5406,-2.5406,-2.5369,-2.5322,-2.4937,-2.4639,-2.4514,-2.4445,-2.4372,-2.4289,-2.4674,-2.4712,-2.4314,-2.4893,-2.4893,-2.4295,-2.4772,-2.4942,-2.4808,-2.4719,-2.447,0.0,0.0,0.0,0.0,0.0,0.0,0.0,0.0,-1.9573,-2.2022,-2.2474,-2.2854,-2.4206,-2.4491,-2.4755,-2.5388,-2.568,-2.5816,-2.5822,-2.5826,-2.5851,-2.5935,-2.7321,-2.828,-2.8277,-2.9803,-3.1228,-3.2274,-3.2354,-3.3115,-3.4866,-3.4953,-3.4954,-3.4951,-3.5634,-3.5655,-3.4956,-3.565,-3.6001,-3.6005,-3.5999,-3.5547,-3.4708,-3.4708,-3.422,-3.3358,-3.248,-3.2092,-3.2036,-3.1177,-3.0847,-3.0909,-3.0909,-3.0868,-3.0825,-3.0873,-3.0895,-3.0699,-2.9276,-2.8637,-2.8201,-2.6782,-2.6184,-2.5956,-2.5782,-2.5724,-2.5704,-2.555,-2.5511,-2.5511,-2.5511,-2.5511,-2.5511,-2.5511,-2.5511,-2.5511,-2.5511,-2.5511,-2.5511,-2.5511,-2.5511,-2.5511,-2.5511,-2.5511,-2.5511,-2.5511,-2.5511,-2.5511,-2.5511,-2.5511,-2.5511,-2.5511,-2.5511,-2.5511,-2.5511,-2.5511,-2.5406,-2.516,-2.5138,-2.5138,-2.5096,-2.4915,-2.4865,-2.4942,-2.508,-2.5068,-2.4902,-2.5,-2.4987,-2.4861,-2.4749,-2.4695,-1.4579,-1.5415,-1.6445,-1.8005,-1.8567,-1.954,0.0,0.0,-2.2929,-2.471,-2.5072,-2.5136,-2.5333,-2.5364,-2.5403,-2.5499,-2.6118,-2.6599,-2.6655,-2.6662,-2.6695,-2.6766,-2.7627,-2.8203,-2.8205,-2.9781,-3.1484,-3.3125,-3.3241,-3.402,-3.5756,-3.5854,-3.5854,-3.5854,-3.5951,-3.5951,-3.5854,-3.5951,-3.601,-3.5991,-3.601,-3.5538,-3.4695,-3.4699,-3.4226,-3.3358,-3.2485,-3.21,-3.2046,-3.1226,-3.0894,-3.0894,-3.0894,-3.0894,-3.0894,-3.0896,-3.0897,-3.0857,-3.0614,-2.9965,-2.9221,-2.9038,-2.8403,-2.758,-2.6807,-2.6566,-2.6412,-2.5704,-2.5511,-2.5511,-2.5511,-2.5511,-2.5511,-2.5511,-2.5511,-2.5511,-2.5511,-2.5511,-2.5511,-2.5511,-2.5511,-2.5511,-2.5511,-2.5511,-2.5511,-2.5511,-2.5511,-2.5511,-2.5511,-2.5511,-2.5511,-2.5511,-2.5511,-2.5511,-2.5511,-2.5511,-2.5451,-2.5293,-2.5274,-2.5214,-2.5096,-2.5201,-2.5171,-2.5072,-2.5222,-2.5149,-2.4902,-2.4915,-2.4847,-2.4704,-2.4707,-2.4695,-1.6105,-1.72,-1.8234,-1.9859,-2.1053,-2.2239,-2.3762,-2.3856,-2.3992,-2.524,-2.5498,-2.5495,-2.5492,-2.5495,-2.5657,0.0,-2.6509,-2.6939,-2.7439,-2.7101,-2.6812,-2.6843,-2.7609,-2.8166,-2.8255,-2.9799,-3.1521,-3.326,-3.3397,-3.4158,-3.5912,-3.5994,-3.5995,-3.5994,-3.5994,-3.5994,-3.5995,-3.5993,-3.5992,-3.5994,-3.5992,-3.5815,-3.5462,-3.5463,-3.4974,-3.4111,-3.3233,-3.2572,-3.2047,-3.1227,-3.0895,-3.0896,-3.0896,-3.0897,-3.0898,-3.0897,-3.0897,-3.0818,-3.029,-2.9812,-2.9377,-2.8861,-2.8417,-2.7884,-2.697,-2.6702,-2.6528,-2.5724,-2.5511,-2.5511,-2.5511,-2.5511,-2.5511,-2.5511,-2.5511,-2.5511,-2.5511,-2.5511,-2.5511,-2.5511,-2.5511,-2.5511,-2.5511,-2.5511,-2.5511,-2.5511,-2.5511,-2.5511,-2.5511,-2.5511,-2.5511,-2.5511,-2.5511,-2.5511,-2.5511,-2.5511,-2.5476,-2.5415,-2.5341,-2.5313,-2.5341,-2.5243,-2.5192,-2.5222,-2.5264,-2.516,-2.4902,-2.5056,-2.4981,-2.4707,-2.4779,-2.4764,-1.6819,-1.8179,-1.9554,-2.1225,-2.2764,-2.3971,-2.4313,-2.4416,-2.4621,-2.5348,-2.5495,-2.5511,-2.5511,-2.5495,-2.5684,-2.6265,-2.6796,-2.7334,-2.7918,-2.7493,-2.7212,-2.7469,-2.784,-2.8232,-2.8561,-2.9947,-3.1516,-3.3261,-3.3398,-3.4159,-3.5916,-3.5996,-3.5996,-3.5995,-3.5995,-3.5996,-3.5996,-3.5995,-3.5994,-3.5995,-3.5994,-3.5993,-3.5992,-3.5992,-3.566,-3.5016,-3.4137,-3.3259,-3.24,-3.16,-3.1112,-3.0898,-3.0898,-3.0898,-3.0898,-3.0898,-3.0898,-3.082,-3.0155,-2.9894,-2.9715,-2.9065,-2.8831,-2.8609,-2.7694,-2.7426,-2.7213,-2.613,-2.584,-2.5782,-2.5569,-2.5511,-2.5511,-2.5511,-2.5511,-2.5511,-2.5511,-2.5511,-2.5511,-2.5511,-2.5511,-2.5511,-2.5511,-2.5511,-2.5511,-2.5511,-2.5511,-2.5511,-2.5511,-2.5511,-2.5511,-2.5511,-2.5511,-2.5511,-2.5511,-2.5511,-2.5511,-2.5511,-2.5406,-2.5397,-2.5503,-2.5303,-2.5243,-2.5303,-2.5332,-2.5233,-2.4968,-2.5201,-2.5103,-2.4749,-2.4847,-2.4818,-1.6543,-1.8151,-2.0442,-2.2061,-2.313,-2.403,-2.496,-2.5226,-2.532,-2.5476,-2.5492,-2.5511,-2.5511,-2.5492,-2.5511,-2.553,-2.6904,-2.7976,-2.7995,-2.7976,-2.8274,-2.9121,-2.8555,-2.8436,-2.9283,-3.0232,-3.1519,-3.3277,-3.3398,-3.416,-3.5918,-3.5996,-3.5996,-3.5996,-3.5996,-3.5996,-3.5996,-3.5996,-3.5996,-3.5996,-3.5996,-3.5996,-3.5995,-3.5992,-3.5994,-3.5918,-3.5038,-3.4179,-3.3301,-3.248,-3.166,-3.0898,-3.0898,-3.0898,-3.0898,-3.0898,-3.0898,-3.0898,-3.081,-3.0726,-3.0643,-3.0562,-3.0521,-3.0346,-2.9495,-2.9224,-2.8857,-2.7147,-2.6663,-2.647,-2.5704,-2.5511,-2.5511,-2.5511,-2.5511,-2.5511,-2.5511,-2.5511,-2.5511,-2.5511,-2.5511,-2.5511,-2.5511,-2.5511,-2.5511,-2.5511,-2.5511,-2.5511,-2.5511,-2.5511,-2.5511,-2.5511,-2.5511,-2.5511,-2.5511,-2.5511,-2.5511,-2.5511,-2.5503,-2.5503,-2.5511,-2.5484,-2.5423,-2.5313,-2.5423,-2.536,-2.5084,-2.5233,-2.5149,-2.4902,-2.4902,-2.4818,-1.9286,-2.067,-2.1939,-2.3031,-2.3955,-2.4696,-2.5061,-2.519,-2.5264,-2.5359,-2.544,-2.5511,-2.5511,-2.5511,-2.5666,-2.6199,-2.7252,-2.8208,-2.878,-2.8857,-2.8962,-2.9261,-2.9057,-2.9245,-3.0121,-3.0514,0.0,-3.3197,-3.3361,-3.4132,-3.5849,-3.5975,-3.5996,-3.5996,-3.5996,-3.5996,-3.5996,-3.5996,-3.5996,-3.5996,-3.5996,-3.5996,-3.5996,-3.5996,-3.5996,-3.5918,-3.4472,-3.3672,-3.3281,-3.1914,-3.1152,-3.0898,-3.0898,-3.0898,-3.0898,-3.0898,-3.0898,-3.0898,-3.0827,-3.0794,-3.0758,-3.0633,-3.0598,-3.0451,-2.9552,-2.9302,-2.8934,-2.7185,-2.6702,-2.6508,-2.5704,-2.5511,-2.5511,-2.5511,-2.5511,-2.5511,-2.5511,-2.5511,-2.5511,-2.5511,-2.5511,-2.5511,-2.5511,-2.5511,-2.5511,-2.5511,-2.5511,-2.5511,-2.5511,-2.5511,-2.5511,-2.5511,-2.5511,-2.5511,-2.5511,-2.5511,-2.5511,-2.5511,-2.5511,-2.5511,-2.5511,-2.5511,-2.5476,-2.5423,-2.5476,-2.5415,-2.5233,-2.5379,-2.5284,-2.5024,-2.5126,-2.5043,-2.1175,-2.214,-2.2773,-2.3891,-2.458,-2.5004,-2.5088,-2.5141,-2.5124,-2.4908,-2.4943,-2.5015,-2.502,-2.5047,-2.5318,-2.6141,-2.7232,-2.8208,-2.876,-2.9089,-2.9515,-3.0114,-2.994,-3.0219,-3.1374,-3.1523,0.0,-3.3643,-3.3774,-3.4394,-3.5798,-3.5925,-3.5954,-3.5954,-3.5996,-3.5996,-3.5996,-3.5996,-3.5996,-3.5996,-3.5996,-3.5996,-3.5996,-3.5996,-3.5996,-3.5918,-3.4492,-3.3691,-3.3281,-3.1934,-3.1172,-3.0898,-3.0898,-3.0898,-3.0898,-3.0898,-3.0898,-3.0898,-3.0827,-3.0774,-3.0755,-3.0633,-3.0598,-3.0502,-2.9919,-2.9766,-2.9399,-2.7658,-2.7155,-2.6904,-2.5801,-2.5511,-2.5511,-2.5511,-2.5511,-2.5511,-2.5511,-2.5511,-2.5511,-2.5511,-2.5511,-2.5511,-2.5511,-2.5511,-2.5511,-2.5511,-2.5511,-2.5511,-2.5511,-2.5511,-2.5511,-2.5511,-2.5511,-2.5511,-2.5511,-2.5511,-2.5511,-2.5511,-2.5511,-2.5511,-2.5511,-2.5511,-2.5511,-2.5511,-2.5511,-2.5459,-2.536,-2.5459,-2.5397,-2.5171,-2.5253,-2.5171,-2.2116,-2.259,-2.3007,-2.4598,-2.501,-2.5023,-2.5076,-2.5101,-2.4901,-2.4217,-2.4081,-2.4107,-2.4123,-2.4176,-2.4467,-2.5298,-2.6884,-2.8014,-2.8073,-2.8838,-3.0037,0.0,0.0,0.0,0.0,0.0,0.0,-3.458,0.0,-3.4884,-3.5747,-3.5853,-3.5893,-3.5893,-3.5953,-3.5996,-3.5996,-3.5996,-3.5996,-3.5996,-3.5996,-3.5996,-3.5996,-3.5996,-3.5996,-3.5957,-3.5039,-3.416,-3.332,-3.248,-3.1641,-3.0898,-3.0898,-3.0898,-3.0898,-3.0898,-3.0898,-3.0898,-3.0827,-3.0762,-3.0682,-3.0614,-3.0599,-3.0607,-3.0598,-3.0598,-3.023,-2.8489,-2.7995,-2.7608,-2.5936,-2.5492,-2.5492,-2.5492,-2.5492,-2.5492,-2.5492,-2.5492,-2.5492,-2.5492,-2.5492,-2.5492,-2.5511,-2.5511,-2.5511,-2.5511,-2.5511,-2.5511,-2.5511,-2.5511,-2.5511,-2.5511,-2.5511,-2.5511,-2.5511,-2.5511,-2.5511,-2.5511,-2.5511,-2.5511,-2.5511,-2.5511,-2.5511,-2.5511,-2.5511,-2.5511,-2.5511,-2.5511,-2.5423,-2.5313,-2.5313,-2.5243,-2.312,-2.3859,-2.4479,-2.4896,-2.501,-2.4991,-2.5018,-2.5051,-2.4877,-2.4064,-2.3995,-2.3906,-2.3276,-2.3721,-2.4273,-2.4505,-2.6478,0.0,-2.8876,-3.023,0.0,-3.2638,0.0,-3.2899,-3.3963,-3.406,0.0,0.0,-3.4839,-3.4858,-3.5675,-3.578,-3.5831,-3.5831,-3.5845,-3.5864,-3.5925,-3.5975,-3.5996,-3.5996,-3.5996,-3.5996,-3.5996,-3.5996,-3.5996,-3.5918,-3.4394,-3.3613,-3.3281,-3.1836,-3.1094,-3.0898,-3.0898,-3.0898,-3.0898,-3.0898,-3.0898,-3.0898,-3.0827,-3.0796,-3.0755,-3.0649,-3.061,-3.0595,-3.0597,-3.0598,-3.023,-2.8489,-2.8004,-2.7605,-2.5933,-2.5503,-2.5498,-2.5498,-2.5498,-2.5498,-2.5498,-2.5498,-2.5498,-2.5498,-2.5503,-2.5507,-2.5492,-2.5511,-2.5511,-2.5511,-2.5511,-2.5511,-2.5511,-2.5511,-2.5511,-2.5511,-2.5511,-2.5511,-2.5511,-2.5511,-2.5511,-2.5511,-2.5511,-2.5511,-2.5511,-2.5511,-2.5511,-2.5511,-2.5511,-2.5511,-2.5511,-2.5511,-2.5476,-2.5459,-2.5459,-2.5388,-2.403,-2.4617,-2.501,-2.501,-2.501,-2.4915,-2.4523,-2.4461,-2.4055,-2.249,-2.2566,-2.2553,-2.1344,-2.2497,-2.3635,0.0,0.0,0.0,-2.9186,-3.0733,-3.228,0.0,-3.3673,0.0,-3.4891,-3.4969,-3.5162,0.0,-3.5282,-3.5214,-3.5679,-3.5745,-3.5768,-3.5768,-3.5774,-3.5836,-3.5893,-3.5948,-3.5974,-3.5996,-3.5996,-3.5996,-3.5996,-3.5996,-3.5996,-3.5898,0.0,-3.3398,-3.3262,-3.1582,-3.0898,-3.0898,-3.0898,-3.0898,-3.0898,-3.0898,-3.0898,-3.0898,-3.0811,-3.0811,-3.0829,-3.0684,-3.0632,-3.0639,-3.0632,-3.0626,-3.0324,-2.8997,-2.8621,-2.8229,-2.6498,-2.6067,-2.5977,-2.5589,-2.5499,-2.5499,-2.5499,-2.5499,-2.5499,-2.5499,-2.5505,-2.549,-2.5503,-2.5503,-2.5495,-2.5499,-2.5499,-2.5499,-2.5492,-2.5511,-2.5511,-2.5511,-2.5511,-2.5511,-2.5511,-2.5511,-2.5511,-2.5511,-2.5511,-2.5511,-2.5511,-2.5511,-2.5511,-2.5511,-2.5511,-2.5511,-2.5511,-2.5511,-2.5511,-2.5511,-2.5511,-2.5459,-2.4774,-2.4964,-2.495,-2.495,-2.495,-2.4742,-2.3884,-2.36,-2.2867,-2.0563,-2.0613,-2.0647,-1.923,-2.0952,-2.2629,-2.2861,0.0,-2.8045,-2.9147,-3.0733,-3.2454,-3.4195,-3.4505,-3.4872,-3.5626,-3.5704,-3.5704,-3.5704,-3.5704,-3.5704,-3.5704,-3.5698,-3.5696,-3.5696,-3.5762,-3.5827,-3.5887,-3.5893,-3.5927,-3.5996,-3.5996,-3.5996,-3.5996,-3.5996,-3.5996,-3.5898,-3.416,0.0,-3.3262,-3.1582,-3.0898,-3.0898,-3.0898,-3.0898,-3.0898,-3.0898,-3.0898,-3.0898,-3.0836,-3.0859,-3.0879,-3.0742,-3.0711,-3.0714,-3.0696,-3.067,-3.0443,-2.9633,-2.9415,-2.9019,-2.7272,-2.6806,-2.6592,-2.5725,-2.5511,-2.5511,-2.5511,-2.5511,-2.5505,-2.5512,-2.5512,-2.5512,-2.5499,-2.5499,-2.5511,-2.5503,-2.5503,-2.5495,-2.5499,-2.5492,-2.5511,-2.5511,-2.5511,-2.5511,-2.5511,-2.5511,-2.5511,-2.5511,-2.5511,-2.5511,-2.5511,-2.5492,-2.5492,-2.5492,-2.5499,-2.5499,-2.5492,-2.5499,-2.5499,-2.5492,-2.5499,-2.5499,-2.4804,-2.4798,-2.4753,-2.4753,-2.4753,-2.4561,-2.3803,-2.3048,0.0,-2.0364,-1.965,-1.9249,-1.8966,-1.9978,-2.1295,-2.2668,-2.4602,-2.6729,-2.8973,-3.0733,-3.2454,0.0,-3.5027,-3.553,-3.5684,-3.5704,0.0,0.0,0.0,-3.5704,-3.5704,-3.5706,-3.5697,-3.5697,-3.5715,-3.5762,-3.5827,-3.5861,-3.5927,-3.5996,-3.5996,-3.5996,-3.5996,-3.5996,-3.5996,-3.5898,-3.416,0.0,-3.3262,-3.1582,-3.0898,-3.0897,-3.0897,-3.0897,-3.0896,-3.0896,-3.0896,-3.0896,-3.0897,-3.0897,-3.0878,-3.0738,-3.0732,-3.0765,-3.0726,-3.0689,-3.0505,-2.964,-2.9448,-2.9078,-2.7342,-2.6877,-2.6666,-2.5788,-2.5573,-2.5573,-2.5573,-2.5573,-2.5584,-2.558,-2.5571,-2.5571,-2.5506,-2.5499,-2.5492,-2.5511,-2.5511,-2.5498,-2.5495,-2.5499,-2.5511,-2.5511,-2.5511,-2.5511,-2.5511,-2.5511,-2.5511,-2.5511,-2.5511,-2.5511,-2.5511,-2.5507,-2.5495,-2.5495,-2.5498,-2.5498,-2.5495,-2.5498,-2.5498,-2.5495,-2.5498,-2.549,-2.4768,-2.4704,-2.4707,-2.4707,-2.4707,-2.4385,-2.321,0.0,0.0,-1.9101,-1.8459,-1.7952,-1.709,-1.8801,-2.043,-2.0676,-2.2964,-2.5484,-2.7691,-2.9701,-3.1749,-3.3891,-3.4937,-3.5457,-3.5378,-3.5477,-3.554,-3.5502,0.0,-3.5651,-3.5704,-3.5704,-3.5704,-3.5704,-3.5698,-3.5726,-3.5741,-3.5788,-3.5831,-3.5907,-3.5893,-3.5893,-3.5907,-3.5907,-3.5916,-3.5845,-3.4107,0.0,-3.326,-3.1581,-3.0897,-3.0896,-3.0896,-3.0895,-3.0895,-3.0895,-3.0895,-3.0894,-3.0892,-3.0891,-3.0874,-3.0781,-3.076,-3.0798,-3.0799,-3.0771,-3.0657,-3.0243,-3.0142,-2.9882,-2.8596,-2.7913,-2.7366,-2.6488,-2.5922,-2.5609,-2.5609,-2.5609,-2.5605,-2.5609,-2.5603,-2.5597,-2.5554,-2.555,-2.5561,-2.5546,-2.556,-2.5543,-2.5505,-2.549,-2.5495,-2.5492,-2.5511,-2.5492,-2.5499,-2.5507,-2.5507,-2.5503,-2.5503,-2.5503,-2.5503,-2.549,-2.5498,-2.5498,-2.5511,-2.5511,-2.5498,-2.5511,-2.5511,-2.5498,-2.5492,-2.5511,-2.4654,-2.466,-2.466,-2.466,-2.466,-2.4245,-2.2628,-2.1493,-2.015,-1.7924,-1.7253,-1.6758,-1.5783,-1.7881,-1.9689,0.0,-2.1853,-2.438,-2.6129,-2.8587,-3.1044,-3.3337,-3.4572,0.0,-3.5081,-3.5228,0.0,-3.5296,0.0,0.0,-3.5681,-3.5693,-3.5693,-3.5693,-3.5693,-3.5667,-3.5678,-3.5676,-3.5698,-3.5781,-3.5774,-3.5774,-3.5781,-3.5781,-3.5805,-3.5778,-3.4242,0.0,0.0,-3.1771,-3.1069,-3.0894,-3.0894,-3.0892,-3.0873,-3.0873,-3.0873,-3.0871,-3.0888,-3.0886,-3.0866,-3.0821,-3.0795,-3.08,-3.0852,-3.0839,-3.0796,-3.0801,-3.08,-3.0599,-2.9741,-2.8863,-2.7944,-2.6889,-2.6128,-2.5679,-2.5854,-2.5893,-2.5892,-2.5909,-2.5907,-2.5849,-2.5629,-2.5609,-2.5601,-2.5609,-2.5601,-2.5589,-2.5535,-2.5511,-2.5512,-2.5517,-2.5515,-2.5488,-2.5503,-2.5503,-2.5498,-2.5492,-2.5499,-2.5499,-2.5499,-2.5518,-2.5518,-2.5518,-2.5525,-2.5525,-2.5518,-2.5525,-2.5525,-2.5518,-2.5525,-2.5525,-2.4409,-2.4566,-2.4517,-2.4517,-2.4517,-2.4087,-2.2488,-2.0882,-1.9288,-1.7656,-1.6215,-1.5665,-1.7032,-1.7684,-1.8815,-2.1224,0.0,-2.3477,-2.4807,-2.7999,-3.0795,-3.2441,0.0,0.0,-3.5015,-3.5015,-3.5119,-3.53,0.0,0.0,-3.5604,-3.5604,-3.5604,-3.5604,-3.5604,-3.5604,-3.5611,-3.5611,-3.5646,-3.571,-3.571,-3.571,-3.571,-3.571,-3.571,-3.5678,-3.4832,0.0,0.0,-3.235,-3.1555,-3.0909,-3.0909,-3.0866,-3.0801,-3.0801,-3.0801,-3.0801,-3.0801,-3.0801,-3.0801,-3.0801,-3.0801,-3.0804,-3.0801,-3.0804,-3.0806,-3.0804,-3.0806,-3.0613,-2.9793,-2.8934,-2.7879,-2.62,-2.5751,-2.5907,-2.6708,-2.6864,-2.6869,-2.6875,-2.6875,-2.66,-2.575,-2.5609,-2.5607,-2.5605,-2.5605,-2.5603,-2.5593,-2.5582,-2.5591,-2.56,-2.555,-2.5492,-2.5492,-2.5492,-2.5492,-2.5499,-2.5499,-2.5499,-2.5499,-2.557,-2.5596,-2.5596,-2.5589,-2.5589,-2.5596,-2.5589,-2.5589,-2.5596,-2.5589,-2.5589,-2.371,-2.4126,-2.4482,-2.4339,-2.4411,-2.4072,-2.2365,-2.0755,-1.9151,-1.7626,-1.6044,-1.5168,-1.5856,-1.688,-1.768,-1.7886,-1.981,-2.179,-2.3313,-2.5468,-2.7839,-3.0447,-3.2222,0.0,0.0,0.0,-3.4889,0.0,0.0,0.0,-3.5364,-3.5509,-3.5591,-3.5591,-3.5591,-3.5577,-3.5543,-3.5585,-3.5588,-3.5581,-3.5611,-3.5611,-3.5581,-3.5581,-3.5601,-3.5591,-3.4764,0.0,0.0,-3.2381,-3.1539,-3.0781,-3.0819,-3.0823,-3.0801,-3.0801,-3.0801,-3.0801,-3.0801,-3.0801,-3.0801,-3.0801,-3.0801,-3.0801,-3.0801,-3.0801,-3.0801,-3.0801,-3.0801,-3.0723,-3.0411,-2.9708,-2.8635,-2.6898,-2.6488,-2.6429,-2.6253,-2.6214,-2.6218,-2.6224,-2.6225,-2.6109,-2.5722,-2.5663,-2.5664,-2.5662,-2.5662,-2.5659,-2.5607,-2.5598,-2.5609,-2.5606,-2.5551,-2.5518,-2.557,-2.557,-2.5551,-2.5564,-2.5564,-2.5564,-2.5564,-2.5589,-2.5589,-2.5589,-2.5595,-2.5595,-2.5589,-2.5595,-2.5595,-2.5589,-2.5595,-2.5595,-2.3056,-2.3764,-2.4375,-2.4191,-2.41,-2.3671,-2.2196,-2.0496,-1.8882,-1.7723,-1.6095,-1.4887,-1.4905,-1.6309,-1.7274,0.0,-1.8657,-2.0774,-2.2407,-2.3587,-2.5597,-2.9139,0.0,-3.2283,0.0,-3.4414,-3.4711,0.0,0.0,0.0,-3.5209,-3.5379,-3.5509,-3.5566,-3.5566,-3.5554,-3.5509,-3.5554,-3.5554,-3.5509,-3.5554,-3.5554,-3.5509,-3.5509,-3.5528,-3.5512,-3.4665,0.0,0.0,-3.2286,-3.147,-3.0691,-3.0739,-3.0774,-3.0801,-3.0801,-3.0801,-3.0801,-3.0801,-3.0801,-3.0801,-3.0801,-3.0801,-3.0801,-3.0801,-3.0801,-3.0801,-3.0801,-3.0801,-3.0743,-3.0509,-2.9826,-2.883,-2.7349,-2.6802,-2.6527,-2.6156,-2.6078,-2.6078,-2.6078,-2.6078,-2.6,-2.5746,-2.5707,-2.5693,-2.5701,-2.5702,-2.5683,-2.5642,-2.564,-2.5637,-2.5637,-2.5566,-2.5551,-2.56,-2.56,-2.56,-2.5591,-2.5595,-2.5595,-2.5591,-2.5599,-2.5607,-2.5604,-2.5607,-2.5601,-2.5601,-2.5601,-2.5601,-2.5601,-2.5601,-2.5601,-2.2625,-2.3585,-2.4173,-2.4036,-2.351,-2.2793,-2.2002,-1.9981,-1.8222,-1.7938,-1.6228,-1.478,-1.4733,-1.6127,-1.7882,-1.9658,-2.0091,-2.0744,-2.2273,-2.2978,-2.4864,0.0,0.0,-3.1247,-3.286,-3.3982,0.0,0.0,0.0,0.0,-3.5193,-3.5209,-3.5308,-3.5493,-3.5507,-3.5507,-3.5507,-3.5507,-3.5507,-3.5507,-3.5507,-3.5507,-3.5507,-3.5507,-3.5507,0.0,0.0,0.0,0.0,-3.2213,-3.1436,-3.0711,-3.0691,-3.0735,-3.0801,-3.0801,-3.0801,-3.0801,-3.0801,-3.0801,-3.0801,-3.0801,-3.0801,-3.0801,-3.0801,-3.0801,-3.0801,-3.0801,-3.0801,-3.0626,-2.9826,-2.8967,-2.8088,-2.7212,-2.6332,-2.5941,-2.6802,-2.6997,-2.6997,-2.6997,-2.6997,-2.6704,-2.5844,-2.5707,-2.5707,-2.5707,-2.5707,-2.5707,-2.5707,-2.5701,-2.5703,-2.5703,-2.5638,-2.5607,-2.5609,-2.5609,-2.5609,-2.5609,-2.5603,-2.5597,-2.5607,-2.56,-2.5609,-2.5598,-2.559,-2.5601,-2.5601,-2.5601,-2.5601,-2.5601,-2.5601,-2.5601,-2.0625,-2.1294,-2.1697,-2.0978,-2.1136,-2.1105,-1.9596,-1.8781,-1.8018,-1.7014,-1.5699,-1.4722,-1.4696,-1.6995,-1.9781,-2.2621,-2.2155,0.0,-2.2703,0.0,0.0,-2.8315,-3.1232,-3.325,0.0,0.0,0.0,0.0,0.0,0.0,-3.4791,-3.4927,-3.5141,-3.5493,-3.5493,-3.5493,-3.5493,-3.5493,-3.5493,-3.5493,-3.5493,-3.5493,-3.5493,-3.5493,-3.518,0.0,0.0,0.0,0.0,-3.1913,-3.1338,-3.0576,-3.0607,-3.0639,-3.0656,-3.0656,-3.0682,-3.0728,-3.0728,-3.0765,-3.0801,-3.0801,-3.0801,-3.0801,-3.0801,-3.0801,-3.0801,-3.0801,-3.0801,-3.0743,-3.0489,-3.0216,-2.965,-2.8225,-2.7678,-2.7229,-2.6312,-2.6117,-2.6117,-2.6117,-2.6117,-2.6019,-2.5746,-2.5707,-2.5707,-2.5707,-2.5707,-2.5707,-2.5707,-2.5693,-2.5696,-2.5696,-2.568,-2.5644,-2.5592,-2.5609,-2.5609,-2.5609,-2.5603,-2.5601,-2.5609,-2.5593,-2.5606,-2.5598,-2.5606,-2.5603,-2.5603,-2.5603,-2.5603,-2.5603,-2.5603,-2.5915,-1.8981,-1.9662,-2.0074,-1.9387,-1.9519,-1.9483,-1.8349,-1.7807,-1.7362,-1.673,-1.5579,-1.5085,-1.6313,-1.8217,-2.027,-2.2318,-2.2816,0.0,0.0,0.0,0.0,-2.8909,0.0,0.0,0.0,0.0,0.0,0.0,0.0,0.0,-3.4583,-3.441,-3.4489,-3.487,-3.523,-3.5417,-3.5493,-3.5493,-3.5493,-3.5493,-3.5493,-3.5334,-3.5007,-3.5007,-3.4526,0.0,0.0,0.0,0.0,-3.1394,-3.0965,-3.0501,-3.0543,-3.0591,-3.0593,-3.0593,-3.0626,-3.0656,-3.0656,-3.0701,-3.0724,-3.0724,-3.0735,-3.0768,-3.0796,-3.0801,-3.0801,-3.0801,-3.0801,-3.0801,-3.0801,-3.0567,-3.0001,-2.8635,-2.8049,-2.7425,-2.6019,-2.5707,-2.5707,-2.5707,-2.5707,-2.5707,-2.5707,-2.5707,-2.5707,-2.5707,-2.5707,-2.5707,-2.5707,-2.5707,-2.5707,-2.5707,-2.5707,-2.5676,-2.5644,-2.5643,-2.5643,-2.5643,-2.5641,-2.5641,-2.5643,-2.5616,-2.5613,-2.5638,-2.5613,-2.5609,-2.5609,-2.5609,-2.5609,-2.5609,-2.5609,-2.5883,0.0,-1.8499,-1.9017,-1.8822,-1.8356,-1.7913,-1.7872,-1.7025,0.0,-1.6811,-1.5729,-1.5625,-1.8683,-1.9431,-1.9628,-1.9764,-2.2364,0.0,0.0,-2.6461,0.0,0.0,-3.2172,0.0,-3.3083,0.0,0.0,0.0,0.0,0.0,-3.4486,-3.3717,-3.3431,-3.3748,-3.4566,-3.512,-3.5397,-3.5411,-3.5449,-3.5493,-3.5493,-3.5045,-3.4199,-3.4199,-3.368,0.0,0.0,0.0,0.0,-3.0737,-3.0428,-3.0492,-3.0492,-3.0527,-3.0598,-3.0598,-3.0579,-3.0586,-3.0586,-3.0593,-3.0593,-3.0593,-3.0639,-3.0691,-3.0768,-3.0796,-3.0799,-3.0799,-3.0799,-3.0799,-3.0799,-3.0196,-2.9377,-2.8518,-2.762,-2.6763,-2.5883,-2.5707,-2.5707,-2.5707,-2.5707,-2.5707,-2.5707,-2.5707,-2.5707,-2.5707,-2.5707,-2.5707,-2.5707,-2.5707,-2.5707,-2.5707,-2.5707,-2.5707,-2.5707,-2.5707,-2.5707,-2.5707,-2.57,-2.5701,-2.5707,-2.5644,-2.564,-2.5703,-2.564,-2.5613,-2.5613,-2.5613,-2.5613,-2.5613,-2.5613,-2.5672,-1.5492,0.0,-1.6459,-1.576,-1.5956,-1.619,0.0,-1.5631,-1.5619,-1.5083,-1.4697,-1.4748,-1.5664,-1.7918,-2.0001,-2.1232,0.0,-2.3518,-2.44,0.0,0.0,-3.3008,-3.3677,-3.3918,-3.3918,0.0,0.0,0.0,0.0,-3.3961,-3.3417,-3.3175,-3.2898,-3.2524,-3.288,-3.3519,-3.4507,-3.4507,-3.4834,-3.5493,-3.5493,-3.5045,-3.4199,-3.4199,-3.3391,0.0,0.0,0.0,-3.0698,-3.0475,-3.0402,-3.0425,-3.0425,-3.0428,-3.0449,-3.0449,-3.0482,-3.0518,-3.0518,-3.056,-3.0593,-3.0593,-3.0607,-3.0626,-3.0639,-3.0677,-3.0732,-3.0794,-3.0765,-3.0732,-3.0796,-3.0196,-2.9377,-2.8518,-2.762,-2.6763,-2.5883,-2.5707,-2.5707,-2.5707,-2.5707,-2.5707,-2.5707,-2.5707,-2.5707,-2.5707,-2.5707,-2.5707,-2.5707,-2.5707,-2.5707,-2.5707,-2.5707,-2.5707,-2.5707,-2.5707,-2.5707,-2.5707,-2.5691,-2.5693,-2.5707,-2.5676,-2.5677,-2.5694,-2.5677,-2.5679,-2.5679,-2.5679,-2.5679,-2.5679,-2.5679,-2.6382,-1.4606,-1.548,-1.6226,-1.5729,-1.5981,-1.6226,-1.5717,-1.5355,-1.4945,-1.4405,-1.4841,-1.5356,-1.5454,-1.8838,-2.16,-2.1514,-2.2493,0.0,0.0,0.0,-3.1005,-3.3855,-3.3868,-3.3788,0.0,0.0,0.0,0.0,0.0,-3.3287,-3.2488,-3.2098,-3.1781,-3.1504,-3.1261,-3.1836,-3.3364,-3.3461,-3.3691,-3.4091,-3.417,-3.3758,-3.2927,-3.3,-3.2333,0.0,0.0,0.0,-3.0398,-3.0398,-3.0398,-3.0398,-3.0398,-3.0398,-3.0398,-3.0398,-3.0425,-3.0441,-3.0441,-3.0482,-3.0519,-3.0527,-3.0552,-3.056,-3.0591,-3.0605,-3.0626,-3.0697,-3.0672,-3.0656,-3.0706,-3.0111,-2.9297,-2.8454,-2.7582,-2.6724,-2.5846,-2.5679,-2.5683,-2.5654,-2.5681,-2.5707,-2.5707,-2.5707,-2.5707,-2.5707,-2.5707,-2.5707,-2.5707,-2.5707,-2.5707,-2.5707,-2.5707,-2.5707,-2.5707,-2.5707,-2.5707,-2.5707,-2.5707,-2.5707,-2.5707,-2.5707,-2.5707,-2.5707,-2.5707,-2.5707,-2.5707,-2.5707,-2.5707,-2.5707,-2.5707,-2.6429,-1.4581,-1.5918,-1.7206,-1.6771,-1.689,-1.705,-1.6765,0.0,-1.476,-1.467,-1.5524,-1.6374,-1.6664,-2.0423,0.0,0.0,0.0,0.0,-2.701,-2.9042,-3.1084,-3.3217,-3.3287,0.0,0.0,0.0,0.0,0.0,0.0,-3.247,-3.1652,-3.0987,-3.0586,-3.0562,-2.9926,-3.0339,-3.19,-3.2257,-3.2441,-3.2384,-3.2572,-3.2214,-3.1422,-3.1571,-3.1193,-3.0379,0.0,0.0,-3.0398,-3.0398,-3.0379,-3.0379,-3.0367,-3.0386,-3.0386,-3.0386,-3.0386,-3.0386,-3.0386,-3.0386,-3.0379,-3.0439,-3.0462,-3.0472,-3.0537,-3.052,-3.0491,-3.0543,-3.0583,-3.0598,-3.0593,-2.9998,-2.9175,-2.8379,-2.7517,-2.6645,-2.5769,-2.5639,-2.5648,-2.5598,-2.5639,-2.5676,-2.5676,-2.5676,-2.5679,-2.5681,-2.5683,-2.5683,-2.5707,-2.5707,-2.5707,-2.5707,-2.5707,-2.5707,-2.5707,-2.5707,-2.5707,-2.5707,-2.5707,-2.5707,-2.5707,-2.5707,-2.5707,-2.5707,-2.5707,-2.5707,-2.5707,-2.5707,-2.5707,-2.5707,-2.5707,-2.6234,-1.5313,-1.7049,-1.8195,-1.6139,-1.6667,-1.7514,-1.6849,-1.6391,-1.6138,0.0,0.0,0.0,-1.7879,-1.9794,-2.157,0.0,0.0,-2.5258,0.0,0.0,-2.929,-3.0033,0.0,0.0,0.0,0.0,0.0,0.0,0.0,-3.1615,-3.0838,-3.0671,-3.0259,-2.9551,-2.9511,-2.9568,-2.9702,-3.0789,-3.1699,-3.2384,-3.2438,-3.2086,-3.1397,-3.1431,-3.1024,-3.0316,0.0,-3.0348,-3.0398,-3.0336,-3.0316,-3.0323,-3.0318,-3.0324,-3.0324,-3.0324,-3.0324,-3.0324,-3.0324,-3.0324,-3.0324,-3.0318,-3.033,-3.0343,-3.0336,-3.0343,-3.033,-3.0336,-3.0439,-3.053,-3.0591,-2.9965,-2.911,-2.8307,-2.7453,-2.6584,-2.569,-2.5521,-2.5526,-2.5515,-2.5521,-2.5532,-2.5532,-2.5532,-2.5547,-2.5605,-2.5629,-2.5642,-2.5685,-2.5707,-2.5707,-2.5707,-2.5707,-2.5707,-2.5707,-2.5707,-2.5707,-2.5707,-2.5707,-2.5707,-2.5707,-2.5707,-2.5707,-2.5707,-2.5707,-2.5707,-2.5707,-2.5707,-2.5707,-2.5707,-2.5707,-2.6566,-1.4805,-1.6526,-1.7963,-1.679,-1.8125,-1.9597,-1.9038,-1.8235,-1.7613,0.0,0.0,0.0,0.0,0.0,-2.1959,-2.3649,0.0,-2.5546,-2.6448,-2.7759,-2.8943,0.0,0.0,0.0,0.0,0.0,0.0,0.0,0.0,0.0,-2.9876,-2.9839,-2.9672,-2.9259,-2.931,-2.9291,-2.92,-2.9768,-3.0263,-3.0676,-3.0735,-3.0621,-3.0333,-3.0535,-3.0467,-3.0136,0.0,-3.0318,-3.033,-3.0299,-3.0299,-3.0299,-3.0292,-3.0292,-3.0292,-3.0292,-3.0292,-3.0292,-3.0292,-3.0292,-3.0292,-3.0266,-3.0266,-3.0292,-3.0266,-3.0253,-3.0247,-3.0279,-3.0343,-3.0394,-3.0432,-2.9786,-2.9052,-2.8722,-2.7995,-2.7163,-2.6281,-2.6118,-2.6003,-2.5483,-2.5415,-2.546,-2.546,-2.546,-2.5466,-2.5496,-2.5482,-2.5493,-2.5537,-2.5541,-2.5541,-2.5541,-2.5541,-2.5541,-2.5541,-2.5541,-2.5586,-2.5685,-2.5707,-2.5707,-2.5707,-2.5707,-2.5705,-2.5703,-2.5705,-2.5705,-2.5698,-2.5701,-2.5701,-2.5698,-2.5698,-2.6384,-1.4459,-1.5869,-1.7344,-1.74,-1.9216,-2.0992,-2.0833,-1.977,-1.8898,0.0,0.0,0.0,0.0,-2.141,0.0,-2.3963,-2.4779,-2.5607,-2.6534,-2.7651,-2.871,0.0,0.0,0.0,0.0,0.0,0.0,0.0,0.0,0.0,-2.9237,-2.92,-2.9178,-2.9178,-2.9178,-2.9156,-2.9156,-2.9156,-2.9156,-2.92,-2.9314,-2.9358,-2.9398,-2.9713,-2.9883,-2.9931,-3.0071,-3.0147,-3.0147,-3.0194,-3.0207,-3.0207,-3.0253,-3.0286,-3.0286,-3.0286,-3.0286,-3.0286,-3.0286,-3.0286,-3.0266,-3.0207,-3.0221,-3.0266,-3.0207,-3.0207,-3.0207,-3.0253,-3.0286,-3.0266,-3.0312,-2.9813,-2.9269,-2.9102,-2.8604,-2.7864,-2.6805,-2.6611,-2.6376,-2.5465,-2.5316,-2.5345,-2.5345,-2.5345,-2.5372,-2.5367,-2.5374,-2.5374,-2.5395,-2.5395,-2.5395,-2.5395,-2.5395,-2.5395,-2.5395,-2.5395,-2.5471,-2.5619,-2.5626,-2.5626,-2.5626,-2.5626,-2.5645,-2.5687,-2.5645,-2.5642,-2.5678,-2.5655,-2.5655,-2.5678,-2.5678,-2.6152,-1.5106,-1.589,-1.6632,-1.7259,-1.8657,-2.0073,-2.0666,-2.0131,0.0,-2.0504,0.0,0.0,0.0,-2.2452,-2.3245,-2.3894,-2.433,-2.5304,-2.7483,0.0,0.0,0.0,0.0,0.0,0.0,0.0,0.0,0.0,0.0,0.0,-2.92,-2.92,-2.9156,-2.9112,-2.9108,-2.9085,-2.9017,-2.9017,-2.9085,-2.92,-2.9222,-2.9267,-2.9394,-2.9434,-2.9551,-2.9716,-2.966,-2.9695,-2.9748,-2.988,-2.9927,-2.9943,-3.0138,-3.0218,-3.0218,-3.0218,-3.0218,-3.0218,-3.0218,-3.0218,-3.0218,-3.0199,-3.0199,-3.0218,-3.0199,-3.0185,-3.0199,-3.0218,-3.0218,-3.0213,-3.0279,-3.0254,-3.0005,-2.92,-2.895,-2.8471,-2.686,-2.6507,-2.6258,-2.5376,-2.5214,-2.5214,-2.5214,-2.5214,-2.5235,-2.5309,-2.5299,-2.5332,-2.5388,-2.5395,-2.5395,-2.5395,-2.5395,-2.5395,-2.5395,-2.5395,-2.5402,-2.5415,-2.5415,-2.5415,-2.5415,-2.5415,-2.5485,-2.5595,-2.5485,-2.5485,-2.5615,-2.5485,-2.5485,-2.5615,-2.5615,-2.6104,-1.4563,-1.5809,-1.7082,-1.7347,-1.8917,0.0,0.0,-2.0858,-2.1231,-2.1965,-2.2098,0.0,0.0,0.0,-2.3085,-2.3749,-2.3594,-2.4066,-2.5943,0.0,0.0,0.0,0.0,0.0,0.0,0.0,0.0,0.0,0.0,0.0,-2.8803,-2.8351,-2.8291,-2.8773,-2.8952,-2.904,-2.8994,-2.8994,-2.904,-2.9085,-2.9085,-2.9089,-2.9156,-2.927,-2.9375,-2.9455,-2.957,-2.9607,-2.9644,-2.9697,-2.9696,-2.9732,-2.9803,-2.982,-2.982,-2.982,-2.982,-2.9836,-2.9969,-3.0019,-3.0034,-3.0157,-3.0204,-3.0204,-3.0204,-3.0204,-3.0204,-3.0204,-3.0204,-3.0218,-3.0226,-3.0245,-3.015,-2.9825,-2.9748,-2.9423,-2.8243,-2.7593,-2.6993,-2.6113,-2.5539,-2.5206,-2.5206,-2.5206,-2.5217,-2.5222,-2.5252,-2.5243,-2.5264,-2.5274,-2.5274,-2.5274,-2.5274,-2.5274,-2.5274,-2.5274,-2.5274,-2.5274,-2.5348,-2.5395,-2.5395,-2.5395,-2.5428,-2.546,-2.5428,-2.5421,-2.5479,-2.5427,-2.5427,-2.5479,-2.5479,-2.568,-1.4581,-1.5764,-1.7064,-1.7383,0.0,0.0,-2.0431,-2.122,-2.2059,-2.2694,-2.2825,-2.2799,-2.2842,0.0,0.0,0.0,-2.3047,-2.3204,0.0,0.0,0.0,0.0,0.0,0.0,0.0,0.0,0.0,0.0,0.0,0.0,0.0,-2.729,-2.7393,-2.8184,-2.8498,-2.8695,-2.8881,-2.8714,-2.8585,-2.8498,-2.8329,-2.8498,-2.9017,-2.8883,-2.8817,-2.882,-2.8703,-2.88,-2.9024,-2.9101,-2.9308,-2.9608,-2.9608,-2.9608,-2.9608,-2.9608,-2.9608,-2.9626,-2.9751,-2.9805,-2.9839,-2.9969,-3.0,-3.0,-3.0,-3.0,-3.0015,-3.0098,-3.0113,-3.0113,-3.0113,-3.0157,-3.0204,-3.0204,-3.0204,-2.9956,-2.9082,-2.8261,-2.7434,-2.6574,-2.5746,-2.5191,-2.5191,-2.5191,-2.5191,-2.5191,-2.5191,-2.5191,-2.5191,-2.5191,-2.5191,-2.5191,-2.5191,-2.5191,-2.5191,-2.5191,-2.5191,-2.5191,-2.5293,-2.5343,-2.5343,-2.5343,-2.5352,-2.5379,-2.5352,-2.5354,-2.5365,-2.5346,-2.5346,-2.5365,-2.5365,-2.5379,-1.5397,-1.5752,-1.6343,-1.7363,-1.7774,0.0,-2.0056,-2.1142,-2.1948,-2.2556,-2.2642,-2.2624,-2.2685,-2.2642,0.0,-2.2685,-2.2703,-2.3032,0.0,0.0,0.0,0.0,0.0,0.0,0.0,0.0,0.0,0.0,0.0,0.0,0.0,-2.6074,-2.6535,-2.7356,-2.7638,-2.8041,-2.8565,-2.8059,-2.7657,-2.7381,-2.6849,-2.7416,-2.8938,-2.8154,-2.7787,-2.7732,-2.6961,-2.7053,-2.7791,-2.8005,-2.8669,-2.957,-2.957,-2.9589,-2.9589,-2.9589,-2.9608,-2.9608,-2.9608,-2.9608,-2.9608,-2.9608,-2.9608,-2.9608,-2.9608,-2.9608,-2.9644,-2.9839,-2.9888,-2.9888,-2.9888,-3.0049,-3.0185,-3.0185,-3.0185,-2.9956,-2.9082,-2.8261,-2.7453,-2.6555,-2.5753,-2.521,-2.521,-2.521,-2.521,-2.5191,-2.5191,-2.5191,-2.5191,-2.521,-2.521,-2.521,-2.521,-2.521,-2.521,-2.521,-2.521,-2.521,-2.521,-2.521,-2.5191,-2.5191,-2.5217,-2.5303,-2.5228,-2.5228,-2.5303,-2.5228,-2.5228,-2.5303,-2.5303,-2.5321,-1.5411,-1.6189,-1.7223,-1.82,-1.9482,-2.0673,0.0,-2.1349,0.0,0.0,-2.2579,-2.2685,-2.2712,0.0,0.0,-2.2712,-2.2703,0.0,0.0,0.0,0.0,0.0,0.0,0.0,0.0,0.0,0.0,0.0,0.0,0.0,0.0,-2.5116,-2.5312,-2.6229,-2.6405,-2.6609,-2.6916,-2.6609,-2.6501,-2.6553,-2.6386,-2.6662,-2.731,-2.7071,-2.6961,-2.6943,-2.6704,-2.6741,-2.6961,-2.7006,-2.7218,-2.7502,-2.7502,-2.7835,-2.8334,-2.8334,-2.8682,-2.9203,-2.9334,-2.9395,-2.9415,-2.9533,-2.9608,-2.9608,-2.9608,-2.9608,-2.9608,-2.9681,-2.9681,-2.9681,-2.9681,-2.9734,-2.9769,-2.9769,-2.9769,-2.9559,-2.8744,-2.7878,-2.7031,-2.6212,-2.5404,-2.4884,-2.4974,-2.4987,-2.5044,-2.518,-2.5191,-2.5191,-2.5191,-2.5088,-2.4987,-2.4987,-2.4987,-2.4947,-2.4856,-2.4856,-2.4856,-2.4856,-2.4856,-2.4953,-2.518,-2.5191,-2.5203,-2.5236,-2.5203,-2.5203,-2.5236,-2.5203,-2.5203,-2.5236,-2.5236,-2.5239,-1.6454,-1.7418,-1.8526,-1.9573,-2.0575,-2.1387,-2.1608,0.0,0.0,0.0,-2.2415,-2.2453,-2.2552,-2.248,0.0,-2.2552,0.0,0.0,0.0,0.0,0.0,0.0,0.0,0.0,0.0,0.0,0.0,0.0,0.0,0.0,0.0,-2.4024,-2.4239,-2.5169,-2.5319,-2.5535,-2.5888,-2.5553,-2.544,-2.5559,-2.5348,-2.5394,-2.5658,-2.597,-2.6117,-2.6117,-2.6117,-2.6117,-2.6153,-2.6465,-2.6612,-2.6612,-2.6612,-2.6906,-2.7365,-2.7677,-2.8117,-2.8599,-2.9027,-2.9185,-2.9206,-2.9314,-2.9355,-2.9355,-2.9355,-2.9355,-2.9375,-2.9455,-2.9494,-2.9494,-2.9494,-2.9494,-2.9513,-2.9589,-2.9608,-2.9382,-2.8573,-2.7729,-2.6866,-2.6073,-2.5249,-2.4738,-2.4808,-2.4818,-2.4865,-2.498,-2.5012,-2.5012,-2.5012,-2.4893,-2.4936,-2.5257,-2.5012,-2.4926,-2.5158,-2.4895,-2.4707,-2.4707,-2.4707,-2.4798,-2.498,-2.5012,-2.5012,-2.5012,-2.5012,-2.5012,-2.5012,-2.5012,-2.5012,-2.5012,-2.5012,-2.5012,-1.798,-1.8909,-1.9829,-2.1076,-2.1213,-2.1078,-2.124,-2.1986,-2.2579,-2.2377,0.0,-2.2056,-2.2304,-2.2158,-2.2084,0.0,0.0,0.0,0.0,0.0,0.0,0.0,0.0,0.0,0.0,0.0,0.0,0.0,0.0,0.0,0.0,-2.2944,-2.341,-2.4171,-2.4353,-2.4672,-2.5182,-2.469,-2.445,-2.4468,-2.3965,-2.3876,-2.415,-2.4922,-2.5252,-2.5214,-2.5234,-2.5252,-2.5307,-2.608,-2.6392,-2.6392,-2.6392,-2.6429,-2.6576,-2.731,-2.7658,-2.7897,-2.865,-2.892,-2.8994,-2.8994,-2.8994,-2.8994,-2.8994,-2.8994,-2.9044,-2.9228,-2.9272,-2.9272,-2.9272,-2.9217,-2.9202,-2.9401,-2.9439,-2.9214,-2.8407,-2.7564,-2.6703,-2.5911,-2.5145,-2.466,-2.4676,-2.4657,-2.4692,-2.4707,-2.4673,-2.4692,-2.4707,-2.4748,-2.507,-2.5785,-2.5276,-2.5148,-2.5806,-2.5169,-2.4735,-2.4645,-2.466,-2.466,-2.4645,-2.4676,-2.4707,-2.4707,-2.4707,-2.4707,-2.4707,-2.4707,-2.4707,-2.4692,-2.4707,-2.4692,-1.7382,-1.823,-1.9361,-2.098,-2.1667,-2.1809,-2.1385,-2.1735,-2.2084,-2.1886,-2.1928,-2.2027,-2.2073,-2.2027,-2.2027,0.0,0.0,0.0,0.0,0.0,0.0,0.0,0.0,0.0,0.0,0.0,0.0,0.0,0.0,0.0,-2.2712,-2.2764,-2.2963,-2.3348,-2.3196,-2.3266,-2.3593,-2.3266,-2.3204,0.0,-2.3294,-2.3353,-2.3606,-2.3976,-2.4028,-2.384,-2.4049,-2.4133,-2.4172,-2.4571,-2.4722,-2.4722,-2.4722,-2.5089,-2.5697,-2.5862,-2.6704,-2.7824,-2.7989,-2.8484,-2.8994,-2.8994,-2.8994,-2.8994,-2.8994,-2.8994,-2.9017,-2.9044,-2.9067,-2.9067,-2.9067,-2.8588,-2.8113,-2.8178,-2.8178,-2.7957,-2.7145,-2.6333,-2.554,-2.4727,-2.4432,-2.4339,-2.4442,-2.4458,-2.451,-2.4692,-2.4578,-2.4526,-2.4692,-2.5122,-2.5465,-2.5651,-2.6061,-2.6117,-2.5558,-2.5355,-2.4948,-2.4266,-2.4284,-2.4266,-2.4154,-2.4512,-2.4707,-2.4707,-2.4707,-2.4707,-2.4707,-2.4707,-2.4673,-2.4623,-2.4692,-2.4642,-1.7505,-1.8586,-1.9792,-2.1462,-2.1921,-2.1853,-2.1402,-2.1479,-2.1631,-2.1526,-2.1691,-2.1869,-2.1869,-2.1869,0.0,0.0,0.0,0.0,0.0,0.0,0.0,0.0,0.0,0.0,0.0,0.0,0.0,0.0,0.0,-2.2712,-2.2712,-2.2712,-2.2764,-2.2902,-2.2764,-2.2764,-2.2919,-2.2764,-2.2842,-2.3095,-2.3095,-2.3133,-2.3265,-2.35,-2.3522,-2.3414,-2.3544,-2.361,-2.361,-2.3774,-2.3816,-2.3816,-2.3816,-2.407,-2.449,-2.4907,-2.5832,-2.6897,-2.726,-2.7912,-2.8601,-2.8767,-2.8791,-2.8834,-2.897,-2.8994,-2.8952,-2.8952,-2.8947,-2.8832,-2.8429,-2.8301,-2.8173,-2.7789,-2.7449,-2.7016,-2.619,-2.5695,-2.5164,-2.4355,-2.419,-2.4228,-2.4303,-2.4302,-2.4321,-2.4392,-2.4653,-2.4875,-2.4912,-2.5558,-2.6123,-2.651,-2.6583,-2.656,-2.6475,-2.574,-2.5118,-2.4657,-2.4293,-2.4074,-2.3996,-2.4229,-2.4355,-2.4355,-2.4355,-2.4355,-2.4355,-2.4355,-2.4356,-2.432,-2.4356,-2.432,-1.7364,-1.8841,-2.0289,-2.1764,-2.1898,-2.1556,-2.134,-2.1309,-2.1309,-2.1309,-2.1481,-2.1617,-2.1617,-2.1617,0.0,0.0,0.0,0.0,0.0,0.0,0.0,0.0,0.0,0.0,0.0,0.0,0.0,0.0,0.0,-2.2712,-2.2712,-2.2712,-2.2712,-2.2712,-2.2712,-2.2712,-2.2712,-2.2712,-2.2816,-2.3045,-2.3045,-2.3045,-2.3045,-2.3194,-2.3294,-2.3294,-2.3341,-2.3341,-2.3341,-2.3392,-2.3392,-2.3392,-2.3392,-2.3392,-2.3499,-2.4379,-2.5165,-2.5908,-2.6718,-2.7486,-2.8156,-2.843,-2.8525,-2.8551,-2.8767,-2.8791,-2.8743,-2.8773,-2.8767,-2.8573,-2.7947,-2.8208,-2.8445,-2.777,-2.7031,-2.6307,-2.563,-2.5303,-2.488,-2.4182,-2.4056,-2.4168,-2.4334,-2.4372,-2.4408,-2.4496,-2.5061,-2.5479,-2.5418,-2.6107,-2.6854,-2.7445,-2.7086,-2.6941,-2.7282,-2.6099,-2.5208,-2.4914,-2.4239,-2.3876,-2.3915,-2.3917,-2.3917,-2.3958,-2.3996,-2.3996,-2.3996,-2.3996,-2.3996,-2.3996,-2.3996,-2.3996,-1.5375,-1.7479,-1.9881,-2.0857,-2.1242,-2.134,0.0,0.0,-2.1309,0.0,-2.1325,-2.134,-2.134,0.0,0.0,0.0,0.0,0.0,0.0,0.0,0.0,0.0,0.0,0.0,0.0,0.0,0.0,0.0,-2.2605,-2.2712,-2.2712,-2.2712,-2.2712,-2.2712,-2.2712,-2.2712,-2.2712,-2.2712,-2.2712,-2.2764,-2.2764,-2.2764,-2.2764,-2.2773,-2.2799,-2.2799,-2.3052,-2.3151,-2.3133,-2.3318,-2.3392,-2.3392,-2.3392,-2.3392,-2.3499,-2.432,-2.5122,-2.5908,-2.6649,-2.7415,-2.8102,-2.8156,-2.8147,-2.8093,-2.812,-2.8093,-2.8093,-2.8298,-2.8376,-2.8402,-2.8591,-2.8208,-2.7734,-2.7624,-2.6789,-2.5973,-2.5912,-2.4811,-2.3736,-2.3387,-2.3522,-2.397,-2.4905,-2.5074,-2.529,-2.6002,-2.6184,-2.6235,-2.6235,-2.6927,-2.7367,-2.7198,-2.7955,-2.784,-2.6261,-2.5997,-2.5252,-2.3817,-2.3445,-2.3387,-2.3553,-2.358,-2.3649,-2.3816,-2.3937,-2.3996,-2.3996,-2.3996,-2.3976,-2.3917,-2.3976,-2.3937,-1.5263,-1.7213,-1.9202,-2.0764,-2.1044,-2.1035,-2.1444,-2.1419,-2.1309,-2.1309,-2.1309,-2.1309,0.0,0.0,0.0,0.0,0.0,0.0,0.0,0.0,0.0,0.0,0.0,0.0,0.0,0.0,0.0,0.0,-2.2371,-2.2436,-2.2632,-2.2409,-2.2381,-2.2579,-2.2579,-2.2623,-2.2632,-2.2632,-2.2632,-2.2632,-2.2623,-2.2579,-2.2579,-2.2579,-2.2632,-2.2712,-2.279,-2.2842,-2.2893,-2.2892,-2.2943,-2.3,-2.2968,-2.2975,-2.3105,-2.3876,-2.4664,-2.547,-2.6195,-2.6994,-2.7672,-2.7783,-2.7783,-2.78,-2.7897,-2.7897,-2.7869,-2.7992,-2.7992,-2.7931,-2.7831,-2.7725,-2.7583,-2.7332,-2.6619,-2.6159,-2.6682,-2.5303,-2.3857,-2.3301,-2.33,-2.3664,-2.4538,-2.4682,-2.4968,-2.5725,-2.6226,-2.6512,-2.6461,-2.7165,-2.7594,-2.7439,-2.7869,-2.7825,-2.6978,-2.6153,-2.5354,-2.4605,-2.3671,-2.317,-2.3277,-2.3283,-2.3312,-2.3422,-2.3732,-2.3896,-2.3896,-2.3896,-2.3876,-2.3837,-2.3858,-2.3792,-1.5174,-1.6725,-1.801,-1.9911,-2.0341,-2.0467,0.0,0.0,-2.1309,0.0,-2.1309,-2.1294,0.0,0.0,0.0,0.0,0.0,0.0,0.0,0.0,0.0,0.0,0.0,0.0,0.0,0.0,0.0,0.0,-2.1998,-2.2056,-2.2315,-2.2113,-2.2113,-2.236,-2.246,-2.2525,-2.2579,-2.2579,-2.2579,-2.2579,-2.2525,-2.2515,-2.2515,-2.2515,-2.2552,-2.2632,-2.2596,-2.2605,-2.2632,-2.2542,-2.2569,-2.2632,-2.2579,-2.2623,-2.2779,-2.368,-2.4414,-2.5067,-2.6014,-2.6736,-2.725,-2.7386,-2.743,-2.7461,-2.7595,-2.7577,-2.7547,-2.7636,-2.7624,-2.7502,-2.7252,-2.7434,-2.7606,-2.7261,-2.6778,-2.6433,-2.6714,-2.5338,-2.3946,-2.3517,-2.3252,-2.3379,-2.4416,-2.4574,-2.4901,-2.5833,-2.6483,-2.6852,-2.6823,-2.7332,-2.7672,-2.7582,-2.7642,-2.7584,-2.7302,-2.6236,-2.5502,-2.5292,-2.3964,-2.3214,-2.3265,-2.3115,-2.3035,-2.3091,-2.3427,-2.3606,-2.3606,-2.3606,-2.3606,-2.3606,-2.3606,-2.3535,-1.4319,-1.5347,-1.6109,-1.7313,-1.8487,-1.9532,0.0,0.0,-2.1309,-2.1309,-2.1309,-2.131,0.0,0.0,0.0,0.0,0.0,0.0,0.0,0.0,0.0,0.0,0.0,0.0,0.0,0.0,0.0,0.0,-2.1399,-2.1554,-2.1554,-2.1853,-2.2027,-2.2027,-2.2343,-2.2515,-2.2515,-2.2515,-2.2515,-2.2515,-2.2515,-2.2515,-2.2515,-2.2515,-2.2515,-2.2515,-2.2515,-2.2515,-2.2515,-2.2515,-2.2515,-2.2515,-2.2515,-2.2515,-2.2685,-2.412,-2.4667,-2.4923,-2.6426,-2.699,-2.7024,-2.704,-2.6975,-2.6959,-2.6942,-2.6859,-2.6825,-2.7149,-2.7244,-2.7289,-2.7589,-2.7695,-2.7683,-2.766,-2.7391,-2.6764,-2.535,-2.4218,-2.3591,-2.406,-2.3363,-2.3267,-2.5032,-2.5331,-2.584,-2.735,-2.7613,-2.7631,-2.7631,-2.7666,-2.7582,-2.7276,-2.7522,-2.7238,-2.6195,-2.6087,-2.5725,-2.4971,-2.3955,-2.3499,-2.3746,-2.3091,-2.285,-2.3109,-2.3116,-2.314,-2.314,-2.314,-2.314,-2.314,-2.314,-2.3116,-1.3089,0.0,0.0,-1.6695,-1.7895,-1.8956,-1.9624,-2.0557,-2.1309,-2.1309,-2.1309,0.0,0.0,0.0,0.0,0.0,0.0,0.0,0.0,0.0,0.0,0.0,0.0,0.0,0.0,0.0,0.0,0.0,0.0,-2.1214,-2.1432,-2.1308,-2.1432,-2.1869,-2.2003,-2.2175,-2.2432,-2.2432,-2.2432,-2.2432,-2.2377,-2.2366,-2.2366,-2.2366,-2.2366,-2.2366,-2.2366,-2.2405,-2.2487,-2.2422,-2.2405,-2.2487,-2.246,-2.246,-2.2634,-2.3625,-2.4291,-2.4855,-2.5914,-2.6597,-2.6975,-2.6959,-2.6926,-2.6893,-2.6792,-2.6742,-2.6725,-2.6858,-2.6891,-2.6956,-2.7289,-2.7227,-2.7068,-2.7068,-2.6461,-2.5939,-2.6041,-2.4669,-2.3451,-2.3665,-2.3403,-2.3511,-2.4619,-2.5202,-2.587,-2.6914,-2.7068,-2.7068,-2.7068,-2.7068,-2.7004,-2.6891,-2.6971,-2.6901,-2.6466,-2.6056,-2.5664,-2.536,-2.4571,-2.3943,-2.3539,-2.3283,-2.2965,-2.2579,-2.2605,-2.2773,-2.3091,-2.3091,-2.3091,-2.3091,-2.3091,-2.301,-1.2464,0.0,0.0,0.0,-1.6898,-1.7691,-1.8861,0.0,-2.0649,-2.1193,-2.1261,0.0,0.0,0.0,0.0,0.0,0.0,0.0,0.0,0.0,0.0,0.0,0.0,0.0,0.0,0.0,0.0,0.0,0.0,0.0,-2.1039,-2.0877,-2.1103,-2.1781,-2.1797,-2.1915,-2.2192,-2.2192,-2.2135,-2.2032,-2.1991,-2.202,-2.2135,-2.2135,-2.218,-2.231,-2.231,-2.2366,-2.2432,-2.2338,-2.2366,-2.2432,-2.2377,-2.2377,-2.2518,-2.3266,-2.3828,-2.439,-2.5442,-2.6027,-2.6387,-2.6707,-2.6725,-2.664,-2.6691,-2.6691,-2.6691,-2.6691,-2.6691,-2.6725,-2.6808,-2.6488,-2.6084,-2.5832,-2.5578,-2.5524,-2.6184,-2.478,-2.346,-2.3714,-2.3562,-2.363,-2.4388,-2.5101,-2.5862,-2.659,-2.6691,-2.6691,-2.6691,-2.6573,-2.6505,-2.6505,-2.6385,-2.628,-2.628,-2.5949,-2.5749,-2.5749,-2.519,-2.4526,-2.3799,-2.3528,-2.3054,-2.2327,-2.231,-2.2487,-2.2833,-2.2833,-2.2833,-2.2833,-2.2833,-2.2747,0.0,0.0,0.0,0.0,0.0,0.0,-1.7831,0.0,-1.9302,-2.0872,-2.1037,0.0,0.0,0.0,0.0,0.0,0.0,0.0,0.0,0.0,0.0,0.0,0.0,0.0,0.0,0.0,0.0,0.0,-2.0304,-2.0304,-2.0304,-2.0628,-2.1103,-2.1751,-2.1797,-2.1781,-2.1797,-2.1781,-2.1631,-2.1308,-2.1308,-2.1462,-2.1797,-2.1781,-2.1991,-2.2282,-2.2282,-2.2282,-2.2282,-2.2282,-2.231,-2.231,-2.231,-2.231,-2.2395,-2.3105,-2.3376,-2.3596,-2.5002,-2.5263,-2.5161,-2.627,-2.6368,-2.6142,-2.6573,-2.6691,-2.6691,-2.6691,-2.6691,-2.6573,-2.6142,-2.5506,-2.4828,-2.4116,-2.4777,-2.5542,-2.5542,-2.4411,-2.3617,-2.4374,-2.3934,-2.368,-2.4391,-2.5135,-2.5847,-2.6556,-2.6657,-2.6657,-2.6657,-2.6315,-2.6087,-2.6087,-2.5726,-2.5503,-2.5503,-2.5872,-2.6104,-2.6104,-2.5782,-2.5272,-2.4574,-2.3816,-2.3088,-2.2361,-2.2327,-2.231,-2.231,-2.231,-2.231,-2.231,-2.231,-2.231,-1.2592,0.0,0.0,0.0,0.0,0.0,0.0,0.0,0.0,-1.8707,0.0,0.0,0.0,0.0,0.0,0.0,0.0,0.0,0.0,0.0,0.0,0.0,0.0,0.0,0.0,0.0,0.0,0.0,-2.0304,-2.0304,-2.0304,-2.0628,-2.1007,-2.1432,-2.1432,-2.1554,-2.1797,-2.157,-2.1401,-2.1308,-2.1308,-2.1462,-2.1781,-2.1554,-2.1631,-2.1915,-2.1691,-2.1601,-2.1615,-2.2106,-2.231,-2.231,-2.231,-2.231,-2.2299,-2.2254,-2.2578,-2.3048,-2.3225,-2.3572,-2.4045,-2.487,-2.5029,-2.5127,-2.6009,-2.628,-2.628,-2.628,-2.628,-2.6042,-2.516,-2.4811,-2.4484,-2.3799,-2.3833,-2.4015,-2.4066,-2.367,-2.372,-2.5039,-2.4894,-2.4614,-2.4846,-2.5463,-2.5942,-2.5839,-2.5835,-2.5835,-2.5835,-2.5726,-2.5689,-2.5689,-2.5577,-2.5503,-2.5503,-2.5615,-2.5799,-2.6087,-2.5727,-2.5456,-2.5289,-2.4309,-2.3541,-2.3105,-2.2581,-2.231,-2.231,-2.231,-2.231,-2.231,-2.231,-2.231,0.0,0.0,0.0,0.0,0.0,0.0,0.0,-1.6138,0.0,0.0,0.0,0.0,0.0,0.0,0.0,0.0,0.0,0.0,0.0,0.0,0.0,0.0,0.0,0.0,0.0,-2.0304,-2.0304,-2.0304,-2.0304,-2.0304,-2.0304,-2.0509,-2.0761,-2.1087,-2.1087,-2.1198,-2.1386,-2.1198,-2.1023,-2.0861,-2.0861,-2.1055,-2.1386,-2.1182,-2.1276,-2.1601,-2.1401,-2.1308,-2.1339,-2.1721,-2.1886,-2.1886,-2.2049,-2.202,-2.1886,-2.1827,-2.1986,-2.2241,-2.2362,-2.2587,-2.2937,-2.3805,-2.4172,-2.4358,-2.4865,-2.5395,-2.574,-2.5184,-2.5092,-2.5041,-2.4402,-2.4007,-2.3622,-2.2951,-2.2859,-2.2991,-2.3317,-2.3398,-2.3674,-2.4513,-2.4726,-2.4751,-2.4751,-2.5376,-2.5762,-2.554,-2.5503,-2.5503,-2.5503,-2.5351,-2.5237,-2.5237,-2.5082,-2.502,-2.502,-2.516,-2.5351,-2.5577,-2.554,-2.5379,-2.5111,-2.4182,-2.3457,-2.2936,-2.2252,-2.1945,-2.2077,-2.2225,-2.231,-2.231,-2.231,-2.231,-1.3181,-1.3913,0.0,0.0,0.0,0.0,-1.5916,-1.5903,-1.5991,0.0,0.0,0.0,0.0,0.0,0.0,0.0,0.0,0.0,0.0,0.0,0.0,0.0,0.0,0.0,-2.0304,-2.0304,-2.0304,-2.0304,-2.0304,-2.0304,-2.0304,-2.0304,-2.046,-2.0794,-2.0761,-2.0761,-2.0794,-2.0761,-2.0595,-2.0304,-2.0304,-2.0475,-2.0794,-2.0761,-2.0942,-2.1245,-2.1214,-2.1182,-2.1182,-2.1182,-2.1229,-2.1339,-2.1631,-2.1554,-2.1339,-2.1601,-2.1493,-2.1326,-2.194,-2.1933,-2.1821,-2.2905,-2.3423,-2.3581,-2.349,-2.4272,-2.4964,-2.3772,-2.3615,-2.3806,-2.3648,-2.3185,-2.253,-2.1796,-2.1893,-2.2303,-2.2847,-2.3333,-2.3591,-2.3375,-2.3915,-2.4434,-2.4434,-2.4986,-2.5427,-2.5351,-2.5351,-2.5351,-2.5351,-2.5059,-2.4823,-2.4784,-2.4492,-2.4261,-2.4261,-2.4614,-2.4823,-2.4879,-2.5198,-2.5083,-2.4463,-2.3716,-2.2989,-2.2312,-2.1633,-2.1462,-2.1797,-2.2152,-2.231,-2.231,-2.2254,-2.2237,-1.5452,-1.5469,-1.5709,-1.581,0.0,0.0,-1.51,-1.5241,-1.54,0.0,0.0,0.0,0.0,0.0,0.0,0.0,0.0,0.0,0.0,0.0,0.0,0.0,0.0,0.0,-2.0304,-2.0304,-2.0304,-2.0304,-2.0304,-2.0304,-2.0304,-2.0304,-2.046,-2.0794,-2.0543,-2.0527,-2.0794,-2.0527,-2.0373,-2.0304,-2.0304,-2.0475,-2.0794,-2.0527,-2.0595,-2.0877,-2.0613,-2.0494,-2.0494,-2.0494,-2.0795,-2.1308,-2.137,-2.137,-2.1276,-2.1071,-2.0942,-2.0876,-2.0736,-2.0662,-2.0717,-2.149,-2.1766,-2.1952,-2.2778,-2.3203,-2.3363,-2.3076,-2.3205,-2.3157,-2.2096,-2.2053,-2.1993,-2.0731,-2.1234,-2.1925,-2.151,-2.2738,-2.3738,-2.3185,-2.3888,-2.4579,-2.4579,-2.4784,-2.4815,-2.4508,-2.4508,-2.4492,-2.4482,-2.4426,-2.4343,-2.4177,-2.4193,-2.4166,-2.4067,-2.4234,-2.4467,-2.4815,-2.4655,-2.4524,-2.4482,-2.3467,-2.2729,-2.2394,-2.1664,-2.1462,-2.1797,-2.2152,-2.231,-2.2282,-2.202,-2.1886,-1.6209,-1.6174,-1.6553,-1.6912,0.0,0.0,0.0,-1.6075,-1.6034,-1.5961,-1.5245,-1.4766,0.0,0.0,0.0,0.0,0.0,0.0,0.0,0.0,0.0,0.0,0.0,0.0,-1.9765,-1.9795,-1.9934,-2.0273,-2.0304,-2.0304,-2.0304,-2.0304,-2.0373,-2.0543,-2.0407,-2.0373,-2.0561,-2.0373,-2.0304,-2.0304,-2.0304,-2.0407,-2.0527,-2.0373,-2.0407,-2.0527,-2.0373,-2.0304,-2.0304,-2.0304,-2.0494,-2.0828,-2.1007,-2.0958,-2.0795,-2.0794,-2.0695,-2.0527,-2.0373,-2.0304,-2.0366,-2.0705,-2.1044,-2.1342,-2.1541,-2.1612,-2.1733,-2.2384,-2.2384,-2.2133,-2.1758,-2.1622,-2.1416,-2.0716,-2.0734,-2.0993,-2.1341,-2.2164,-2.2923,-2.3239,-2.3751,-2.4131,-2.4287,-2.4369,-2.4343,-2.4109,-2.4109,-2.4151,-2.4124,-2.4109,-2.4109,-2.4024,-2.4082,-2.4082,-2.4024,-2.4082,-2.4193,-2.4385,-2.4219,-2.4174,-2.4241,-2.3079,-2.2014,-2.1214,-2.0987,-2.0959,-2.1166,-2.1493,-2.1781,-2.2049,-2.1721,-2.1631,0.0,0.0,0.0,0.0,0.0,-1.7645,0.0,0.0,0.0,-1.7544,0.0,0.0,0.0,0.0,0.0,0.0,0.0,0.0,0.0,0.0,0.0,0.0,0.0,0.0,0.0,-1.8978,-1.924,-2.0058,-1.9996,-1.9993,-2.0289,-2.0304,-2.0304,-2.0304,-2.0304,-2.0304,-2.0304,-2.0304,-2.0304,-2.0304,-2.0304,-2.0304,-2.0304,-2.0304,-2.0304,-2.0304,-2.0304,-2.0304,-2.0304,-2.0304,-2.0304,-2.0339,-2.0595,-2.0543,-2.0339,-2.0595,-2.0527,-2.0304,-2.0304,-2.0304,-2.0304,-2.0304,-2.0674,-2.1013,-2.0404,-2.0235,-2.0466,-2.1513,-2.1461,-2.1179,-2.1531,-2.1311,-2.0925,-2.0788,-2.0473,-2.0437,-2.1558,-2.1914,-2.2368,-2.34,-2.3595,-2.3653,-2.3882,-2.394,-2.3982,-2.3982,-2.3982,-2.3982,-2.3982,-2.3982,-2.3982,-2.394,-2.394,-2.394,-2.394,-2.394,-2.3982,-2.3982,-2.3982,-2.3861,-2.3618,-2.2313,-2.1098,-2.0021,-2.0273,-2.0447,-2.0514,-2.0714,-2.1103,-2.1631,-2.1291,-2.1291,0.0,0.0,0.0,0.0,-1.9058,0.0,0.0,0.0,-1.7376,-1.6001,0.0,0.0,0.0,0.0,0.0,0.0,0.0,0.0,0.0,0.0,0.0,0.0,0.0,0.0,0.0,-1.7777,-1.7992,-1.9317,-1.8823,-1.8992,-2.0243,-2.0304,-2.0304,-2.0304,-2.0304,-2.0304,-2.0304,-2.0304,-2.0304,-2.0304,-2.0304,-2.0304,-2.0304,-2.0304,-2.0304,-2.0304,-2.0304,-2.0304,-2.0304,-2.0304,-2.0304,-2.0304,-2.0339,-2.0339,-2.0304,-2.0339,-2.0339,-2.0304,-2.0304,-2.0304,-2.0304,-2.0304,-2.035,-2.0377,-2.0126,-2.0096,-2.0146,-2.0223,-2.0634,-2.0871,-2.0354,-2.0555,-2.076,-2.0104,-2.0738,-2.1515,-2.1704,-2.2577,-2.343,-2.3565,-2.3595,-2.3595,-2.3653,-2.3739,-2.3839,-2.3839,-2.3925,-2.3982,-2.3839,-2.394,-2.3925,-2.3653,-2.3739,-2.3782,-2.3653,-2.3739,-2.3839,-2.3839,-2.394,-2.3451,-2.2267,-2.0931,-2.0157,-2.0005,-2.0025,-2.022,-2.0514,-2.0239,-2.0444,-2.1071,-2.0747,-2.0614,0.0,0.0,0.0,0.0,0.0,0.0,-1.8398,0.0,-1.781,0.0,0.0,0.0,0.0,0.0,0.0,0.0,0.0,0.0,0.0,0.0,0.0,0.0,0.0,0.0,0.0,0.0,0.0,0.0,-1.8361,-1.8622,-1.9672,-2.0088,-2.0304,-2.0304,-2.0304,-2.0304,-2.0304,-2.0304,-2.0304,-2.0304,-2.0304,-2.0304,-2.0304,-2.0304,-2.0304,-2.0304,-2.0304,-2.0304,-2.0304,-2.022,-2.0185,-2.0185,-2.0131,-2.02,-2.0304,-2.0304,-2.0304,-2.0304,-2.0304,-2.027,-2.0185,-2.0131,-2.0146,-2.0096,-2.0041,-2.0025,-2.0025,-1.9919,-2.008,-2.0231,-1.9908,-2.0023,-2.0122,-1.9837,-2.046,-2.1231,-2.162,-2.2413,-2.3076,-2.3172,-2.3421,-2.3508,-2.3246,-2.3465,-2.3696,-2.3696,-2.3739,-2.3739,-2.3696,-2.3739,-2.3739,-2.3595,-2.3653,-2.3653,-2.3595,-2.3653,-2.3696,-2.3696,-2.3739,-2.3375,-2.2455,-2.1482,-2.079,-2.0414,-2.0008,-1.9904,-2.005,-1.9889,-1.996,-2.0243,-2.0239,-2.0292,-1.8307,0.0,0.0,0.0,0.0,0.0,0.0,0.0,0.0,0.0,0.0,0.0,0.0,0.0,0.0,0.0,0.0,0.0,0.0,0.0,0.0,0.0,0.0,0.0,0.0,0.0,0.0,0.0,0.0,-1.7946,-1.9225,-1.9765,-2.0119,-2.0304,-2.0304,-2.0304,-2.0304,-2.0304,-2.027,-2.015,-2.027,-2.027,-2.0185,-2.027,-2.0304,-2.0304,-2.015,-2.008,-2.0045,-1.9803,-1.9732,-1.9717,-1.9675,-1.9747,-1.9889,-2.0131,-2.02,-2.02,-2.02,-2.015,-2.0045,-1.9955,-1.997,-2.0005,-1.9919,-1.9919,-1.9919,-1.9797,-1.9762,-1.9762,-1.9726,-1.9617,-1.9574,-1.9716,-2.0188,-2.0789,-2.1436,-2.2083,-2.2571,-2.2653,-2.3054,-2.329,-2.2979,-2.329,-2.3551,-2.3421,-2.3421,-2.3377,-2.3231,-2.3187,-2.3187,-2.3187,-2.3187,-2.3187,-2.3187,-2.3319,-2.3465,-2.3595,-2.3266,-2.2951,-2.2724,-2.2039,-2.138,-2.0722,-2.0228,-1.9869,-1.969,-1.969,-1.969,-1.969,-1.9848,-2.0045,0.0,0.0,0.0,-1.8398,0.0,0.0,0.0,0.0,-1.8674,0.0,0.0,0.0,0.0,0.0,0.0,0.0,0.0,0.0,0.0,0.0,0.0,0.0,0.0,0.0,0.0,0.0,0.0,0.0,0.0,0.0,-1.9148,-1.9317,-1.9626,-2.0289,-2.0304,-2.0304,-2.0304,-2.0304,-2.015,-1.9823,-2.015,-2.015,-1.9823,-2.015,-2.0304,-2.027,-1.9747,-1.953,-1.9479,-1.8968,-1.8727,-1.8727,-1.8727,-1.8727,-1.8841,-1.969,-2.0005,-2.0005,-2.0005,-2.0005,-1.997,-1.9848,-1.9884,-1.9955,-1.9762,-1.9762,-1.9797,-1.9726,-1.969,-1.969,-1.969,-1.9398,-1.9246,-1.9788,-2.01,-2.0485,-2.1102,-2.1693,-2.21,-2.2128,-2.2558,-2.2934,-2.2889,-2.329,-2.3465,-2.2979,-2.2934,-2.274,-2.2221,-2.2128,-2.2128,-2.2128,-2.2128,-2.2128,-2.2128,-2.2603,-2.3113,-2.3551,-2.2443,-2.2039,-2.2694,-2.2039,-2.138,-2.0722,-2.0692,-2.0348,-1.969,-1.969,-1.969,-1.969,-1.9726,-1.9726,0.0,0.0,-2.0611,-1.9585,0.0,0.0,0.0,0.0,0.0,0.0,0.0,0.0,0.0,0.0,0.0,0.0,0.0,0.0,0.0,0.0,0.0,0.0,0.0,0.0,0.0,0.0,0.0,0.0,-1.5388,0.0,0.0,-1.8943,-1.9345,-1.9767,-1.9869,-1.9869,-1.9782,-1.9726,-1.9762,-1.9788,-1.9762,-1.9669,-1.9545,-1.9508,-1.9508,-1.9508,-1.9132,-1.8968,-1.8968,-1.8717,-1.864,-1.8655,-1.8563,-1.8563,-1.864,-1.9332,-1.9603,-1.9603,-1.9479,-1.9479,-1.9406,-1.9035,-1.9161,-1.9362,-1.9011,-1.9124,-1.9288,-1.9011,-1.8921,-1.8921,-1.8921,-1.9084,-1.9282,-1.944,-2.0218,-2.0946,-2.117,-2.1675,-2.1988,-2.1684,-2.2049,-2.2282,-2.1969,-2.2282,-2.268,-2.2889,-2.2603,-2.2314,-2.2128,-2.2081,-2.2081,-2.2081,-2.2081,-2.2081,-2.2081,-2.2603,-2.3113,-2.3551,-2.3191,-2.3056,-2.3281,-2.2682,-2.2248,-2.2024,-2.159,-2.1036,-2.0363,-2.0363,-2.0124,-1.969,-1.969,-1.969,-2.0069,-2.0382,0.0,-2.012,-1.9908,0.0,-1.9039,0.0,0.0,0.0,0.0,0.0,0.0,0.0,0.0,0.0,0.0,0.0,0.0,0.0,0.0,0.0,0.0,0.0,0.0,0.0,-1.4151,-1.5335,-1.4916,0.0,0.0,0.0,-1.8713,-1.9177,-1.9281,-1.9281,-1.9207,-1.9184,-1.9184,-1.9281,-1.9184,-1.9087,-1.9026,-1.8974,-1.8959,-1.8921,-1.8602,-1.8433,-1.8433,-1.8212,-1.8108,-1.8108,-1.8028,-1.8028,-1.8108,-1.8831,-1.9184,-1.9273,-1.902,-1.902,-1.9109,-1.8655,-1.8669,-1.8822,-1.8592,-1.8669,-1.8822,-1.8592,-1.85,-1.8556,-1.8728,-1.8918,-1.9197,-1.9583,-2.0227,-2.0781,-2.0986,-2.1328,-2.1492,-2.1229,-2.1554,-2.1779,-2.1458,-2.1636,-2.1955,-2.2282,-2.2049,-2.1813,-2.1623,-2.1623,-2.1623,-2.1623,-2.1623,-2.167,-2.1813,-2.1931,-2.2314,-2.3024,-2.2849,-2.282,-2.3039,-2.2862,-2.2681,-2.2401,-2.2166,-2.1724,-2.1066,-2.1066,-2.0827,-2.0393,-2.0168,-2.0049]},{"header":{"parameterUnit":"m.s-1","parameterCategory":1,"la1":30.6,"la2":29.2853,"lo1":-89.7004,"lo2":-87.6739,"dy":0.0162,"dx":0.0183,"nx":112,"ny":82,"refTime":"2024-07-20T18:00:00:Z","depth":0,"parameterNumber":3,"parameterNumberName":"V-component_of_WINDS"},"data":[0.0,0.0,0.0,0.0,0.0,0.0,0.0,0.0,0.0,0.0,0.0,0.0,0.0,0.0,0.0,0.0,0.0,0.0,0.0,0.0,0.0,0.0,0.0,0.0,0.0,0.0,0.0,0.0,0.0,0.0,0.0,0.0,0.0,0.0,0.0,0.0,0.0,0.0,0.0,0.0,0.0,0.0,0.0,0.0,0.0,0.0,0.0,0.0,0.0,0.0,0.0,0.0,0.0,0.0,0.0,0.0,0.0,0.0,0.0,0.0,0.0,0.0,0.0,0.0,0.0,0.0,0.0,0.0,0.0,0.0,0.0,0.0,0.0,0.0,0.0,0.0,0.0,0.0,0.0,0.0,0.0,0.0,0.0,0.0,0.0,0.0,0.0,0.0,0.0,0.0,-0.3086,-0.3778,-0.4222,-0.4956,-0.61,-0.5859,-0.5858,-0.6373,0.0,0.0,0.0,0.0,0.0,0.0,0.0,0.0,0.0,0.0,0.0,0.0,0.0,0.0,0.0,0.0,0.0,0.0,0.0,0.0,0.0,0.0,0.0,0.0,0.0,0.0,0.0,0.0,0.0,0.0,0.0,0.0,0.0,0.0,0.0,0.0,0.0,0.0,0.0,0.0,0.0,0.0,0.0,0.0,0.0,0.0,0.0,0.0,0.0,0.0,0.0,0.0,0.0,0.0,0.0,0.0,0.0,0.0,0.0,0.0,0.0,0.0,0.0,0.0,0.0,0.0,0.0,0.0,0.0,0.0,0.0,0.0,0.0,0.0,0.0,0.0,0.0,0.0,0.0,0.0,0.0,0.0,0.0,0.0,0.0,0.0,0.0,0.0,0.0,0.0,0.0,0.0,0.0,0.0,0.0,0.0,0.0,0.0,0.0,0.0,0.0,0.0,0.0,0.0,-0.3281,-0.4033,-0.4348,-0.4956,-0.61,-0.5539,-0.5484,-0.6349,0.0,0.0,0.0,0.0,0.0,0.0,0.0,0.0,0.0,0.0,0.0,0.0,0.0,0.0,0.0,0.0,0.0,0.0,0.0,0.0,0.0,0.0,0.0,0.0,0.0,0.0,0.0,0.0,0.0,0.0,0.0,0.0,0.0,0.0,0.0,0.0,0.0,0.0,0.0,0.0,0.0,0.0,0.0,0.0,0.0,0.0,0.0,0.0,0.0,0.0,0.0,0.0,0.0,0.0,0.0,0.0,0.0,0.0,0.0,0.0,0.0,0.0,0.0,0.0,0.0,0.0,0.0,0.0,0.0,0.0,0.0,0.0,0.0,0.0,0.0,0.0,0.0,0.0,0.0,0.0,0.0,0.0,0.0,0.0,0.0,0.0,0.0,0.0,0.0,0.0,0.0,0.0,0.0,0.0,0.0,0.0,0.0,0.0,0.0,0.0,0.0,0.0,0.0,-0.3189,-0.3623,-0.3948,-0.4209,-0.4733,-0.578,-0.5408,-0.541,-0.6127,-0.5432,0.0,0.0,0.0,0.0,0.0,0.0,0.0,0.0,0.0,0.0,0.0,0.0,0.0,0.0,0.0,0.0,0.0,0.0,0.0,0.0,0.0,0.0,0.0,0.0,0.0,0.0,0.0,0.0,0.0,0.0,0.0,0.0,0.0,0.0,0.0,0.0,0.0,0.0,0.0,0.0,0.0,0.0,0.0,0.0,0.0,0.0,0.0,0.0,0.0,0.0,0.0,0.0,0.0,0.0,0.0,0.0,0.0,0.0,0.0,0.0,0.0,0.0,0.0,0.0,0.0,0.0,0.0,0.0,0.0,0.0,0.0,0.0,0.0,0.0,0.0,0.0,0.0,0.0,0.0,0.0,0.0,0.0,0.0,0.0,0.0,0.0,0.0,0.0,0.0,0.0,0.0,0.0,0.0,0.0,0.0,0.0,0.0,0.0,0.0,0.0,0.0,0.0,-0.3521,-0.3862,-0.3829,-0.4153,-0.4652,-0.555,-0.5357,-0.5366,-0.5891,-0.5092,0.0,0.0,0.0,0.0,0.0,0.0,0.0,0.0,0.0,0.0,0.0,0.0,0.0,0.0,0.0,0.0,0.0,0.0,0.0,0.0,0.0,0.0,0.0,0.0,0.0,0.0,0.0,0.0,0.0,0.0,0.0,0.0,0.0,0.0,0.0,0.0,0.0,0.0,0.0,0.0,0.0,0.0,0.0,0.0,0.0,0.0,0.0,0.0,0.0,0.0,0.0,0.0,0.0,0.0,0.0,0.0,0.0,0.0,0.0,0.0,0.0,0.0,0.0,0.0,0.0,0.0,0.0,0.0,0.0,0.0,0.0,0.0,0.0,0.0,0.0,0.0,0.0,0.0,0.0,0.0,0.0,0.0,0.0,0.0,0.0,0.0,0.0,0.0,0.0,0.0,0.0,0.0,0.0,0.0,0.0,0.0,0.0,0.0,0.0,0.0,0.0,0.0,-0.3422,-0.3832,-0.3988,-0.4412,-0.4911,-0.5541,-0.5311,-0.5254,-0.5607,-0.4636,0.0,0.0,0.0,0.0,0.0,0.0,0.0,0.0,0.0,0.0,0.0,0.0,0.0,0.0,0.0,0.0,0.0,0.0,0.0,0.0,0.0,0.0,0.0,0.0,0.0,0.0,0.0,0.0,0.0,0.0,0.0,0.0,0.0,0.0,0.0,0.0,0.0,0.0,0.0,0.0,0.0,0.0,0.0,0.0,0.0,0.0,0.0,0.0,0.0,0.0,0.0,0.0,0.0,0.0,0.0,0.0,0.0,0.0,0.0,0.0,0.0,0.0,0.0,0.0,0.0,0.0,0.0,0.0,0.0,0.0,0.0,0.0,0.0,0.0,0.0,0.0,0.0,0.0,0.0,0.0,0.0,0.0,0.0,0.0,0.0,0.0,0.0,0.0,0.0,0.0,0.0,0.0,0.0,0.0,0.0,0.0,0.0,0.0,0.0,0.0,0.0,0.0,-0.34,-0.3748,0.0,-0.3964,-0.4447,-0.5161,-0.5116,-0.5141,-0.5353,0.0,0.0,0.0,0.0,0.0,0.0,0.0,0.0,0.0,0.0,0.0,0.0,0.0,0.0,0.0,0.0,0.0,0.0,0.0,0.0,0.0,0.0,0.0,0.0,0.0,0.0,0.0,0.0,0.0,0.0,0.0,0.0,0.0,0.0,0.0,0.0,0.0,0.0,0.0,0.0,0.0,0.0,0.0,0.0,0.0,0.0,0.0,0.0,0.0,0.0,0.0,0.0,0.0,0.0,0.0,0.0,0.0,0.0,0.0,0.0,0.0,0.0,0.0,0.0,0.0,0.0,0.0,0.0,0.0,0.0,0.0,0.0,0.0,0.0,0.0,0.0,0.0,0.0,0.0,0.0,0.0,0.0,0.0,0.0,0.0,0.0,0.0,0.0,0.0,0.0,0.0,0.0,0.0,0.0,0.0,0.0,0.0,0.0,0.0,0.0,0.0,0.0,-0.2961,-0.3331,-0.3531,0.0,-0.384,-0.4266,-0.4845,-0.4949,-0.4966,-0.5008,0.0,0.0,0.0,0.0,0.0,0.0,0.0,0.0,0.0,0.0,0.0,0.0,0.0,0.0,0.0,0.0,0.0,0.0,0.0,0.0,0.0,0.0,0.0,0.0,0.0,0.0,0.0,0.0,0.0,0.0,0.0,0.0,0.0,0.0,0.0,0.0,0.0,0.0,0.0,0.0,0.0,0.0,0.0,0.0,0.0,0.0,0.0,0.0,0.0,0.0,0.0,0.0,0.0,0.0,0.0,0.0,0.0,0.0,0.0,0.0,0.0,0.0,0.0,0.0,0.0,0.0,0.0,0.0,0.0,0.0,0.0,0.0,0.0,0.0,0.0,0.0,0.0,0.0,0.0,0.0,0.0,0.0,0.0,0.0,0.0,0.0,0.0,0.0,0.0,0.0,0.0,0.0,0.0,0.0,0.0,0.0,0.0,0.0,0.0,0.0,0.0,0.0,-0.2961,-0.3104,-0.3236,-0.3382,-0.4092,-0.4574,-0.4618,-0.4788,-0.4819,0.0,0.0,0.0,0.0,0.0,0.0,0.0,0.0,0.0,0.0,0.0,0.0,0.0,0.0,0.0,0.0,0.0,0.0,0.0,0.0,0.0,0.0,0.0,0.0,0.0,0.0,0.0,0.0,0.0,0.0,0.0,0.0,0.0,0.0,0.0,0.0,0.0,0.0,0.0,0.0,0.0,0.0,0.0,0.0,0.0,0.0,0.0,0.0,0.0,0.0,0.0,0.0,0.0,0.0,0.0,0.0,0.0,0.0,0.0,0.0,0.0,0.0,0.0,0.0,0.0,0.0,0.0,0.0,0.0,0.0,0.0,0.0,0.0,0.0,0.0,0.0,0.0,0.0,0.0,0.0,0.0,0.0,0.0,0.0,0.0,0.0,0.0,0.0,0.0,0.0,0.0,0.0,0.0,0.0,0.0,0.0,0.0,0.0,0.0,0.0,0.0,0.0,0.0,-0.2874,-0.2987,-0.3104,-0.3246,-0.3788,-0.4228,-0.4574,-0.4827,-0.4856,-0.4604,0.0,0.0,0.0,0.0,0.0,0.0,0.0,0.0,0.0,0.0,0.0,0.0,0.0,0.0,0.0,0.0,0.0,0.0,0.0,0.0,0.0,0.0,0.0,0.0,0.0,0.0,0.0,0.0,0.0,0.0,0.0,0.0,0.0,0.0,0.0,0.0,0.0,0.0,0.0,0.0,0.0,0.0,0.0,0.0,0.0,0.0,0.0,0.0,0.0,0.0,0.0,0.0,0.0,0.0,0.0,0.0,0.0,0.0,0.0,0.0,0.0,0.0,0.0,0.0,0.0,0.0,0.0,0.0,0.0,0.0,0.0,0.0,0.0,0.0,0.0,0.0,0.0,0.0,0.0,0.0,0.0,0.0,0.0,0.0,0.0,0.0,0.0,0.0,0.0,0.0,0.0,0.0,0.0,0.0,0.0,0.0,0.0,0.0,0.0,0.0,0.0,0.0,-0.2943,-0.2952,-0.298,-0.3111,-0.3524,-0.3965,-0.4443,-0.4693,-0.4775,-0.466,0.0,0.0,0.0,0.0,0.0,0.0,0.0,0.0,0.0,0.0,0.0,0.0,0.0,0.0,0.0,0.0,0.0,0.0,0.0,0.0,0.0,0.0,0.0,0.0,0.0,0.0,0.0,0.0,0.0,0.0,0.0,0.0,0.0,0.0,0.0,0.0,0.0,0.0,0.0,0.0,0.0,0.0,0.0,0.0,0.0,0.0,0.0,0.0,0.0,0.0,0.0,0.0,0.0,0.0,0.0,0.0,0.0,0.0,0.0,0.0,0.0,0.0,0.0,0.0,0.0,0.0,0.0,0.0,0.0,0.0,0.0,0.0,0.0,0.0,0.0,0.0,0.0,0.0,0.0,0.0,0.0,0.0,0.0,0.0,0.0,0.0,0.0,0.0,0.0,0.0,0.0,0.0,0.0,0.0,0.0,0.0,0.0,0.0,0.0,0.0,0.0,0.0,-0.3089,-0.2965,-0.2856,-0.2976,-0.3388,-0.3829,-0.4276,-0.4526,-0.4685,-0.4728,0.0,0.0,0.0,0.0,0.0,0.0,0.0,0.0,0.0,0.0,0.0,0.0,0.0,0.0,0.0,0.0,0.0,0.0,0.0,0.0,0.0,0.0,0.0,0.0,0.0,0.0,0.0,0.0,0.0,0.0,0.0,0.0,0.0,0.0,0.0,0.0,0.0,0.0,0.0,0.0,0.0,0.0,0.0,0.0,0.0,0.0,0.0,0.0,0.0,0.0,0.0,0.0,0.0,0.0,0.0,0.0,0.0,0.0,0.0,0.0,-0.0295,0.0,0.0,0.0,0.0,0.0,0.0,0.0,0.0,0.0,0.0,0.0,0.0,0.0,0.0,0.0,0.0,0.0,0.0,0.0,0.0,0.0,0.0,0.0,0.0,0.0,0.0,0.0,0.0,0.0,0.0,0.0,0.0,0.0,0.0,0.0,0.0,0.0,0.0,0.0,0.0,0.0,-0.3024,-0.2871,-0.2774,-0.2896,-0.3656,-0.4184,-0.4272,-0.4819,-0.5105,-0.4942,-0.4247,0.0,0.0,0.0,0.0,0.0,0.0,0.0,0.0,0.0,0.0,0.0,0.0,0.0,0.0,0.0,0.0,0.0,0.0,0.0,0.0,0.0,0.0,0.0,0.0,0.0,0.0,0.0,0.0,0.0,0.0,0.0,0.0,0.0,0.0,0.0,0.0,0.0,0.0,0.0,0.0,0.0,0.0,0.0,0.0,0.0,0.0,0.0,0.0,0.0,0.0,0.0,0.0,0.0,0.0,0.0,0.0,0.0,0.0,0.0,0.0,-0.0706,0.0,0.0,0.0,0.0,0.0,0.0,0.0,0.0,0.0,0.0,0.0,0.0,0.0,0.0,0.0,0.0,0.0,0.0,0.0,0.0,0.0,0.0,0.0,0.0,0.0,0.0,0.0,0.0,0.0,0.0,0.0,0.0,0.0,0.0,0.0,0.0,0.0,0.0,0.0,0.0,-0.2976,-0.2905,-0.284,-0.2904,-0.3353,-0.3792,-0.4276,-0.4615,-0.4922,-0.5141,-0.4708,0.0,0.0,0.0,0.0,0.0,0.0,0.0,0.0,0.0,0.0,0.0,0.0,0.0,0.0,0.0,0.0,0.0,0.0,0.0,0.0,0.0,0.0,0.0,0.0,0.0,0.0,0.0,0.0,0.0,0.0,0.0,0.0,0.0,0.0,0.0,0.0,0.0,0.0,0.0,0.0,0.0,0.0,0.0,0.0,0.0,0.0,0.0,0.0,0.0,0.0,0.0,0.0,0.0,-0.0566,-0.0425,-0.0701,-0.0421,-0.0239,-0.0196,-0.055,-0.0729,-0.0755,-0.1485,0.0,0.0,0.0,0.0,0.0,0.0,0.0,0.0,0.0,0.0,0.0,0.0,0.0,0.0,0.0,0.0,0.0,0.0,0.0,0.0,0.0,0.0,0.0,0.0,-0.0891,-0.0827,0.0,0.0,0.0,0.0,0.0,0.0,0.0,0.0,0.0,0.0,0.0,0.0,-0.2991,-0.2967,-0.2912,-0.2912,-0.3046,-0.3439,-0.4228,-0.4451,-0.4767,-0.5343,-0.5152,-0.4795,0.0,0.0,0.0,0.0,0.0,0.0,0.0,0.0,0.0,0.0,0.0,0.0,0.0,0.0,0.0,0.0,0.0,0.0,0.0,0.0,0.0,0.0,0.0,0.0,0.0,0.0,0.0,0.0,0.0,0.0,0.0,0.0,-0.0558,-0.0506,0.0,0.0,0.0,0.0,0.0,0.0,0.0,0.0,0.0,0.0,0.0,0.0,0.0,-0.114,-0.0844,-0.0769,-0.0636,-0.0491,-0.0338,-0.0281,-0.0437,-0.0382,-0.0383,-0.0385,-0.0436,0.0,-0.0713,-0.0935,0.0,0.0,0.0,0.0,0.0,0.0,0.0,0.0,0.0,0.0,0.0,0.0,0.0,0.0,0.0,0.0,0.0,0.0,0.0,0.0,0.0,0.0,-0.0462,-0.1597,-0.1344,-0.1044,0.0,-0.1764,-0.1792,-0.2117,-0.2155,0.0,0.0,0.0,0.0,0.0,0.0,0.0,-0.3185,-0.3061,-0.2912,-0.2912,-0.3615,-0.4184,-0.4272,-0.5062,-0.5534,-0.5631,-0.54,-0.5217,-0.5125,-0.4405,0.0,0.0,0.0,0.0,0.0,0.0,0.0,0.0,0.0,0.0,0.0,0.0,0.0,0.0,0.0,0.0,0.0,0.0,0.0,0.0,0.0,0.0,0.0,0.0,0.0,0.0,0.0,0.0,0.0,-0.0735,-0.0696,-0.0926,-0.1037,-0.1149,0.0,0.0,0.0,0.0,0.0,0.0,0.0,0.0,0.0,-0.0813,-0.07,-0.0629,-0.0497,-0.0514,-0.0467,-0.0474,-0.0421,-0.0421,-0.0474,-0.0465,-0.0461,-0.0461,-0.0396,-0.0437,-0.0575,-0.0871,-0.1229,-0.1581,0.0,0.0,0.0,0.0,-0.2037,-0.2269,-0.1709,-0.1735,0.0,-0.184,0.0,0.0,0.0,0.0,0.0,0.0,0.0,0.0,0.0,0.0,0.0,-0.1815,-0.1658,-0.1544,-0.2139,-0.2221,-0.2251,0.0,-0.2394,-0.2432,-0.2524,0.0,0.0,0.0,0.0,-0.2802,-0.3121,-0.3073,-0.306,-0.333,-0.3705,-0.4136,-0.4661,-0.5058,-0.541,-0.568,-0.5577,-0.5394,-0.5125,-0.4919,-0.4548,0.0,0.0,0.0,0.0,0.0,0.0,0.0,0.0,0.0,0.0,0.0,0.0,0.0,0.0,0.0,0.0,0.0,0.0,0.0,0.0,0.0,0.0,0.0,0.0,0.0,0.0,0.0,0.0,-0.0835,-0.0793,-0.1162,-0.1136,-0.1128,0.0,0.0,0.0,0.0,0.0,0.0,-0.0968,-0.1039,-0.0852,-0.042,-0.0332,-0.029,-0.0362,-0.0371,-0.0437,-0.0562,-0.0562,-0.0622,-0.0617,-0.0603,-0.0656,-0.0596,-0.0582,-0.0515,-0.0567,-0.0876,-0.1057,-0.1173,-0.1434,-0.1672,-0.1903,-0.1736,-0.2053,-0.2471,-0.195,-0.2098,-0.2464,-0.2351,0.0,-0.2338,-0.2697,0.0,0.0,0.0,0.0,-0.311,-0.2666,-0.2534,-0.2435,-0.2279,-0.2125,-0.2166,-0.2657,-0.2801,-0.2796,0.0,-0.2684,-0.2724,-0.2799,0.0,0.0,0.0,0.0,-0.2959,-0.3119,-0.3069,-0.3187,-0.3512,-0.3791,-0.416,-0.4781,-0.509,-0.5379,-0.5685,-0.568,-0.556,-0.5202,-0.5274,-0.4995,-0.4378,0.0,0.0,0.0,0.0,0.0,0.0,0.0,0.0,0.0,0.0,0.0,0.0,0.0,0.0,0.0,0.0,0.0,0.0,0.0,0.0,0.0,0.0,0.0,0.0,0.0,0.0,0.0,0.0,0.0,-0.0619,-0.0849,0.0,0.0,0.0,0.0,-0.102,-0.1014,-0.0911,-0.0649,-0.0622,-0.0601,-0.0525,-0.0469,-0.0484,-0.0514,-0.0515,-0.058,-0.0773,-0.0773,-0.0826,-0.0988,-0.0986,-0.0986,-0.0986,-0.0984,-0.0907,-0.0879,-0.0737,-0.0931,-0.127,-0.132,-0.196,-0.2759,-0.2033,-0.2163,-0.2599,-0.1983,-0.184,-0.184,-0.1838,-0.2128,-0.2509,-0.2501,-0.2919,0.0,0.0,-0.2615,-0.2711,-0.2699,-0.2282,-0.2122,-0.3246,-0.3077,-0.2792,-0.3408,-0.3624,-0.3604,0.0,-0.3155,-0.3159,-0.3166,0.0,-0.3184,-0.3173,-0.3193,-0.3203,-0.3178,-0.3202,-0.321,-0.3207,-0.414,-0.4662,-0.4451,-0.5356,-0.5866,-0.5696,-0.568,-0.5669,-0.5647,-0.5256,-0.5099,-0.5318,-0.4466,0.0,0.0,0.0,0.0,0.0,0.0,0.0,0.0,0.0,0.0,0.0,0.0,0.0,0.0,0.0,0.0,0.0,0.0,0.0,0.0,0.0,0.0,0.0,0.0,0.0,0.0,0.0,0.0,-0.1036,-0.1076,0.0,-0.1113,-0.1211,-0.1174,-0.0953,-0.0916,-0.0894,-0.078,-0.0735,-0.0697,-0.0667,-0.0557,-0.0569,-0.071,-0.0724,-0.0797,-0.0994,-0.0994,-0.0989,-0.1044,-0.1026,-0.1018,-0.1016,-0.0997,-0.0982,-0.0971,-0.09,-0.0926,-0.1045,-0.0825,-0.0928,-0.1296,-0.1315,-0.1704,-0.2144,-0.2336,-0.2629,-0.2965,-0.2965,-0.3085,-0.3187,-0.3187,-0.3372,-0.3506,-0.3281,-0.3268,-0.3306,-0.3289,-0.3132,-0.3079,-0.3471,-0.3413,-0.3357,-0.3527,-0.3638,-0.3611,-0.3471,-0.3503,-0.3545,-0.334,-0.3321,-0.3318,-0.3206,-0.3271,-0.334,-0.333,-0.3335,-0.3594,-0.4261,-0.4623,-0.5025,-0.5639,-0.5878,-0.5986,-0.5906,-0.576,-0.568,-0.568,-0.556,-0.543,-0.5349,-0.5018,-0.4463,0.0,0.0,0.0,0.0,0.0,0.0,0.0,0.0,0.0,0.0,0.0,0.0,0.0,0.0,0.0,0.0,0.0,0.0,0.0,0.0,0.0,0.0,0.0,0.0,0.0,0.0,-0.0488,-0.1251,-0.1143,-0.107,-0.1097,-0.1111,-0.1028,-0.0952,-0.0955,-0.0915,-0.0956,-0.0839,-0.0851,-0.0877,-0.0767,-0.0714,-0.0917,-0.0934,-0.0942,-0.1076,-0.1076,-0.1076,-0.1075,-0.1057,-0.1048,-0.1046,-0.1027,-0.1012,-0.1003,-0.1003,-0.0973,-0.0927,-0.063,-0.0566,-0.0785,-0.1233,-0.168,-0.2179,-0.2794,-0.3244,-0.3585,-0.3585,-0.3585,-0.3585,-0.3585,-0.3585,-0.3585,-0.3585,-0.3585,-0.3585,-0.3585,-0.3585,-0.3585,-0.3585,-0.3585,-0.3585,-0.3585,-0.3585,-0.3585,-0.3585,-0.3691,-0.3692,-0.3475,-0.3464,-0.3462,-0.3349,-0.3412,-0.3463,-0.3463,-0.3463,-0.3729,-0.4474,-0.4796,-0.5217,-0.5862,-0.6043,-0.611,-0.6024,-0.5803,-0.568,-0.568,-0.5641,-0.5555,-0.5468,-0.5265,-0.4614,-0.3551,0.0,0.0,0.0,0.0,0.0,0.0,0.0,0.0,0.0,0.0,0.0,0.0,0.0,0.0,0.0,0.0,0.0,0.0,0.0,0.0,0.0,0.0,0.0,-0.0126,-0.0094,-0.0303,-0.1063,-0.1023,-0.0898,-0.0899,-0.0926,-0.0956,-0.0986,-0.0988,-0.0988,-0.099,-0.099,-0.1003,-0.1034,-0.1035,-0.1048,-0.1075,-0.1076,-0.1076,-0.1076,-0.1076,-0.1076,-0.1076,-0.1076,-0.1076,-0.1076,-0.1076,-0.106,-0.1035,-0.1035,-0.1017,-0.0986,-0.0777,-0.0926,-0.1348,-0.1796,-0.2294,-0.2792,-0.3357,-0.3583,-0.3585,-0.3585,-0.3585,-0.3585,-0.3585,-0.3585,-0.3585,-0.3585,-0.3585,-0.3585,-0.3585,-0.3585,-0.3585,-0.3585,-0.3585,-0.3585,-0.3585,-0.3585,-0.3585,-0.3585,-0.3585,-0.3585,-0.3585,-0.3585,-0.3585,-0.3585,-0.3585,0.0,-0.3585,-0.3585,-0.3641,-0.3638,-0.4625,-0.5213,-0.51,-0.5877,-0.6293,-0.6046,-0.5809,-0.568,-0.569,-0.5506,-0.552,-0.5798,-0.5137,-0.4199,-0.2992,0.0,0.0,0.0,0.0,0.0,0.0,0.0,0.0,0.0,0.0,0.0,0.0,0.0,0.0,0.0,0.0,0.0,0.0,0.0,0.0,0.0,0.1463,0.1535,0.0575,0.0354,0.0106,-0.0435,-0.0721,-0.0906,-0.0928,-0.0879,-0.0956,-0.0986,-0.0988,-0.0998,-0.102,-0.1021,-0.1034,-0.1063,-0.1064,-0.1068,-0.1076,-0.1076,-0.1076,-0.1076,-0.1076,-0.1076,-0.1076,-0.1076,-0.1076,-0.1076,-0.1076,-0.1071,-0.1064,-0.1064,-0.1047,-0.1018,-0.0926,-0.0897,-0.093,-0.1392,-0.2053,-0.2736,-0.2905,-0.3244,-0.3585,-0.3585,-0.3585,-0.3585,-0.3585,-0.3585,-0.3585,-0.3585,-0.3585,-0.3585,-0.3585,-0.3585,-0.3585,-0.3585,-0.3585,-0.3585,-0.3585,-0.3585,-0.3585,-0.3585,-0.3585,-0.3585,-0.3585,-0.3585,-0.3585,-0.3585,-0.3585,0.0,-0.3585,-0.3585,-0.3913,-0.4732,-0.5117,-0.5642,-0.6455,-0.647,-0.6363,-0.6299,-0.5906,-0.5755,-0.5922,-0.5863,-0.5857,-0.5967,-0.4946,-0.4519,0.0,0.0,0.0,0.0,0.0,0.0,0.0,0.0,0.0,0.0,0.0,0.0,0.0,0.0,0.0,0.0,0.0,0.0,0.0,0.0,0.0,0.0,0.21,0.2225,0.1418,0.0911,0.0329,-0.0392,-0.0738,-0.0928,-0.0959,-0.0913,-0.0993,-0.1022,-0.1025,-0.1038,-0.1069,-0.107,-0.1078,-0.1094,-0.1107,-0.1108,-0.1095,-0.1108,-0.1114,-0.1114,-0.1114,-0.1107,-0.1095,-0.1095,-0.1088,0.0,-0.1076,-0.1076,-0.1076,-0.1076,-0.1066,0.0,0.0,0.0,0.0,0.0,-0.1777,-0.2443,-0.235,-0.274,-0.3246,-0.3203,-0.3413,-0.3585,-0.3585,-0.3585,-0.3585,-0.3585,-0.3585,-0.3585,-0.3585,-0.3585,-0.3585,-0.3585,-0.3585,-0.3585,-0.3585,-0.3585,-0.3585,-0.3585,-0.3585,0.0,-0.3585,-0.3585,-0.3585,-0.3585,-0.3585,-0.3585,-0.3585,-0.3585,-0.3858,-0.4515,-0.4791,-0.5226,-0.5937,-0.6123,0.0,0.0,0.0,-0.6037,-0.607,-0.6214,0.0,0.0,0.0,0.0,0.0,0.0,0.0,0.0,-0.4952,-0.5651,0.0,0.0,0.0,0.0,0.0,0.0,0.0,0.0,0.0,0.0,0.0,0.0,0.0,0.0,0.0,0.0,0.2609,0.2808,0.223,0.151,0.0559,-0.0561,-0.0751,-0.0835,-0.0924,-0.0952,-0.0981,-0.1078,-0.1081,-0.1094,-0.1125,0.0,0.0,0.0,0.0,-0.1153,-0.1126,-0.1153,-0.1166,-0.1166,-0.1166,-0.1151,-0.1121,-0.1121,-0.1104,-0.1076,-0.1076,-0.1076,-0.1076,-0.1076,-0.1076,-0.1073,-0.1044,-0.089,-0.0806,-0.1049,-0.1478,-0.1965,-0.179,0.0,0.0,-0.2721,-0.3084,-0.3585,-0.3585,-0.3585,-0.3585,-0.3585,-0.3585,-0.3585,-0.3585,-0.3585,-0.3585,-0.3585,-0.3585,-0.3585,-0.3585,-0.3585,-0.3585,-0.3585,-0.3585,-0.3585,-0.3585,-0.3585,-0.3585,-0.3585,-0.3585,-0.3585,-0.3585,-0.3585,-0.3638,-0.3694,0.0,0.0,-0.457,-0.5337,-0.5596,-0.5024,-0.5841,-0.6336,-0.6261,-0.6385,-0.6149,-0.5541,-0.5552,-0.5151,-0.4328,-0.5426,-0.564,-0.5052,-0.5499,-0.6152,0.0,0.0,0.0,0.0,0.0,0.0,0.0,0.0,0.0,0.0,0.0,0.0,0.0,0.0,0.0,0.2393,0.2812,0.283,0.2125,0.1734,0.1286,0.0785,0.0058,-0.0418,-0.0431,-0.0698,-0.0923,-0.1108,-0.0973,-0.0985,-0.1156,-0.1157,-0.1157,-0.1157,-0.1164,-0.1164,-0.1157,-0.1164,-0.1166,-0.1166,0.0,0.0,-0.1121,-0.1121,-0.1104,-0.1076,-0.1076,-0.1076,-0.1076,-0.1076,-0.1076,-0.1073,-0.1044,-0.0901,-0.0766,-0.0685,-0.0925,-0.1353,-0.1161,-0.1799,-0.2696,-0.2679,-0.3085,-0.3585,-0.3585,-0.3585,0.0,-0.3585,-0.3585,-0.3585,-0.3585,-0.3585,-0.3585,-0.3585,-0.3585,-0.3585,-0.3585,-0.3585,-0.3585,-0.3585,-0.3585,-0.3585,-0.3585,-0.3585,-0.3585,-0.3585,-0.3585,-0.3585,-0.3585,-0.3585,-0.3805,-0.4298,-0.4408,-0.468,-0.5117,-0.5173,-0.5128,-0.5024,-0.5611,-0.6192,-0.66,-0.593,-0.5624,-0.5839,-0.5092,-0.5006,-0.5538,-0.5942,-0.6343,-0.6675,-0.6753,-0.6923,0.0,0.0,0.0,0.0,0.0,0.0,0.0,0.0,0.0,0.0,0.0,0.1869,0.2319,0.0,0.2509,0.2761,0.2877,0.2742,0.2408,0.2071,0.1567,0.0561,0.0234,-0.0121,-0.0617,-0.0578,-0.0671,-0.1047,-0.0911,-0.0927,-0.1187,-0.104,-0.0966,-0.104,-0.1053,-0.0979,-0.0892,-0.1129,-0.1212,-0.106,-0.1212,-0.1196,-0.1166,-0.1166,-0.115,-0.1121,-0.1105,-0.1098,-0.1097,-0.1082,-0.1009,-0.0941,-0.0929,-0.0923,-0.0921,-0.0584,-0.0645,-0.0835,-0.0561,-0.1219,-0.2274,-0.2259,-0.2834,-0.3585,-0.3585,-0.3585,-0.3585,-0.3585,-0.3585,-0.3585,-0.3585,-0.3585,-0.3585,-0.3585,-0.3585,-0.3585,-0.3585,-0.3585,-0.3585,-0.3585,-0.3585,-0.3585,-0.3585,-0.3585,-0.3585,-0.3585,-0.3585,-0.3585,-0.3585,-0.3585,-0.3694,-0.4024,-0.4024,-0.4132,-0.4408,-0.4341,-0.4567,-0.5099,-0.5419,-0.5739,-0.6,-0.6152,-0.6161,-0.6062,-0.5291,-0.5291,-0.6057,-0.5833,-0.6046,-0.6647,-0.6972,-0.7132,0.0,0.0,0.0,0.0,0.0,0.0,0.0,0.0,0.1928,0.2169,0.2362,0.2654,0.3026,0.2953,0.2875,0.3174,0.3039,0.2884,0.2828,0.2601,0.1864,0.034,0.0417,0.0308,-0.0494,-0.0325,-0.0409,-0.0845,-0.0777,-0.0795,-0.1065,-0.0763,-0.0686,-0.0839,-0.0855,-0.0778,-0.061,-0.1011,-0.1021,-0.0864,-0.11,-0.1164,-0.1136,-0.1136,-0.112,-0.1165,-0.1134,-0.1051,-0.0979,-0.0953,-0.0875,-0.0742,-0.0742,-0.0808,-0.0942,-0.0606,-0.0472,-0.0469,-0.0255,-0.0937,-0.1848,-0.199,-0.2752,-0.3648,-0.3623,-0.3615,-0.3613,-0.3591,-0.3585,-0.3585,-0.3585,-0.3585,-0.3585,-0.3585,-0.3585,-0.3585,-0.3585,-0.3585,-0.3585,-0.3585,-0.3585,-0.3585,-0.3585,-0.3585,-0.3585,-0.3585,-0.3585,-0.3585,-0.3585,-0.3585,-0.3585,-0.3585,-0.3585,-0.3585,-0.3585,-0.3585,-0.4024,-0.5062,-0.5171,-0.5171,-0.5277,-0.6154,-0.6431,-0.6046,-0.5445,-0.55,-0.6209,-0.5714,-0.5769,-0.6372,-0.6864,-0.7198,0.2211,0.2304,0.2789,0.3786,0.3567,0.3226,0.0,0.0,0.2511,0.2925,0.3023,0.3142,0.3448,0.3508,0.3514,0.3527,0.3613,0.3561,0.3273,0.3215,0.2747,0.1637,0.1267,0.1046,0.0985,0.052,0.0137,-0.0072,-0.029,-0.0445,-0.0624,-0.0626,-0.0626,-0.0626,-0.0628,-0.0628,-0.0626,-0.0628,-0.0629,-0.0628,-0.0629,-0.0775,-0.0909,-0.0757,-0.0896,-0.1165,-0.0992,-0.077,-0.0559,-0.0545,-0.0539,-0.0539,-0.0539,-0.0539,-0.0539,-0.0404,-0.0337,-0.0404,-0.0802,-0.1439,-0.2107,-0.2668,-0.3299,-0.3876,-0.3767,-0.3793,-0.3771,-0.3613,-0.3585,-0.3585,-0.3585,-0.3585,-0.3585,-0.3585,-0.3585,-0.3585,-0.3585,-0.3585,-0.3585,-0.3585,-0.3585,-0.3585,-0.3585,-0.3585,-0.3585,-0.3585,-0.3585,-0.3585,-0.3585,-0.3585,-0.3585,-0.3585,-0.3585,-0.3585,-0.3585,-0.3585,-0.386,-0.4574,-0.457,-0.4787,-0.5277,-0.4956,-0.5007,-0.5386,-0.4846,-0.5117,-0.6209,-0.6154,-0.6426,-0.7025,-0.7085,-0.7198,0.2804,0.3227,0.3834,0.4539,0.4475,0.4222,0.403,0.3565,0.3159,0.3099,0.3244,0.3413,0.3583,0.3413,0.3378,0.0,0.349,0.3367,0.3612,0.3328,0.2936,0.2644,0.2416,0.1784,0.0617,0.0585,0.0344,-0.029,-0.0291,-0.0373,-0.0627,-0.0393,-0.0314,-0.0393,-0.0393,-0.0393,-0.0236,-0.0471,-0.055,-0.0393,-0.055,-0.0625,-0.0696,-0.0619,-0.0687,-0.0819,-0.0798,-0.064,-0.0489,-0.0477,-0.0472,-0.0404,-0.0404,-0.0337,-0.0202,-0.027,-0.027,-0.0336,-0.0397,-0.0846,-0.1475,-0.2208,-0.2799,-0.3362,-0.373,-0.3812,-0.3787,-0.3615,-0.3585,-0.3585,-0.3585,-0.3585,-0.3585,-0.3585,-0.3585,-0.3585,-0.3585,-0.3585,-0.3585,-0.3585,-0.3585,-0.3585,-0.3585,-0.3585,-0.3585,-0.3585,-0.3585,-0.3585,-0.3585,-0.3585,-0.3585,-0.3585,-0.3585,-0.3585,-0.3585,-0.3585,-0.3694,-0.3968,-0.4298,-0.4463,-0.4298,-0.4736,-0.4897,-0.4846,-0.4625,-0.5062,-0.6209,-0.5555,-0.5882,-0.7085,-0.6756,-0.681,0.3345,0.3906,0.447,0.5047,0.5151,0.4931,0.4396,0.4031,0.3735,0.3337,0.3413,0.3585,0.3585,0.3413,0.3324,0.3691,0.3409,0.3356,0.3861,0.3498,0.3221,0.3373,0.3234,0.247,0.0873,0.0915,0.0688,-0.0218,-0.0219,-0.0298,-0.0392,-0.0157,-0.0079,-0.0236,-0.0236,-0.0157,0.0,-0.0314,-0.0393,-0.0236,-0.0393,-0.0471,-0.055,-0.055,-0.0545,-0.0458,-0.0521,-0.0435,-0.0353,-0.0345,-0.0272,-0.0202,-0.0202,-0.0135,0.0,-0.0135,-0.0202,-0.0202,-0.0263,-0.0718,-0.1362,-0.2096,-0.2776,-0.3386,-0.3769,-0.3854,-0.3825,-0.3672,-0.3632,-0.3623,-0.3593,-0.3585,-0.3585,-0.3585,-0.3585,-0.3585,-0.3585,-0.3585,-0.3585,-0.3585,-0.3585,-0.3585,-0.3585,-0.3585,-0.3585,-0.3585,-0.3585,-0.3585,-0.3585,-0.3585,-0.3585,-0.3585,-0.3585,-0.3585,-0.3585,-0.3585,-0.3585,-0.3585,-0.4024,-0.4079,-0.3641,-0.4405,-0.4736,-0.4519,-0.4353,-0.4791,-0.5937,-0.4956,-0.5336,-0.6864,-0.6426,-0.6534,0.3705,0.3941,0.4345,0.5245,0.5393,0.5217,0.4965,0.4505,0.4067,0.3694,0.3583,0.3585,0.3585,0.3583,0.3585,0.3588,0.3781,0.387,0.3872,0.387,0.3848,0.3705,0.3506,0.3177,0.2562,0.1915,0.1238,0.0508,0.0146,0.0,0.0,0.0,0.0,0.0,0.0,0.0,0.0,0.0,0.0,0.0,0.0,-0.0157,-0.0314,-0.055,-0.0393,0.0,-0.0229,-0.0224,0.0,0.0,0.0,0.0,0.0,0.0,0.0,0.0,0.0,-0.0135,-0.0807,-0.1476,-0.221,-0.2943,-0.368,-0.4265,-0.4145,-0.4107,-0.4056,-0.3876,-0.3807,-0.3779,-0.3613,-0.3585,-0.3585,-0.3585,-0.3585,-0.3585,-0.3585,-0.3585,-0.3585,-0.3585,-0.3585,-0.3585,-0.3585,-0.3585,-0.3585,-0.3585,-0.3585,-0.3585,-0.3585,-0.3585,-0.3585,-0.3585,-0.3585,-0.3585,-0.3585,-0.3585,-0.3585,-0.3585,-0.3641,-0.3641,-0.3585,-0.3638,-0.3913,-0.4463,-0.3913,-0.4187,-0.5332,-0.4791,-0.5117,-0.6209,-0.6209,-0.6534,0.4143,0.4582,0.5166,0.5636,0.5806,0.5815,0.5441,0.5011,0.4512,0.4073,0.3802,0.3585,0.3585,0.3585,0.3607,0.374,0.383,0.3902,0.4045,0.4056,0.4006,0.3982,0.389,0.3656,0.3033,0.2603,0.0,0.174,0.1092,0.0745,0.086,0.0314,0.0,0.0,0.0,0.0,0.0,0.0,0.0,0.0,0.0,0.0,-0.0079,-0.0157,-0.0157,0.0,-0.0075,-0.0073,0.0,0.0,0.0,0.0,0.0,0.0,0.0,0.0,0.0,-0.0135,-0.0875,-0.1277,-0.1612,-0.2815,-0.3351,-0.3604,-0.4022,-0.4118,-0.4066,-0.3881,-0.3812,-0.3785,-0.3613,-0.3585,-0.3585,-0.3585,-0.3585,-0.3585,-0.3585,-0.3585,-0.3585,-0.3585,-0.3585,-0.3585,-0.3585,-0.3585,-0.3585,-0.3585,-0.3585,-0.3585,-0.3585,-0.3585,-0.3585,-0.3585,-0.3585,-0.3585,-0.3585,-0.3585,-0.3585,-0.3585,-0.3585,-0.3585,-0.3585,-0.3585,-0.3694,-0.3913,-0.3694,-0.3968,-0.4791,-0.419,-0.4515,-0.5605,-0.5226,-0.5609,0.4743,0.5162,0.5625,0.5901,0.6128,0.6119,0.5677,0.5344,0.4941,0.428,0.3951,0.3739,0.3572,0.352,0.3558,0.3732,0.3827,0.3902,0.4042,0.4088,0.4148,0.4232,0.4208,0.4045,0.3783,0.3522,0.0,0.2426,0.1918,0.1652,0.172,0.0941,0.0471,0.0471,0.0157,0.0,0.0,0.0,0.0,0.0,0.0,0.0,0.0,0.0,0.0,0.0,0.0,0.0,0.0,0.0,0.0,0.0,0.0,0.0,0.0,0.0,0.0,-0.0135,-0.0875,-0.1276,-0.1679,-0.2815,-0.3351,-0.3678,-0.4072,-0.4183,-0.4132,-0.3887,-0.3816,-0.3781,-0.3626,-0.3585,-0.3585,-0.3585,-0.3585,-0.3585,-0.3585,-0.3585,-0.3585,-0.3585,-0.3585,-0.3585,-0.3585,-0.3585,-0.3585,-0.3585,-0.3585,-0.3585,-0.3585,-0.3585,-0.3585,-0.3585,-0.3585,-0.3585,-0.3585,-0.3585,-0.3585,-0.3585,-0.3585,-0.3585,-0.3585,-0.3585,-0.3585,-0.3585,-0.3585,-0.3805,-0.4187,-0.3805,-0.4079,-0.5007,-0.468,-0.5007,0.5514,0.5632,0.5736,0.6133,0.6178,0.6123,0.5732,0.5622,0.535,0.4379,0.4138,0.398,0.3498,0.3398,0.3439,0.3555,0.3778,0.3875,0.3883,0.4053,0.4221,0.0,0.0,0.0,0.0,0.0,0.0,0.2722,0.0,0.2592,0.2578,0.1801,0.1332,0.1332,0.0549,0.0079,0.0079,0.0,0.0,0.0,0.0,0.0,0.0,0.0,0.0,0.0,0.0,0.0,0.0,0.0,0.0,0.0,0.0,0.0,0.0,0.0,0.0,-0.0135,-0.0875,-0.1545,-0.2213,-0.3015,-0.3689,-0.4233,-0.43,-0.43,-0.4249,-0.4004,-0.3872,-0.3819,-0.3645,-0.3583,-0.3583,-0.3583,-0.3583,-0.3583,-0.3583,-0.3583,-0.3583,-0.3583,-0.3583,-0.3583,-0.3585,-0.3585,-0.3585,-0.3585,-0.3585,-0.3585,-0.3585,-0.3585,-0.3585,-0.3585,-0.3585,-0.3585,-0.3585,-0.3585,-0.3585,-0.3585,-0.3585,-0.3585,-0.3585,-0.3585,-0.3585,-0.3585,-0.3585,-0.3585,-0.3585,-0.3585,-0.3913,-0.4463,-0.4463,-0.4736,0.5765,0.5949,0.6047,0.615,0.6178,0.6173,0.6064,0.5841,0.5458,0.506,0.4501,0.4,0.3739,0.3545,0.3411,0.3444,0.3721,0.0,0.4058,0.4249,0.0,0.466,0.0,0.4624,0.4773,0.4787,0.0,0.0,0.3739,0.3356,0.3435,0.2659,0.2192,0.2192,0.1957,0.1566,0.0941,0.0314,0.0,0.0,0.0,0.0,0.0,0.0,0.0,0.0,0.0,0.0,0.0,0.0,0.0,0.0,0.0,0.0,0.0,0.0,0.0,-0.0135,-0.0875,-0.121,-0.1679,-0.3424,-0.3758,-0.3553,-0.4164,-0.43,-0.4249,-0.4004,-0.3811,-0.3696,-0.3529,-0.3357,-0.3244,-0.3244,-0.3244,-0.3244,-0.3244,-0.3244,-0.3244,-0.3244,-0.3357,-0.3471,-0.3583,-0.3585,-0.3585,-0.3585,-0.3585,-0.3585,-0.3585,-0.3585,-0.3585,-0.3585,-0.3585,-0.3585,-0.3585,-0.3585,-0.3585,-0.3585,-0.3585,-0.3585,-0.3585,-0.3585,-0.3585,-0.3585,-0.3585,-0.3585,-0.3585,-0.3585,-0.3694,-0.3805,-0.3805,-0.4135,0.5991,0.6138,0.6178,0.6178,0.6178,0.6154,0.6114,0.5873,0.5553,0.5037,0.4489,0.4028,0.3572,0.3412,0.3322,0.0,0.0,0.0,0.4102,0.4319,0.4537,0.0,0.4732,0.0,0.4904,0.4915,0.4942,0.0,0.4488,0.4246,0.4302,0.3521,0.3051,0.3051,0.2737,0.2113,0.1332,0.0784,0.0392,0.0,0.0,0.0,0.0,0.0,0.0,0.0,0.0,0.0,0.0,0.0,0.0,0.0,0.0,0.0,0.0,0.0,0.0,-0.0067,-0.074,-0.074,-0.0807,-0.2684,-0.322,-0.3153,-0.322,-0.3625,-0.3992,-0.3432,-0.3451,-0.3591,-0.343,-0.3258,-0.319,-0.3142,-0.3074,-0.3074,-0.3074,-0.3074,-0.3074,-0.3074,-0.3188,-0.3299,-0.3357,-0.3357,-0.3413,-0.3527,-0.3527,-0.3527,-0.3583,-0.3585,-0.3585,-0.3585,-0.3585,-0.3585,-0.3585,-0.3585,-0.3585,-0.3585,-0.3585,-0.3585,-0.3585,-0.3585,-0.3585,-0.3585,-0.3585,-0.3585,-0.3585,-0.3585,-0.3585,-0.3585,-0.3585,-0.3805,0.6234,0.6282,0.6337,0.6337,0.6337,0.6284,0.601,0.5939,0.5649,0.47,0.4288,0.392,0.3304,0.3178,0.318,0.3213,0.0,0.3941,0.4096,0.4319,0.4561,0.4806,0.4849,0.4901,0.5007,0.5018,0.5018,0.5018,0.5018,0.5018,0.5018,0.4304,0.3988,0.3988,0.3129,0.227,0.1488,0.1332,0.0862,0.0,0.0,0.0,0.0,0.0,0.0,0.0,0.0,0.0,0.0,0.0,0.0,0.0067,0.0067,0.0067,0.0067,0.0067,0.0067,0.0,-0.0471,-0.0202,0.0067,-0.1544,-0.235,-0.2552,-0.2012,-0.2616,-0.3334,-0.2593,-0.2832,-0.3242,-0.3047,-0.2995,-0.2971,-0.2817,-0.2794,-0.2794,-0.2794,-0.2794,-0.285,-0.2963,-0.2963,-0.2963,-0.3074,-0.3074,-0.3132,-0.3357,-0.3357,-0.3413,-0.3527,-0.3583,-0.3585,-0.3585,-0.3585,-0.3585,-0.3585,-0.3585,-0.3585,-0.3585,-0.3585,-0.3585,-0.3585,-0.3583,-0.3583,-0.3583,-0.3527,-0.3527,-0.3583,-0.3527,-0.3527,-0.3583,-0.3527,-0.3527,0.6588,0.6761,0.6923,0.6923,0.6923,0.6811,0.6322,0.6122,0.0,0.503,0.4311,0.3742,0.3558,0.3209,0.2993,0.3186,0.3458,0.3757,0.4072,0.4319,0.4561,0.0,0.4923,0.4993,0.5015,0.5018,0.0,0.0,0.0,0.5018,0.5018,0.4859,0.4779,0.4779,0.399,0.3129,0.227,0.1644,0.0862,0.0,0.0,0.0,0.0,0.0,0.0,0.0,0.0,0.0,0.0,0.0,0.0067,0.027,0.027,0.0337,0.0404,0.0404,0.0404,0.0404,0.0337,0.0337,0.0202,-0.1208,-0.1342,-0.1007,-0.1476,-0.181,-0.1933,-0.1683,-0.1608,-0.1588,-0.1493,-0.1409,-0.1339,-0.1295,-0.1284,-0.1284,-0.1284,-0.1284,-0.1453,-0.2069,-0.2181,-0.2406,-0.3019,-0.3074,-0.313,-0.3132,-0.3132,-0.3244,-0.3413,-0.3527,-0.3585,-0.3585,-0.3585,-0.3585,-0.3585,-0.3585,-0.3585,-0.3585,-0.3585,-0.3585,-0.3585,-0.3471,-0.3413,-0.3413,-0.3244,-0.3244,-0.3413,-0.3244,-0.3244,-0.3413,-0.3244,-0.3299,0.6869,0.7025,0.7085,0.7085,0.7085,0.6935,0.6273,0.0,0.0,0.4851,0.4177,0.3652,0.3283,0.3146,0.3099,0.3044,0.3586,0.415,0.4696,0.5104,0.5527,0.5976,0.6003,0.6093,0.6318,0.5857,0.5709,0.5941,0.0,0.5249,0.5018,0.5018,0.5018,0.5018,0.4621,0.407,0.3363,0.2817,0.2192,0.1489,0.1332,0.1332,0.1489,0.1489,0.1254,0.1017,0.0968,0.0,0.029,0.0276,0.0337,0.0404,0.0404,0.0472,0.0472,0.0472,0.0472,0.0539,0.0607,0.0674,0.0539,0.0,-0.0268,-0.0403,-0.0336,-0.0806,-0.1272,-0.0792,-0.0921,-0.1109,-0.0999,-0.0975,-0.0956,-0.0925,-0.0905,-0.0894,-0.0894,-0.0894,-0.1006,-0.1342,-0.1454,-0.1566,-0.1899,-0.1955,-0.2068,-0.246,-0.2517,-0.2685,-0.3188,-0.3299,-0.3413,-0.3583,-0.3585,-0.3583,-0.3527,-0.3471,-0.3471,-0.3357,-0.3357,-0.3357,-0.3357,-0.3299,-0.3244,-0.3244,-0.3132,-0.3132,-0.3244,-0.3132,-0.3132,-0.3244,-0.313,-0.3132,0.7128,0.7246,0.7246,0.7246,0.7246,0.7067,0.6328,0.5961,0.5541,0.4719,0.4102,0.3639,0.3247,0.3193,0.3162,0.0,0.3608,0.4354,0.5197,0.5751,0.6316,0.7086,0.7191,0.0,0.7617,0.7007,0.0,0.6861,0.0,0.0,0.5174,0.5096,0.5096,0.5096,0.5096,0.4854,0.4144,0.3986,0.3595,0.2895,0.2737,0.2737,0.2895,0.2895,0.2582,0.211,0.1944,0.0,0.0,0.0624,0.0542,0.0539,0.0539,0.0607,0.0606,0.0606,0.0606,0.0674,0.0809,0.0876,0.0876,0.1076,0.0605,0.0134,0.0673,0.0135,-0.0538,0.0067,-0.0202,-0.0601,-0.0519,-0.0504,-0.0549,-0.0528,-0.0513,-0.0504,-0.0508,-0.0508,-0.0565,-0.0678,-0.0735,-0.0733,-0.0895,-0.0894,-0.1118,-0.1679,-0.179,-0.1958,-0.2571,-0.2794,-0.2963,-0.3246,-0.3416,-0.3469,-0.3357,-0.3357,-0.3244,-0.313,-0.3074,-0.3074,-0.3074,-0.3077,-0.3077,-0.3077,-0.3021,-0.3021,-0.3077,-0.3021,-0.3021,-0.3077,-0.3021,-0.3021,0.7405,0.7628,0.7848,0.7848,0.7848,0.7652,0.6875,0.6384,0.5851,0.5104,0.4231,0.3689,0.3932,0.3397,0.3064,0.3457,0.0,0.3718,0.4934,0.5506,0.6265,0.7341,0.0,0.0,0.8003,0.8003,0.7625,0.6942,0.0,0.0,0.5559,0.5559,0.5559,0.5559,0.5559,0.5162,0.4373,0.4373,0.3904,0.3046,0.3046,0.3046,0.3046,0.3046,0.3046,0.2965,0.2207,0.0,0.0,0.0918,0.0689,0.0742,0.0742,0.0876,0.1076,0.1076,0.1076,0.1076,0.1076,0.1076,0.1076,0.1076,0.1076,0.1008,0.1076,0.1008,0.0941,0.1008,0.0941,0.0868,0.0845,0.0821,0.0791,0.0743,0.0731,0.0735,0.0758,0.0762,0.0586,0.0,-0.0059,-0.0232,-0.0787,-0.0894,-0.095,-0.1006,-0.1006,-0.1062,-0.1285,-0.1789,-0.2183,-0.2296,-0.2798,-0.313,-0.313,-0.313,-0.313,-0.3074,-0.3074,-0.3074,-0.3074,-0.297,-0.2916,-0.2916,-0.2802,-0.2802,-0.2916,-0.2802,-0.2802,-0.2916,-0.2802,-0.2802,0.7419,0.7723,0.7955,0.8262,0.8109,0.7763,0.7267,0.6594,0.5901,0.5137,0.4487,0.4064,0.4212,0.3897,0.3718,0.3965,0.4121,0.4483,0.5382,0.6114,0.6941,0.8016,0.8483,0.0,0.0,0.0,0.8618,0.0,0.0,0.0,0.6714,0.6022,0.5637,0.5637,0.5637,0.5476,0.5312,0.516,0.5002,0.4763,0.4688,0.4688,0.4763,0.4763,0.4608,0.4213,0.3884,0.0,0.0,0.198,0.1653,0.1546,0.1144,0.1009,0.1076,0.1076,0.1076,0.1076,0.1076,0.1076,0.1076,0.1076,0.1076,0.1076,0.1076,0.1076,0.1076,0.1076,0.1076,0.1073,0.1062,0.1037,0.1,0.0939,0.0925,0.0923,0.0917,0.0915,0.0801,0.0572,0.0515,0.0456,0.0224,0.0168,0.0056,-0.028,-0.0336,-0.0504,-0.095,-0.1174,-0.1342,-0.1398,-0.2404,-0.3077,-0.297,-0.297,-0.2968,-0.2856,-0.2856,-0.2856,-0.2856,-0.2802,-0.2802,-0.2802,-0.2747,-0.2747,-0.2802,-0.2747,-0.2747,-0.2802,-0.2747,-0.2747,0.7603,0.7951,0.8215,0.8685,0.8357,0.792,0.7588,0.6759,0.5908,0.5292,0.4806,0.4481,0.4557,0.4408,0.4347,0.0,0.4695,0.5083,0.5795,0.6597,0.7522,0.8631,0.0,0.9639,0.0,0.9868,0.9382,0.0,0.0,0.0,0.7484,0.6637,0.6022,0.5792,0.5792,0.587,0.6022,0.587,0.587,0.6022,0.587,0.587,0.6022,0.6022,0.5786,0.5386,0.5103,0.0,0.0,0.2967,0.2408,0.2079,0.1611,0.1276,0.1076,0.1076,0.1076,0.1076,0.1076,0.1076,0.1076,0.1076,0.1076,0.1076,0.1076,0.1076,0.1076,0.1076,0.1076,0.1074,0.1065,0.1042,0.1007,0.0895,0.0877,0.0926,0.0913,0.0911,0.0911,0.0911,0.0911,0.0908,0.0899,0.0898,0.0729,0.0336,0.028,0.0112,-0.0336,-0.0503,-0.0615,-0.0615,-0.1732,-0.2404,-0.2296,-0.2296,-0.2296,-0.2183,-0.2352,-0.2352,-0.2183,-0.2521,-0.2635,-0.2465,-0.2635,-0.2691,-0.2691,-0.2691,-0.2691,-0.2691,-0.2691,-0.2691,0.7901,0.841,0.8679,0.9106,0.8673,0.8128,0.7846,0.688,0.5921,0.5656,0.5234,0.4945,0.5145,0.4969,0.4875,0.5038,0.4916,0.5124,0.6072,0.6806,0.772,0.0,0.0,1.0077,1.0677,1.0228,0.0,0.0,0.0,0.0,0.7561,0.7484,0.7103,0.6338,0.6261,0.6261,0.6261,0.6261,0.6261,0.6261,0.6261,0.6261,0.6261,0.6261,0.6261,0.0,0.0,0.0,0.0,0.367,0.2819,0.208,0.2079,0.1678,0.1076,0.1076,0.1076,0.1076,0.1076,0.1076,0.1076,0.1076,0.1076,0.1076,0.1076,0.1076,0.1076,0.1076,0.1076,0.1069,0.1042,0.1012,0.0981,0.0891,0.092,0.0906,0.0877,0.0884,0.0884,0.0884,0.0884,0.0874,0.0902,0.0898,0.0898,0.0898,0.0898,0.0898,0.0898,0.0336,0.0,0.0,-0.0559,-0.095,-0.0894,-0.0894,-0.0894,-0.0894,-0.1454,-0.1566,-0.095,-0.2071,-0.241,-0.1846,-0.2408,-0.2691,-0.2691,-0.2691,-0.2691,-0.2691,-0.2691,-0.2691,0.6552,0.7022,0.7418,0.7635,0.7485,0.7216,0.7036,0.6467,0.5854,0.5405,0.5215,0.5177,0.5422,0.5399,0.5486,0.5903,0.5833,0.0,0.6349,0.0,0.0,0.8792,0.9997,1.0803,0.0,0.0,0.0,0.0,0.0,0.0,0.916,0.8627,0.771,0.6338,0.6338,0.6338,0.6338,0.6338,0.6338,0.6338,0.6338,0.6338,0.6338,0.6338,0.6203,0.0,0.0,0.0,0.0,0.4485,0.3917,0.3551,0.3082,0.2748,0.2547,0.2547,0.2213,0.1812,0.1812,0.1478,0.1076,0.1076,0.1076,0.1076,0.1076,0.1076,0.1076,0.1076,0.1076,0.1074,0.1065,0.1055,0.1035,0.0986,0.0967,0.0951,0.0919,0.0912,0.0912,0.0912,0.0912,0.0909,0.0899,0.0898,0.0898,0.0898,0.0898,0.0898,0.0898,0.0729,0.0617,0.0617,0.0448,0.0,-0.0838,-0.0894,-0.0894,-0.0894,-0.1062,-0.1118,-0.0894,-0.1285,-0.1398,-0.1174,-0.1398,-0.1454,-0.1454,-0.1454,-0.1454,-0.1454,-0.1454,-0.1472,0.5985,0.6483,0.6912,0.7152,0.696,0.6708,0.6633,0.6175,0.5725,0.5395,0.5326,0.5379,0.5657,0.5744,0.5908,0.6347,0.6381,0.0,0.0,0.0,0.0,0.9115,0.0,0.0,0.0,0.0,0.0,0.0,0.0,0.0,0.9916,0.9301,0.828,0.6699,0.6689,0.6644,0.6338,0.6338,0.6338,0.6338,0.6338,0.623,0.6173,0.6173,0.6088,0.0,0.0,0.0,0.0,0.5043,0.4628,0.4287,0.3818,0.3418,0.3215,0.3215,0.2882,0.2547,0.2547,0.2214,0.1879,0.1879,0.1678,0.1411,0.121,0.1076,0.1076,0.1076,0.1076,0.1076,0.1076,0.1067,0.1048,0.1,0.098,0.0958,0.0909,0.0898,0.0898,0.0898,0.0898,0.0898,0.0898,0.0898,0.0898,0.0898,0.0898,0.0898,0.0898,0.0898,0.0898,0.0898,0.0898,0.0616,-0.0168,-0.0224,-0.0224,-0.0224,-0.0448,-0.0448,-0.0224,-0.0671,-0.0783,-0.0559,-0.0783,-0.0894,-0.0894,-0.0894,-0.0894,-0.0894,-0.0894,-0.0904,0.0,0.6505,0.6969,0.732,0.6954,0.652,0.6461,0.5987,0.0,0.5462,0.5493,0.561,0.5891,0.5987,0.6142,0.6422,0.6678,0.0,0.0,0.7838,0.0,0.0,1.0453,0.0,1.0749,0.0,0.0,0.0,0.0,0.0,0.997,0.9748,0.888,0.7405,0.7505,0.7145,0.6321,0.6244,0.6251,0.6338,0.6338,0.6179,0.603,0.603,0.5939,0.0,0.0,0.0,0.0,0.542,0.5024,0.4353,0.4353,0.3951,0.3351,0.3351,0.3349,0.3282,0.3282,0.3215,0.3215,0.3215,0.2748,0.2079,0.1411,0.121,0.1143,0.1143,0.1143,0.1143,0.1143,0.1054,0.1026,0.0996,0.0965,0.0876,0.0904,0.0898,0.0898,0.0898,0.0898,0.0898,0.0898,0.0898,0.0898,0.0898,0.0898,0.0898,0.0898,0.0898,0.0898,0.0898,0.0898,0.0898,0.0898,0.0898,0.0898,0.0898,0.0393,0.0336,0.0898,-0.0168,-0.0503,0.0056,-0.0503,-0.0783,-0.0783,-0.0783,-0.0783,-0.0783,-0.0783,-0.0784,0.4773,0.0,0.5829,0.5697,0.5729,0.5654,0.0,0.5535,0.5685,0.5267,0.5531,0.5884,0.617,0.6213,0.6451,0.7207,0.0,0.7246,0.7635,0.0,0.0,1.0725,1.0942,1.1021,1.1021,0.0,0.0,0.0,0.0,1.0953,1.0536,1.046,0.9901,0.8715,0.8198,0.7354,0.6084,0.6084,0.6142,0.6338,0.6338,0.6179,0.603,0.603,0.5888,0.0,0.0,0.0,0.5413,0.5442,0.5292,0.516,0.516,0.5024,0.4891,0.4891,0.4556,0.4018,0.4018,0.3685,0.3215,0.3215,0.3082,0.2882,0.2748,0.228,0.1745,0.1277,0.1478,0.1745,0.121,0.1054,0.1026,0.0996,0.0965,0.0876,0.0904,0.0898,0.0898,0.0898,0.0898,0.0898,0.0898,0.0898,0.0898,0.0898,0.0898,0.0898,0.0898,0.0898,0.0898,0.0898,0.0898,0.0898,0.0898,0.0898,0.0898,0.0898,0.0785,0.0729,0.0898,0.0616,0.056,0.0673,0.056,0.0504,0.0504,0.0504,0.0504,0.0504,0.0504,0.0518,0.4852,0.5255,0.5667,0.5609,0.5659,0.5667,0.5643,0.5779,0.5812,0.5529,0.5809,0.6204,0.648,0.6717,0.6966,0.7408,0.7745,0.0,0.0,0.0,1.0,1.0837,1.0923,1.0979,0.0,0.0,0.0,0.0,0.0,1.0816,1.0556,1.0429,0.9944,0.9034,0.8523,0.7864,0.6864,0.658,0.6625,0.7013,0.6719,0.6485,0.6251,0.5967,0.5701,0.0,0.0,0.0,0.5428,0.5428,0.5428,0.5428,0.5428,0.5428,0.5428,0.5428,0.516,0.4821,0.4821,0.4556,0.4154,0.3951,0.3751,0.3685,0.3418,0.3284,0.3084,0.2281,0.2347,0.2547,0.2147,0.1974,0.1856,0.1553,0.1385,0.1342,0.1298,0.1121,0.1009,0.1232,0.1065,0.0898,0.0898,0.0898,0.0898,0.0898,0.0898,0.0898,0.0898,0.0898,0.0898,0.0898,0.0898,0.0898,0.0898,0.0898,0.0898,0.0898,0.0898,0.0898,0.0898,0.0898,0.0898,0.0898,0.0898,0.0898,0.0898,0.0898,0.0898,0.0898,0.0898,0.0923,0.5451,0.5833,0.6178,0.6229,0.6189,0.6206,0.652,0.0,0.6114,0.6077,0.6311,0.6657,0.703,0.7333,0.0,0.0,0.0,0.0,0.9964,1.0142,1.0325,1.0713,1.0816,0.0,0.0,0.0,0.0,0.0,0.0,1.055,1.0284,0.9994,0.9644,0.9053,0.8723,0.8414,0.825,0.7447,0.7341,0.7924,0.7296,0.6921,0.6607,0.6065,0.5641,0.5425,0.0,0.0,0.5428,0.5428,0.5425,0.5425,0.5491,0.5495,0.5495,0.5495,0.5495,0.5495,0.5495,0.5495,0.5425,0.4957,0.4688,0.4486,0.402,0.4289,0.4625,0.3818,0.3485,0.3351,0.3215,0.3087,0.2874,0.2358,0.2105,0.198,0.1915,0.1512,0.1344,0.1846,0.1512,0.1177,0.1177,0.1177,0.1121,0.1065,0.1009,0.1009,0.0898,0.0898,0.0898,0.0898,0.0898,0.0898,0.0898,0.0898,0.0898,0.0898,0.0898,0.0898,0.0898,0.0898,0.0898,0.0898,0.0898,0.0898,0.0898,0.0898,0.0898,0.0898,0.0898,0.0916,0.5611,0.6544,0.7259,0.6562,0.6819,0.7121,0.668,0.6873,0.7017,0.0,0.0,0.0,0.8242,0.8098,0.8172,0.0,0.0,1.0269,0.0,0.0,1.117,1.108,0.0,0.0,0.0,0.0,0.0,0.0,0.0,1.0272,0.9946,0.9892,0.9832,0.9673,0.9022,0.8969,0.9651,0.825,0.7683,0.7924,0.7788,0.7408,0.6817,0.6753,0.6312,0.555,0.0,0.5488,0.5428,0.5554,0.555,0.562,0.5756,0.5826,0.5826,0.5826,0.5826,0.5826,0.5826,0.5826,0.5826,0.5756,0.569,0.5624,0.5554,0.5624,0.569,0.5554,0.4957,0.4223,0.3418,0.3216,0.3124,0.2913,0.2825,0.2677,0.2587,0.2514,0.2458,0.2569,0.2514,0.2402,0.2402,0.2402,0.2235,0.1734,0.168,0.1456,0.0953,0.0898,0.0898,0.0898,0.0898,0.0898,0.0898,0.0898,0.0898,0.0898,0.0898,0.0898,0.0898,0.0898,0.0898,0.0898,0.0898,0.0898,0.0898,0.0898,0.0898,0.0898,0.0898,0.0928,0.5794,0.6803,0.7718,0.7475,0.7834,0.8268,0.8476,0.831,0.8073,0.0,0.0,0.0,0.0,0.0,0.9548,1.0653,0.0,1.0647,1.1568,1.1427,1.1255,0.0,0.0,0.0,0.0,0.0,0.0,0.0,0.0,0.0,0.9996,0.9984,0.9928,0.9932,0.9594,0.9588,0.9983,0.9314,0.8964,0.9014,0.8668,0.8348,0.7986,0.726,0.6685,0.6268,0.0,0.5756,0.569,0.5752,0.5752,0.5752,0.5888,0.5888,0.5888,0.5888,0.5888,0.5888,0.5888,0.5888,0.5888,0.602,0.602,0.5888,0.602,0.6086,0.6017,0.5954,0.5624,0.5223,0.4752,0.4584,0.4472,0.4037,0.3872,0.3757,0.3577,0.3323,0.3135,0.3355,0.3121,0.2901,0.2901,0.2901,0.2845,0.2567,0.251,0.2399,0.2122,0.2066,0.2066,0.2066,0.2066,0.2066,0.2066,0.2066,0.1733,0.0953,0.0898,0.0898,0.0898,0.0898,0.0954,0.101,0.0954,0.0954,0.1122,0.1066,0.1066,0.1122,0.1122,0.1094,0.6026,0.69,0.7767,0.816,0.8606,0.9128,0.9993,0.9589,0.9014,0.0,0.0,0.0,0.0,1.0098,0.0,1.1817,1.1423,1.1201,1.1953,1.1737,1.1527,0.0,0.0,0.0,0.0,0.0,0.0,0.0,0.0,0.0,0.9996,0.9983,1.0047,1.0047,1.0047,1.011,1.011,1.011,1.011,0.9983,0.9454,0.9186,0.9058,0.7962,0.7381,0.7186,0.6666,0.6408,0.6408,0.628,0.6214,0.6214,0.6086,0.6024,0.6024,0.6024,0.6024,0.6024,0.6024,0.6024,0.602,0.6214,0.6148,0.602,0.6214,0.6214,0.6214,0.6086,0.6024,0.602,0.5892,0.5795,0.5623,0.5131,0.4915,0.4725,0.4546,0.4155,0.3883,0.4147,0.384,0.3506,0.3506,0.3506,0.3453,0.334,0.3284,0.3284,0.3118,0.3118,0.3118,0.3118,0.3118,0.3118,0.3118,0.3118,0.2621,0.1511,0.1399,0.1399,0.1399,0.1399,0.14,0.1346,0.14,0.1456,0.1514,0.1569,0.1569,0.1514,0.1514,0.1428,0.6451,0.695,0.7492,0.8048,0.87,0.936,1.0024,0.9873,0.0,1.0,0.0,0.0,0.0,1.0951,1.1463,1.2174,1.2263,1.241,1.2742,0.0,0.0,0.0,0.0,0.0,0.0,0.0,0.0,0.0,0.0,0.0,0.9983,0.9983,1.011,1.0238,1.0308,1.0371,1.0561,1.0561,1.0371,0.9983,0.9919,0.9722,0.9268,0.9139,0.8753,0.8102,0.8086,0.7957,0.7832,0.7312,0.7116,0.7051,0.6544,0.6354,0.6354,0.6354,0.6354,0.6354,0.6354,0.6354,0.6354,0.635,0.635,0.6354,0.635,0.6416,0.635,0.6354,0.6354,0.6284,0.5954,0.5881,0.5832,0.5676,0.5627,0.5534,0.5221,0.5093,0.5045,0.4875,0.4787,0.4787,0.4787,0.4787,0.4563,0.4009,0.395,0.3729,0.3174,0.3118,0.3118,0.3118,0.3118,0.3118,0.3118,0.3118,0.3063,0.2952,0.2952,0.2952,0.2952,0.2952,0.2679,0.2127,0.2679,0.2679,0.2128,0.2679,0.2679,0.2128,0.2128,0.1883,0.6181,0.7038,0.7965,0.8135,0.8973,0.0,0.0,1.0343,1.047,1.1011,1.1138,0.0,0.0,0.0,1.1953,1.2495,1.2413,1.2395,1.2794,0.0,0.0,0.0,0.0,0.0,0.0,0.0,0.0,0.0,0.0,0.0,1.0912,1.0671,1.0719,1.1045,1.0681,1.0498,1.0624,1.0624,1.0498,1.0371,1.0371,1.0301,1.011,0.9652,0.9262,0.9005,0.8549,0.835,0.8291,0.8096,0.8027,0.7967,0.7777,0.7712,0.7712,0.7712,0.7712,0.7647,0.7195,0.7068,0.7003,0.6548,0.642,0.642,0.642,0.642,0.642,0.642,0.642,0.6354,0.6218,0.6222,0.6203,0.6136,0.612,0.6053,0.5875,0.5739,0.5553,0.5372,0.5254,0.5128,0.5128,0.5128,0.5073,0.4846,0.4794,0.4736,0.4512,0.4457,0.4457,0.4457,0.4457,0.4457,0.4457,0.4457,0.4457,0.4457,0.3619,0.3118,0.3118,0.3118,0.301,0.2901,0.301,0.3065,0.3072,0.3178,0.3178,0.3072,0.3072,0.2869,0.6189,0.7184,0.8185,0.8106,0.0,0.0,1.0579,1.0754,1.0998,1.1688,1.1819,1.1868,1.1828,0.0,0.0,0.0,1.2319,1.2273,0.0,0.0,0.0,0.0,0.0,0.0,0.0,0.0,0.0,0.0,0.0,0.0,0.0,1.1026,1.0929,1.1316,1.0726,1.0586,1.087,1.0593,1.0546,1.0726,1.0451,1.0443,1.0561,0.9945,0.9712,0.9643,0.9119,0.8943,0.9012,0.8758,0.8612,0.849,0.849,0.849,0.849,0.849,0.849,0.8425,0.7972,0.7847,0.7717,0.7195,0.7064,0.7064,0.7064,0.7064,0.6999,0.6811,0.6745,0.6745,0.6745,0.6548,0.642,0.642,0.642,0.6367,0.6248,0.6072,0.5831,0.5649,0.5414,0.5297,0.5297,0.5297,0.5297,0.5297,0.5297,0.5297,0.5297,0.5297,0.5297,0.5297,0.5297,0.5297,0.5297,0.5297,0.5297,0.5297,0.4346,0.3788,0.3788,0.3788,0.3732,0.368,0.3732,0.3846,0.3904,0.3901,0.3901,0.3904,0.3904,0.368,0.6615,0.7304,0.7971,0.7821,0.891,0.0,1.0664,1.0947,1.1304,1.1994,1.2166,1.2157,1.2126,1.2166,0.0,1.2126,1.2135,1.2182,0.0,0.0,0.0,0.0,0.0,0.0,0.0,0.0,0.0,0.0,0.0,0.0,0.0,1.08,1.0654,1.0914,1.0402,1.0554,1.1469,1.0561,1.0409,1.1063,1.0172,1.0047,1.0604,1.0247,1.0114,1.0094,0.9813,0.9846,1.0046,0.937,0.8902,0.8479,0.8479,0.8484,0.8484,0.8484,0.849,0.849,0.849,0.849,0.849,0.849,0.849,0.849,0.849,0.849,0.8361,0.7717,0.7521,0.7521,0.7521,0.6937,0.6416,0.6416,0.6416,0.6367,0.6248,0.6072,0.5835,0.5644,0.5474,0.5301,0.5301,0.5301,0.5301,0.5297,0.5297,0.5297,0.5297,0.5301,0.5301,0.5301,0.5301,0.5301,0.5301,0.5301,0.5301,0.5301,0.5301,0.5301,0.5297,0.5297,0.5073,0.4519,0.5018,0.5018,0.4519,0.5018,0.5018,0.4519,0.4519,0.4181,0.6581,0.7335,0.8169,0.8198,0.9555,1.0876,0.0,1.1352,0.0,0.0,1.2323,1.2126,1.2076,0.0,0.0,1.2076,1.2135,0.0,0.0,0.0,0.0,0.0,0.0,0.0,0.0,0.0,0.0,0.0,0.0,0.0,0.0,1.1579,1.1336,1.1337,1.1073,1.0886,1.0806,1.0886,1.0842,1.0661,1.0394,1.0168,0.994,0.9853,0.9813,0.9806,0.9719,0.9733,0.9813,0.963,0.9439,0.9336,0.9336,0.9449,0.9618,0.9618,0.9806,0.9913,0.939,0.9198,0.9134,0.8678,0.849,0.849,0.849,0.849,0.849,0.8231,0.8231,0.8231,0.8231,0.8037,0.7907,0.7907,0.7907,0.7782,0.7501,0.734,0.718,0.684,0.6688,0.6436,0.5996,0.5941,0.5782,0.5352,0.5297,0.5297,0.5297,0.5677,0.5941,0.5941,0.5941,0.6105,0.6544,0.6544,0.6544,0.6544,0.6544,0.6164,0.5352,0.5297,0.5242,0.5077,0.5242,0.5242,0.5077,0.5242,0.5242,0.5077,0.5077,0.4963,0.7412,0.8122,0.8886,0.9547,1.0768,1.1855,1.2101,0.0,0.0,0.0,1.2618,1.251,1.2372,1.2461,0.0,1.2372,0.0,0.0,0.0,0.0,0.0,0.0,0.0,0.0,0.0,0.0,0.0,0.0,0.0,0.0,0.0,1.1782,1.1562,1.1603,1.1273,1.1169,1.1189,1.1177,1.0996,1.0718,1.0306,0.9875,0.9339,0.9452,0.9506,0.9506,0.9506,0.9506,0.9519,0.9633,0.9686,0.9686,0.9686,0.9793,0.996,1.0074,1.0234,1.0338,1.0066,0.9907,0.9843,0.9454,0.9326,0.9326,0.9326,0.9326,0.9262,0.9005,0.8877,0.8877,0.8877,0.8877,0.8812,0.8554,0.849,0.8425,0.8058,0.7886,0.7704,0.7353,0.718,0.6977,0.6647,0.6534,0.6431,0.6055,0.6005,0.6005,0.6005,0.6322,0.6623,0.6709,0.6643,0.6737,0.7214,0.7139,0.7085,0.7085,0.7085,0.6761,0.6055,0.6005,0.6005,0.6005,0.6005,0.6005,0.6005,0.6005,0.6005,0.6005,0.6005,0.6005,0.8624,0.9171,0.9779,1.1325,1.2124,1.2853,1.4125,1.3276,1.2323,1.2725,0.0,1.3122,1.2813,1.2987,1.3074,0.0,0.0,0.0,0.0,0.0,0.0,0.0,0.0,0.0,0.0,0.0,0.0,0.0,0.0,0.0,0.0,1.1628,1.1481,1.1659,1.1227,1.1374,1.2214,1.1382,1.1014,1.1022,1.0173,0.9465,0.8969,0.9133,0.9254,0.9302,0.9247,0.9254,0.9274,0.9492,0.9606,0.9606,0.9606,0.9619,0.9673,0.994,1.0067,1.0154,1.0428,1.0598,1.0624,1.0624,1.0624,1.0624,1.0624,1.0624,1.0428,0.9779,0.9582,0.9582,0.9582,0.9564,0.9418,0.8779,0.865,0.8584,0.8213,0.8034,0.7846,0.7491,0.7329,0.7246,0.7192,0.7187,0.7139,0.7085,0.7133,0.7139,0.7085,0.7155,0.7307,0.7577,0.7367,0.7389,0.7644,0.7455,0.7268,0.73,0.7246,0.7246,0.73,0.7192,0.7085,0.7085,0.7085,0.7085,0.7085,0.7085,0.7085,0.7139,0.7085,0.7139,0.8244,0.8598,0.9131,1.1214,1.2196,1.304,1.4154,1.3647,1.3074,1.3478,1.3372,1.317,1.3132,1.317,1.317,0.0,0.0,0.0,0.0,0.0,0.0,0.0,0.0,0.0,0.0,0.0,0.0,0.0,0.0,0.0,1.2076,1.1977,1.1763,1.1387,1.1692,1.1727,1.1507,1.1727,1.1633,0.0,1.1048,1.0643,1.002,0.9687,0.9769,1.0119,0.9716,0.9506,0.9461,0.9126,0.8998,0.8998,0.8998,0.9132,0.9289,0.9349,0.9719,1.0127,1.0187,1.0367,1.0624,1.0624,1.0624,1.0624,1.0624,1.0624,1.0561,1.0428,1.0364,1.0364,1.0364,1.0194,0.9956,0.9771,0.9771,0.9695,0.9413,0.9131,0.8794,0.8514,0.8472,0.8262,0.7824,0.7711,0.761,0.7139,0.7456,0.7557,0.7139,0.768,0.8152,0.8211,0.8342,0.8549,0.88,0.8792,0.8712,0.8593,0.848,0.8533,0.8732,0.767,0.7085,0.7085,0.7085,0.7085,0.7085,0.7085,0.7133,0.7235,0.7139,0.7241,0.835,0.8667,0.9177,1.1472,1.2656,1.3457,1.4233,1.4082,1.3847,1.4046,1.3752,1.3467,1.3467,1.3467,0.0,0.0,0.0,0.0,0.0,0.0,0.0,0.0,0.0,0.0,0.0,0.0,0.0,0.0,0.0,1.2076,1.2076,1.2076,1.1977,1.1669,1.1977,1.1977,1.1678,1.1977,1.1828,1.1326,1.1326,1.1158,1.0787,1.0218,1.0167,1.0364,1.0115,0.9961,0.9961,0.9666,0.9562,0.9562,0.9562,0.9664,0.9771,0.9937,1.0306,1.0799,1.0945,1.1207,1.1483,1.1115,1.1052,1.0996,1.0688,1.0624,1.0681,1.0681,1.0751,1.078,1.0629,1.0581,1.0534,1.039,1.0127,0.9833,0.9532,0.9352,0.9097,0.8864,0.8804,0.8699,0.8368,0.8309,0.8256,0.8043,0.8369,0.8565,0.8396,0.8863,0.9315,0.9453,0.9479,0.9601,0.9833,0.9624,0.9391,0.9342,0.9143,0.9061,0.9211,0.8521,0.809,0.809,0.809,0.809,0.809,0.809,0.815,0.8196,0.815,0.8196,0.8329,0.9088,0.995,1.194,1.3158,1.3999,1.4326,1.4373,1.4373,1.4373,1.415,1.3905,1.3905,1.3905,0.0,0.0,0.0,0.0,0.0,0.0,0.0,0.0,0.0,0.0,0.0,0.0,0.0,0.0,0.0,1.2076,1.2076,1.2076,1.2076,1.2076,1.2076,1.2076,1.2076,1.2076,1.1877,1.1427,1.1427,1.1427,1.1427,1.0939,1.0677,1.0677,1.0576,1.0576,1.0576,1.0415,1.0415,1.0415,1.0415,1.0415,1.0462,1.079,1.1138,1.1535,1.1826,1.2166,1.2389,1.1849,1.167,1.1608,1.1115,1.1052,1.1178,1.1045,1.1115,1.1183,1.0798,1.0828,1.0919,1.066,1.0241,0.9836,0.9583,0.9398,0.9302,0.9162,0.9054,0.8976,0.8977,0.8931,0.9004,0.9159,0.9432,0.9653,0.9757,1.0087,1.0376,1.0742,1.0533,1.0477,1.0678,1.0215,0.9866,0.9814,0.9609,0.9465,0.942,0.9361,0.9361,0.9256,0.9211,0.9211,0.9211,0.9211,0.9211,0.9211,0.9211,0.9211,0.7416,0.9639,1.1887,1.2347,1.3403,1.4326,0.0,0.0,1.4373,0.0,1.4384,1.4326,1.4326,0.0,0.0,0.0,0.0,0.0,0.0,0.0,0.0,0.0,0.0,0.0,0.0,0.0,0.0,0.0,1.2274,1.2076,1.2076,1.2076,1.2076,1.2076,1.2076,1.2076,1.2076,1.2076,1.2076,1.1977,1.1977,1.1977,1.1977,1.1918,1.1868,1.1868,1.1368,1.1167,1.1158,1.0626,1.0415,1.0415,1.0415,1.0415,1.0462,1.0828,1.1185,1.1535,1.1935,1.2278,1.2512,1.2389,1.2458,1.2581,1.252,1.2581,1.2581,1.2012,1.1826,1.1764,1.119,1.0828,1.0646,1.0604,1.0755,1.0891,1.0733,1.0277,1.0014,1.0474,1.0167,0.9806,0.9622,0.9562,0.9708,0.9981,1.0051,1.0136,1.0136,1.0404,1.078,1.1405,1.1153,1.0966,1.1012,1.0835,1.0589,1.0171,1.0438,1.0474,1.0241,1.0131,0.9917,0.9562,0.9309,0.9211,0.9211,0.9211,0.9263,0.9361,0.9263,0.9309,0.7198,0.9104,1.0919,1.1808,1.2833,1.3726,1.3993,1.4244,1.4373,1.4373,1.4373,1.4373,0.0,0.0,0.0,0.0,0.0,0.0,0.0,0.0,0.0,0.0,0.0,0.0,0.0,0.0,0.0,0.0,1.2657,1.2501,1.2224,1.255,1.2598,1.2323,1.2323,1.2283,1.2224,1.2224,1.2224,1.2224,1.2283,1.2323,1.2323,1.2323,1.2224,1.2076,1.1927,1.1828,1.1728,1.1601,1.1501,1.1342,1.1451,1.1392,1.1394,1.1774,1.2163,1.256,1.2989,1.3312,1.3571,1.3252,1.3252,1.326,1.3009,1.3009,1.307,1.2757,1.2757,1.2655,1.1813,1.1912,1.1994,1.0974,1.1713,1.2618,1.2655,1.1732,1.0809,1.0804,1.0618,1.0474,1.067,1.0732,1.0857,1.1319,1.154,1.1665,1.1781,1.2024,1.2358,1.265,1.2554,1.2461,1.2437,1.1988,1.1621,1.1473,1.1164,1.099,1.0854,1.0795,1.0685,1.049,0.9769,0.9413,0.9413,0.9413,0.9465,0.951,0.9458,0.9673,0.7157,0.8476,0.9728,1.1094,1.2222,1.3165,0.0,0.0,1.4373,0.0,1.4373,1.443,0.0,0.0,0.0,0.0,0.0,0.0,0.0,0.0,0.0,0.0,0.0,0.0,0.0,0.0,0.0,0.0,1.3218,1.3122,1.2754,1.3025,1.3025,1.2715,1.2578,1.2421,1.2323,1.2323,1.2323,1.2323,1.2421,1.248,1.248,1.248,1.2372,1.2224,1.2332,1.2274,1.2224,1.2431,1.2382,1.2224,1.2323,1.2283,1.224,1.2791,1.3118,1.3469,1.3978,1.4366,1.4565,1.4181,1.4052,1.3992,1.3683,1.3674,1.3734,1.3554,1.3623,1.3562,1.2636,1.2939,1.3168,1.1853,1.2772,1.3981,1.3907,1.291,1.1809,1.1217,1.1091,1.1277,1.1646,1.1721,1.1944,1.253,1.2845,1.3024,1.3083,1.3331,1.3571,1.3752,1.3631,1.3528,1.3612,1.3081,1.2715,1.261,1.2079,1.1701,1.1599,1.1462,1.136,1.12,1.0431,1.002,1.002,1.002,1.002,1.002,1.002,1.0233,0.7217,0.8246,0.9207,1.0661,1.1948,1.2989,0.0,0.0,1.4373,1.4373,1.4373,1.4441,0.0,0.0,0.0,0.0,0.0,0.0,0.0,0.0,0.0,0.0,0.0,0.0,0.0,0.0,0.0,0.0,1.4097,1.3931,1.3931,1.3457,1.317,1.317,1.2706,1.248,1.248,1.248,1.248,1.248,1.248,1.248,1.248,1.248,1.248,1.248,1.248,1.248,1.248,1.248,1.248,1.248,1.248,1.248,1.2575,1.337,1.3673,1.3815,1.4648,1.4961,1.498,1.4911,1.5029,1.5098,1.5088,1.5196,1.5177,1.4588,1.441,1.4282,1.3606,1.3433,1.3502,1.3416,1.3957,1.4231,1.3479,1.3355,1.3077,1.2061,1.1968,1.2112,1.2344,1.2355,1.2603,1.3339,1.3468,1.3476,1.3476,1.3494,1.3752,1.435,1.3872,1.3655,1.3928,1.3798,1.3606,1.3277,1.3347,1.316,1.2626,1.2278,1.1769,1.1209,1.115,1.1099,1.1099,1.1099,1.1099,1.1099,1.1099,1.115,0.649,0.0,0.0,0.9639,1.102,1.2193,1.2744,1.3671,1.4373,1.4373,1.4373,0.0,0.0,0.0,0.0,0.0,0.0,0.0,0.0,0.0,0.0,0.0,0.0,0.0,0.0,0.0,0.0,0.0,0.0,1.4444,1.4118,1.4305,1.4118,1.3467,1.3286,1.2997,1.2627,1.2627,1.2627,1.2627,1.2725,1.2783,1.2783,1.2783,1.2783,1.2783,1.2783,1.2676,1.2529,1.2686,1.2676,1.2529,1.2578,1.2578,1.2546,1.3096,1.3465,1.3777,1.4364,1.4743,1.5029,1.5098,1.5156,1.5215,1.5313,1.5362,1.5352,1.5118,1.5059,1.4942,1.4282,1.4401,1.4697,1.4697,1.4667,1.4601,1.4658,1.4028,1.3404,1.2983,1.2972,1.3099,1.3437,1.3755,1.412,1.4613,1.4697,1.4697,1.4697,1.4697,1.4815,1.5059,1.4874,1.4758,1.4898,1.4592,1.4372,1.4275,1.4043,1.3685,1.325,1.3106,1.2795,1.2323,1.2274,1.1918,1.12,1.12,1.12,1.12,1.12,1.141,0.6079,0.0,0.0,0.0,1.0103,1.1162,1.2016,0.0,1.4059,1.416,1.4408,0.0,0.0,0.0,0.0,0.0,0.0,0.0,0.0,0.0,0.0,0.0,0.0,0.0,0.0,0.0,0.0,0.0,0.0,0.0,1.4731,1.496,1.464,1.361,1.3621,1.343,1.3007,1.3007,1.3104,1.3238,1.3344,1.3296,1.3104,1.3104,1.3065,1.2881,1.2881,1.2783,1.2627,1.2832,1.2783,1.2627,1.2725,1.2725,1.2675,1.3097,1.3413,1.3729,1.4248,1.4801,1.5234,1.5264,1.543,1.5536,1.541,1.541,1.541,1.541,1.541,1.5352,1.5167,1.5293,1.5442,1.5292,1.4916,1.4736,1.5117,1.4307,1.3545,1.3691,1.3603,1.3643,1.4009,1.4492,1.4932,1.5352,1.541,1.541,1.541,1.5575,1.569,1.569,1.5853,1.6026,1.6026,1.5592,1.5319,1.5319,1.469,1.416,1.374,1.3584,1.3311,1.2891,1.2881,1.2529,1.176,1.176,1.176,1.176,1.176,1.1968,0.0,0.0,0.0,0.0,0.0,0.0,1.1415,0.0,1.3328,1.3619,1.4391,0.0,0.0,0.0,0.0,0.0,0.0,0.0,0.0,0.0,0.0,0.0,0.0,0.0,0.0,0.0,0.0,0.0,1.5792,1.5792,1.5792,1.5334,1.464,1.3658,1.3621,1.361,1.3621,1.361,1.3847,1.4305,1.4305,1.4071,1.3621,1.361,1.3344,1.2929,1.2929,1.2929,1.2929,1.2929,1.2881,1.2881,1.2881,1.2881,1.293,1.334,1.3496,1.3623,1.4508,1.518,1.5646,1.5474,1.5843,1.6177,1.5575,1.541,1.541,1.541,1.541,1.5575,1.6177,1.6015,1.5589,1.507,1.4888,1.4821,1.4821,1.4165,1.3704,1.4072,1.3818,1.3672,1.4082,1.4512,1.4998,1.5409,1.5468,1.5468,1.5468,1.5968,1.6301,1.6301,1.6866,1.7202,1.7202,1.6641,1.6312,1.6312,1.5415,1.4665,1.4116,1.375,1.333,1.291,1.2891,1.2881,1.2881,1.2881,1.2881,1.2881,1.2881,1.2881,0.6347,0.0,0.0,0.0,0.0,0.0,0.0,0.0,0.0,1.2677,0.0,0.0,0.0,0.0,0.0,0.0,0.0,0.0,0.0,0.0,0.0,0.0,0.0,0.0,0.0,0.0,0.0,0.0,1.5792,1.5792,1.5792,1.5334,1.4777,1.4118,1.4118,1.3931,1.3621,1.3941,1.4165,1.4305,1.4305,1.4071,1.361,1.3931,1.3847,1.343,1.3752,1.3894,1.3836,1.3152,1.2881,1.2881,1.2881,1.2881,1.2939,1.3438,1.3768,1.4124,1.4725,1.5235,1.569,1.5997,1.6254,1.6318,1.6095,1.6026,1.6026,1.6026,1.6026,1.6115,1.6339,1.6267,1.6053,1.5529,1.5477,1.5521,1.5405,1.5298,1.5112,1.4676,1.4884,1.5157,1.5226,1.5603,1.6054,1.662,1.6698,1.6698,1.6698,1.6866,1.6922,1.6922,1.709,1.7202,1.7202,1.7034,1.6754,1.6301,1.6469,1.5984,1.4674,1.4606,1.4215,1.334,1.3037,1.2881,1.2881,1.2881,1.2881,1.2881,1.2881,1.2881,0.0,0.0,0.0,0.0,0.0,0.0,0.0,1.058,0.0,0.0,0.0,0.0,0.0,0.0,0.0,0.0,0.0,0.0,0.0,0.0,0.0,0.0,0.0,0.0,0.0,1.5792,1.5792,1.5792,1.5792,1.5792,1.5792,1.5525,1.5153,1.4628,1.4628,1.4501,1.4222,1.4501,1.472,1.4949,1.4949,1.4674,1.4222,1.449,1.4351,1.3894,1.4165,1.4305,1.4258,1.3705,1.3478,1.3478,1.3248,1.3296,1.3478,1.3573,1.3872,1.4306,1.4801,1.5307,1.5764,1.5981,1.6381,1.6662,1.6148,1.6335,1.6557,1.6121,1.6373,1.6732,1.6771,1.6655,1.6387,1.5847,1.5637,1.5581,1.5727,1.6232,1.6347,1.5392,1.5677,1.6073,1.6073,1.6401,1.681,1.7146,1.7202,1.7202,1.7202,1.7424,1.7589,1.7589,1.7809,1.7929,1.7929,1.7699,1.7424,1.709,1.7146,1.6718,1.5615,1.5405,1.4944,1.4193,1.3703,1.3382,1.32,1.3027,1.2881,1.2881,1.2881,1.2881,0.6825,0.7281,0.0,0.0,0.0,0.0,0.9801,1.0476,1.1145,0.0,0.0,0.0,0.0,0.0,0.0,0.0,0.0,0.0,0.0,0.0,0.0,0.0,0.0,0.0,1.5792,1.5792,1.5792,1.5792,1.5792,1.5792,1.5792,1.5792,1.5558,1.5108,1.5153,1.5153,1.5108,1.5153,1.5379,1.5792,1.5792,1.557,1.5108,1.5153,1.4869,1.4398,1.4444,1.449,1.449,1.449,1.4387,1.4258,1.3847,1.3931,1.4258,1.3894,1.4025,1.4452,1.4938,1.5429,1.5854,1.5742,1.6401,1.7054,1.5994,1.6372,1.6918,1.5959,1.6535,1.7376,1.726,1.7,1.6671,1.6054,1.5688,1.5616,1.5997,1.703,1.7536,1.6367,1.6513,1.6793,1.6793,1.7093,1.7313,1.7424,1.7424,1.7424,1.7424,1.7875,1.8201,1.8255,1.8709,1.904,1.904,1.8548,1.8201,1.8159,1.7644,1.7159,1.6578,1.6148,1.5653,1.5121,1.4591,1.4071,1.3621,1.3113,1.2881,1.2881,1.2978,1.2968,0.8216,0.8225,0.8397,0.8539,0.0,0.0,0.8806,0.9067,0.9483,0.0,0.0,0.0,0.0,0.0,0.0,0.0,0.0,0.0,0.0,0.0,0.0,0.0,0.0,0.0,1.5792,1.5792,1.5792,1.5792,1.5792,1.5792,1.5792,1.5792,1.5558,1.5108,1.548,1.5468,1.5108,1.5468,1.5703,1.5792,1.5792,1.557,1.5108,1.5468,1.5379,1.496,1.5322,1.5513,1.5513,1.5513,1.504,1.4305,1.4212,1.4212,1.4351,1.4686,1.4869,1.5028,1.5484,1.5712,1.5897,1.6268,1.6551,1.6693,1.6398,1.6474,1.6588,1.6384,1.7171,1.785,1.6955,1.7075,1.7183,1.6197,1.6664,1.7207,1.6881,1.8006,1.8882,1.8196,1.8083,1.8105,1.8105,1.8089,1.8278,1.8721,1.8721,1.8709,1.8786,1.8827,1.8934,1.9146,1.9158,1.9223,1.9316,1.9105,1.8774,1.8278,1.8494,1.7982,1.6514,1.6508,1.6063,1.5034,1.4544,1.4071,1.3621,1.3113,1.2881,1.2929,1.3296,1.3478,0.8664,0.8645,0.8848,0.9087,0.0,0.0,0.0,0.9422,0.9682,1.0564,1.0576,1.0679,0.0,0.0,0.0,0.0,0.0,0.0,0.0,0.0,0.0,0.0,0.0,0.0,1.5372,1.5396,1.5504,1.5768,1.5792,1.5792,1.5792,1.5792,1.5703,1.548,1.5659,1.5703,1.5424,1.5703,1.5792,1.5792,1.5792,1.5659,1.5468,1.5703,1.5659,1.5468,1.5703,1.5792,1.5792,1.5792,1.5513,1.4994,1.4777,1.4812,1.504,1.5108,1.5244,1.5468,1.5703,1.5792,1.584,1.6104,1.6368,1.6525,1.6233,1.6138,1.6303,1.6867,1.7253,1.7448,1.723,1.7276,1.7188,1.6626,1.679,1.7152,1.7436,1.8189,1.8896,1.9157,1.9147,1.9109,1.8975,1.8869,1.8934,1.9263,1.9263,1.921,1.9275,1.9263,1.9263,1.9368,1.9328,1.9328,1.9368,1.9328,1.9158,1.8881,1.9093,1.8802,1.7938,1.747,1.674,1.5626,1.5108,1.4744,1.4479,1.4025,1.361,1.3248,1.3705,1.3847,0.0,0.0,0.0,0.0,0.0,0.958,0.0,0.0,0.0,1.1284,0.0,0.0,0.0,0.0,0.0,0.0,0.0,0.0,0.0,0.0,0.0,0.0,0.0,0.0,0.0,1.4761,1.4965,1.56,1.5552,1.562,1.578,1.5792,1.5792,1.5792,1.5792,1.5792,1.5792,1.5792,1.5792,1.5792,1.5792,1.5792,1.5792,1.5792,1.5792,1.5792,1.5792,1.5792,1.5792,1.5792,1.5792,1.5748,1.5379,1.548,1.5748,1.5379,1.5468,1.5792,1.5792,1.5792,1.5792,1.5792,1.608,1.6344,1.6013,1.5881,1.6061,1.7036,1.707,1.6922,1.7358,1.7257,1.702,1.6909,1.6801,1.6998,1.785,1.8307,1.8769,1.9635,1.9798,1.9759,1.9512,1.9473,1.942,1.942,1.942,1.942,1.942,1.942,1.942,1.9473,1.9473,1.9473,1.9473,1.9473,1.942,1.942,1.942,1.9322,1.9125,1.8068,1.7085,1.6212,1.5768,1.5478,1.5389,1.5119,1.4571,1.3847,1.4294,1.4294,0.0,0.0,0.0,0.0,1.0294,0.0,0.0,0.0,0.9982,0.9662,0.0,0.0,0.0,0.0,0.0,0.0,0.0,0.0,0.0,0.0,0.0,0.0,0.0,0.0,0.0,1.3951,1.4057,1.5025,1.4706,1.4838,1.5744,1.5792,1.5792,1.5792,1.5792,1.5792,1.5792,1.5792,1.5792,1.5792,1.5792,1.5792,1.5792,1.5792,1.5792,1.5792,1.5792,1.5792,1.5792,1.5792,1.5792,1.5792,1.5748,1.5748,1.5792,1.5748,1.5748,1.5792,1.5792,1.5792,1.5792,1.5792,1.5828,1.5921,1.6081,1.6057,1.6025,1.6303,1.6634,1.6901,1.6483,1.6794,1.7037,1.6573,1.7247,1.8053,1.8131,1.8945,1.966,1.9773,1.9798,1.9798,1.9759,1.9656,1.9565,1.9565,1.946,1.942,1.9565,1.9473,1.946,1.9759,1.9656,1.9604,1.9759,1.9656,1.9565,1.9565,1.9473,1.899,1.8031,1.695,1.6323,1.62,1.6144,1.5869,1.5389,1.5812,1.5546,1.4617,1.5073,1.5254,0.0,0.0,0.0,0.0,0.0,0.0,1.0198,0.0,1.0128,0.0,0.0,0.0,0.0,0.0,0.0,0.0,0.0,0.0,0.0,0.0,0.0,0.0,0.0,0.0,0.0,0.0,0.0,0.0,1.441,1.4614,1.5301,1.5624,1.5792,1.5792,1.5792,1.5792,1.5792,1.5792,1.5792,1.5792,1.5792,1.5792,1.5792,1.5792,1.5792,1.5792,1.5792,1.5792,1.5792,1.5869,1.5913,1.5913,1.6013,1.5925,1.5792,1.5792,1.5792,1.5792,1.5792,1.5836,1.5913,1.6013,1.6025,1.6057,1.6156,1.6144,1.6144,1.6275,1.6479,1.6603,1.6411,1.6579,1.6735,1.6498,1.7092,1.7815,1.8141,1.8807,1.9535,2.0143,2.0003,1.9901,2.0207,1.9952,1.9708,1.9708,1.9656,1.9656,1.9708,1.9656,1.9656,1.9798,1.9759,1.9759,1.9798,1.9759,1.9708,1.9708,1.9656,1.9269,1.8511,1.7787,1.7215,1.6903,1.6567,1.6262,1.602,1.625,1.6163,1.5744,1.5812,1.5712,1.02,0.0,0.0,0.0,0.0,0.0,0.0,0.0,0.0,0.0,0.0,0.0,0.0,0.0,0.0,0.0,0.0,0.0,0.0,0.0,0.0,0.0,0.0,0.0,0.0,0.0,0.0,0.0,0.0,1.4021,1.4953,1.5372,1.5648,1.5792,1.5792,1.5792,1.5792,1.5792,1.5836,1.5957,1.5836,1.5836,1.5913,1.5836,1.5792,1.5792,1.5957,1.6044,1.6088,1.6324,1.6411,1.6398,1.6509,1.6423,1.625,1.6013,1.5925,1.5925,1.5925,1.5957,1.6088,1.6231,1.6244,1.62,1.6275,1.6275,1.6275,1.6392,1.6436,1.6436,1.6479,1.6607,1.6718,1.6913,1.7472,1.8151,1.8716,1.9281,1.9881,2.0667,2.0396,2.0156,2.051,2.0156,1.985,2.0003,2.0003,2.0055,2.0194,2.0245,2.0245,2.0245,2.0245,2.0245,2.0245,2.0093,1.9952,1.9798,1.9522,1.9258,1.8983,1.8493,1.794,1.7388,1.6974,1.6672,1.6522,1.6522,1.6522,1.6522,1.6362,1.6088,0.0,0.0,0.0,1.0198,0.0,0.0,0.0,0.0,1.0781,0.0,0.0,0.0,0.0,0.0,0.0,0.0,0.0,0.0,0.0,0.0,0.0,0.0,0.0,0.0,0.0,0.0,0.0,0.0,0.0,0.0,1.4893,1.5025,1.5265,1.578,1.5792,1.5792,1.5792,1.5792,1.5957,1.6269,1.5957,1.5957,1.6269,1.5957,1.5792,1.5836,1.6423,1.668,1.671,1.7229,1.7463,1.7463,1.7463,1.7463,1.734,1.6522,1.62,1.62,1.62,1.62,1.6244,1.6362,1.6318,1.6231,1.6436,1.6436,1.6392,1.6479,1.6522,1.6522,1.6522,1.6863,1.7329,1.7895,1.8825,1.9696,2.0378,2.0948,2.1342,2.1369,2.0944,2.056,2.061,2.0156,1.9952,2.051,2.056,2.0746,2.1272,2.1369,2.1369,2.1369,2.1369,2.1369,2.1369,2.0894,2.0359,1.985,1.8832,1.8493,1.8958,1.8493,1.794,1.7388,1.7363,1.7074,1.6522,1.6522,1.6522,1.6522,1.6479,1.6479,0.0,0.0,1.1721,1.1194,0.0,0.0,0.0,0.0,0.0,0.0,0.0,0.0,0.0,0.0,0.0,0.0,0.0,0.0,0.0,0.0,0.0,0.0,0.0,0.0,0.0,0.0,0.0,0.0,1.2186,0.0,0.0,1.4933,1.5526,1.6367,1.6306,1.6306,1.638,1.6479,1.6436,1.6312,1.6436,1.6577,1.6693,1.6735,1.6735,1.6735,1.7076,1.7229,1.7229,1.753,1.7612,1.7625,1.7693,1.7693,1.7612,1.6879,1.6595,1.6595,1.671,1.671,1.6795,1.7214,1.7102,1.6905,1.7269,1.7144,1.6989,1.7269,1.7338,1.7338,1.7338,1.7796,1.8298,1.8528,1.9439,2.0316,2.0533,2.1023,2.1513,2.1874,2.1479,2.1237,2.1589,2.1237,2.0782,2.061,2.0894,2.1175,2.1369,2.1417,2.1417,2.1417,2.1417,2.1417,2.1417,2.0894,2.0359,1.985,1.9459,1.9346,1.9535,1.9032,1.8668,1.848,1.8116,1.7652,1.7087,1.7087,1.6886,1.6522,1.6522,1.6522,1.1645,1.1768,0.0,1.1675,1.1727,0.0,1.1047,0.0,0.0,0.0,0.0,0.0,0.0,0.0,0.0,0.0,0.0,0.0,0.0,0.0,0.0,0.0,0.0,0.0,0.0,0.0,1.1357,1.2253,1.2025,0.0,0.0,0.0,1.5772,1.6967,1.6909,1.6909,1.6993,1.7047,1.7047,1.6909,1.7047,1.7186,1.7282,1.731,1.7297,1.7338,1.7652,1.7801,1.7801,1.8054,1.8187,1.8187,1.8266,1.8266,1.8187,1.7407,1.7047,1.6976,1.7201,1.7201,1.7131,1.7625,1.7639,1.7475,1.772,1.7639,1.7475,1.772,1.7787,1.7842,1.8085,1.859,1.9114,1.9583,2.0404,2.1147,2.1356,2.1704,2.2063,2.237,2.203,2.1779,2.2123,2.1921,2.1575,2.1237,2.1479,2.1718,2.1908,2.1908,2.1908,2.1908,2.1908,2.186,2.1718,2.1179,2.0718,2.037,2.0215,2.0189,2.0383,1.9874,1.9457,1.9302,1.8765,1.8229,1.7677,1.7677,1.7476,1.7112,1.6923,1.6823]}]]